Wetterdaten: Sonntag, 11.11.2018
Datum Zeit Temp. A. Pool Temp. Temp. 5cm Feuchte A. Luftdruck Regen Wind Richtung Richtung Sonnenschein ET UV Solar Taupunkt Windchill Windben Empfang
11.11.2018 00:00 8,4 C 10,0 C 8,3 C 92 % 1011,3 hPa 0,0 l/m 3,7 km/h (1 Bft) O-NO 67 0 min 0,000 mm 0,0 UV-I 0 W/m 7,2 C 8,4 C 6,4 km/h (2 Bft) 98,00 %
11.11.2018 00:02 8,4 C 10,0 C 8,3 C 92 % 1011,3 hPa 0,0 l/m 2,6 km/h (1 Bft) O-NO 67 0 min 0,000 mm 0,0 UV-I 0 W/m 7,2 C 8,4 C 4,8 km/h (1 Bft) 97,44 %
11.11.2018 00:04 8,4 C 10,0 C 8,3 C 92 % 1011,3 hPa 0,0 l/m 2,0 km/h (1 Bft) O-NO 67 0 min 0,000 mm 0,0 UV-I 0 W/m 7,2 C 8,4 C 3,2 km/h (1 Bft) 93,62 %
11.11.2018 00:06 8,4 C 10,0 C 8,3 C 92 % 1011,3 hPa 0,0 l/m 2,6 km/h (1 Bft) O-NO 66 0 min 0,000 mm 0,0 UV-I 0 W/m 7,2 C 8,4 C 3,2 km/h (1 Bft) 95,74 %
11.11.2018 00:08 8,4 C 10,0 C 8,3 C 92 % 1011,3 hPa 0,0 l/m 4,0 km/h (1 Bft) O-NO 65 0 min 0,000 mm 0,0 UV-I 0 W/m 7,2 C 8,4 C 6,4 km/h (2 Bft) 98,00 %
11.11.2018 00:10 8,4 C 10,0 C 8,3 C 92 % 1011,3 hPa 0,0 l/m 4,4 km/h (1 Bft) NO 39 0 min 0,000 mm 0,0 UV-I 0 W/m 7,2 C 8,4 C 6,4 km/h (2 Bft) 96,00 %
11.11.2018 00:12 8,4 C 10,0 C 8,3 C 92 % 1011,3 hPa 0,0 l/m 3,4 km/h (1 Bft) NO 42 0 min 0,000 mm 0,0 UV-I 0 W/m 7,2 C 8,4 C 4,8 km/h (1 Bft) 93,62 %
11.11.2018 00:14 8,4 C 10,0 C 8,3 C 92 % 1011,4 hPa 0,0 l/m 3,5 km/h (1 Bft) NO 49 0 min 0,000 mm 0,0 UV-I 0 W/m 7,2 C 8,4 C 4,8 km/h (1 Bft) 100,00 %
11.11.2018 00:16 8,4 C 10,0 C 8,3 C 92 % 1011,4 hPa 0,0 l/m 3,6 km/h (1 Bft) O-NO 59 0 min 0,000 mm 0,0 UV-I 0 W/m 7,2 C 8,4 C 4,8 km/h (1 Bft) 100,00 %
11.11.2018 00:18 8,4 C 10,0 C 8,3 C 92 % 1011,4 hPa 0,0 l/m 3,7 km/h (1 Bft) O-NO 57 0 min 0,000 mm 0,0 UV-I 0 W/m 7,2 C 8,4 C 4,8 km/h (1 Bft) 97,87 %
11.11.2018 00:20 8,4 C 10,0 C 8,3 C 92 % 1011,3 hPa 0,0 l/m 3,9 km/h (1 Bft) O-NO 57 0 min 0,000 mm 0,0 UV-I 0 W/m 7,2 C 8,4 C 4,8 km/h (1 Bft) 97,87 %
11.11.2018 00:22 8,4 C 10,0 C 8,3 C 92 % 1011,3 hPa 0,0 l/m 4,9 km/h (1 Bft) NO 53 0 min 0,000 mm 0,0 UV-I 0 W/m 7,2 C 8,4 C 6,4 km/h (2 Bft) 100,00 %
11.11.2018 00:24 8,4 C 10,0 C 8,3 C 92 % 1011,2 hPa 0,0 l/m 6,0 km/h (2 Bft) NO 49 0 min 0,000 mm 0,0 UV-I 0 W/m 7,2 C 8,4 C 8,0 km/h (2 Bft) 96,00 %
11.11.2018 00:26 8,4 C 10,0 C 8,3 C 92 % 1011,2 hPa 0,0 l/m 6,4 km/h (2 Bft) NO 49 0 min 0,000 mm 0,0 UV-I 0 W/m 7,2 C 8,4 C 8,0 km/h (2 Bft) 100,00 %
11.11.2018 00:28 8,4 C 10,0 C 8,3 C 92 % 1011,2 hPa 0,0 l/m 6,3 km/h (2 Bft) NO 50 0 min 0,000 mm 0,0 UV-I 0 W/m 7,2 C 8,4 C 8,0 km/h (2 Bft) 100,00 %
11.11.2018 00:30 8,4 C 10,0 C 8,3 C 92 % 1011,2 hPa 0,0 l/m 5,8 km/h (2 Bft) NO 38 0 min 0,000 mm 0,0 UV-I 0 W/m 7,2 C 8,4 C 8,0 km/h (2 Bft) 97,87 %
11.11.2018 00:32 8,3 C 10,0 C 8,3 C 92 % 1011,2 hPa 0,0 l/m 5,1 km/h (1 Bft) NO 36 0 min 0,000 mm 0,0 UV-I 0 W/m 7,1 C 8,3 C 6,4 km/h (2 Bft) 95,74 %
11.11.2018 00:34 8,3 C 10,0 C 8,3 C 92 % 1011,2 hPa 0,0 l/m 4,4 km/h (1 Bft) NO 36 0 min 0,000 mm 0,0 UV-I 0 W/m 7,1 C 8,3 C 4,8 km/h (1 Bft) 93,62 %
11.11.2018 00:36 8,3 C 10,0 C 8,3 C 92 % 1011,2 hPa 0,0 l/m 4,4 km/h (1 Bft) NO 36 0 min 0,000 mm 0,0 UV-I 0 W/m 7,1 C 8,3 C 6,4 km/h (2 Bft) 95,74 %
11.11.2018 00:38 8,3 C 10,0 C 8,3 C 93 % 1011,3 hPa 0,0 l/m 4,8 km/h (1 Bft) NO 36 0 min 0,000 mm 0,0 UV-I 0 W/m 7,2 C 8,3 C 6,4 km/h (2 Bft) 100,00 %
11.11.2018 00:40 8,3 C 10,0 C 8,3 C 93 % 1011,3 hPa 0,0 l/m 4,7 km/h (1 Bft) NO 36 0 min 0,000 mm 0,0 UV-I 0 W/m 7,2 C 8,3 C 6,4 km/h (2 Bft) 100,00 %
11.11.2018 00:42 8,3 C 10,0 C 8,3 C 93 % 1011,3 hPa 0,0 l/m 4,3 km/h (1 Bft) NO 53 0 min 0,000 mm 0,0 UV-I 0 W/m 7,2 C 8,3 C 4,8 km/h (1 Bft) 100,00 %
11.11.2018 00:44 8,3 C 10,0 C 8,3 C 93 % 1011,3 hPa 0,0 l/m 3,1 km/h (1 Bft) NO 56 0 min 0,000 mm 0,0 UV-I 0 W/m 7,2 C 8,3 C 4,8 km/h (1 Bft) 97,87 %
11.11.2018 00:46 8,3 C 10,0 C 8,3 C 92 % 1011,3 hPa 0,0 l/m 2,5 km/h (1 Bft) NO 56 0 min 0,000 mm 0,0 UV-I 0 W/m 7,1 C 8,3 C 4,8 km/h (1 Bft) 100,00 %
11.11.2018 00:48 8,3 C 10,0 C 8,3 C 92 % 1011,3 hPa 0,0 l/m 2,9 km/h (1 Bft) NO 56 0 min 0,000 mm 0,0 UV-I 0 W/m 7,1 C 8,3 C 4,8 km/h (1 Bft) 94,74 %
11.11.2018 00:50 8,3 C 10,0 C 8,3 C 92 % 1011,3 hPa 0,0 l/m 2,8 km/h (1 Bft) O-NO 57 0 min 0,000 mm 0,0 UV-I 0 W/m 7,1 C 8,3 C 4,8 km/h (1 Bft) 100,00 %
11.11.2018 00:52 8,3 C 10,0 C 8,3 C 92 % 1011,3 hPa 0,0 l/m 2,7 km/h (1 Bft) O-NO 75 0 min 0,000 mm 0,0 UV-I 0 W/m 7,1 C 8,3 C 4,8 km/h (1 Bft) 98,00 %
11.11.2018 00:54 8,3 C 10,0 C 8,3 C 92 % 1011,3 hPa 0,0 l/m 2,3 km/h (1 Bft) O-NO 75 0 min 0,000 mm 0,0 UV-I 0 W/m 7,1 C 8,3 C 4,8 km/h (1 Bft) 100,00 %
11.11.2018 00:56 8,3 C 10,0 C 8,3 C 92 % 1011,4 hPa 0,0 l/m 2,7 km/h (1 Bft) O-NO 74 0 min 0,000 mm 0,0 UV-I 0 W/m 7,1 C 8,3 C 4,8 km/h (1 Bft) 100,00 %
11.11.2018 00:58 8,3 C 10,0 C 8,3 C 92 % 1011,4 hPa 0,0 l/m 2,2 km/h (1 Bft) O-NO 74 0 min 0,000 mm 0,0 UV-I 0 W/m 7,1 C 8,3 C 3,2 km/h (1 Bft) 97,87 %
11.11.2018 01:00 8,3 C 10,0 C 8,3 C 92 % 1011,4 hPa 0,0 l/m 1,1 km/h (1 Bft) O-NO 74 0 min 0,000 mm 0,0 UV-I 0 W/m 7,1 C 8,3 C 1,6 km/h (1 Bft) 97,87 %
11.11.2018 01:02 8,3 C 10,0 C 8,3 C 92 % 1011,5 hPa 0,0 l/m 2,1 km/h (1 Bft) O-NO 74 0 min 0,000 mm 0,0 UV-I 0 W/m 7,1 C 8,3 C 3,2 km/h (1 Bft) 97,87 %
11.11.2018 01:04 8,3 C 10,0 C 8,3 C 92 % 1011,4 hPa 0,0 l/m 3,1 km/h (1 Bft) O-NO 74 0 min 0,000 mm 0,0 UV-I 0 W/m 7,1 C 8,3 C 4,8 km/h (1 Bft) 97,87 %
11.11.2018 01:06 8,3 C 10,0 C 8,3 C 92 % 1011,4 hPa 0,0 l/m 1,7 km/h (1 Bft) O-NO 74 0 min 0,000 mm 0,0 UV-I 0 W/m 7,1 C 8,3 C 3,2 km/h (1 Bft) 97,87 %
11.11.2018 01:08 8,3 C 10,0 C 8,3 C 92 % 1011,4 hPa 0,0 l/m 1,4 km/h (1 Bft) O-NO 74 0 min 0,000 mm 0,0 UV-I 0 W/m 7,1 C 8,3 C 3,2 km/h (1 Bft) 95,83 %
11.11.2018 01:10 8,3 C 10,0 C 8,3 C 92 % 1011,4 hPa 0,0 l/m 2,4 km/h (1 Bft) O-NO 74 0 min 0,000 mm 0,0 UV-I 0 W/m 7,1 C 8,3 C 3,2 km/h (1 Bft) 95,74 %
11.11.2018 01:12 8,3 C 10,0 C 8,3 C 92 % 1011,4 hPa 0,0 l/m 2,4 km/h (1 Bft) O-NO 74 0 min 0,000 mm 0,0 UV-I 0 W/m 7,1 C 8,3 C 3,2 km/h (1 Bft) 93,62 %
11.11.2018 01:14 8,3 C 10,0 C 8,3 C 92 % 1011,4 hPa 0,0 l/m 2,1 km/h (1 Bft) O-NO 74 0 min 0,000 mm 0,0 UV-I 0 W/m 7,1 C 8,3 C 3,2 km/h (1 Bft) 93,62 %
11.11.2018 01:16 8,3 C 10,0 C 8,3 C 92 % 1011,5 hPa 0,0 l/m 1,4 km/h (1 Bft) O-NO 74 0 min 0,000 mm 0,0 UV-I 0 W/m 7,1 C 8,3 C 3,2 km/h (1 Bft) 95,74 %
11.11.2018 01:18 8,3 C 10,0 C 8,3 C 92 % 1011,5 hPa 0,0 l/m 2,3 km/h (1 Bft) O-NO 74 0 min 0,000 mm 0,0 UV-I 0 W/m 7,1 C 8,3 C 3,2 km/h (1 Bft) 95,74 %
11.11.2018 01:20 8,3 C 10,0 C 8,3 C 92 % 1011,5 hPa 0,0 l/m 2,4 km/h (1 Bft) O-NO 76 0 min 0,000 mm 0,0 UV-I 0 W/m 7,1 C 8,3 C 4,8 km/h (1 Bft) 93,62 %
11.11.2018 01:22 8,3 C 10,0 C 8,3 C 92 % 1011,5 hPa 0,0 l/m 2,0 km/h (1 Bft) O-NO 76 0 min 0,000 mm 0,0 UV-I 0 W/m 7,1 C 8,3 C 3,2 km/h (1 Bft) 96,00 %
11.11.2018 01:24 8,3 C 10,0 C 8,3 C 92 % 1011,5 hPa 0,0 l/m 1,5 km/h (1 Bft) O-NO 76 0 min 0,000 mm 0,0 UV-I 0 W/m 7,1 C 8,3 C 3,2 km/h (1 Bft) 94,29 %
11.11.2018 01:26 8,3 C 10,0 C 8,3 C 92 % 1011,5 hPa 0,0 l/m 1,0 km/h (0 Bft) O-NO 76 0 min 0,000 mm 0,0 UV-I 0 W/m 7,1 C 8,3 C 1,6 km/h (1 Bft) 95,92 %
11.11.2018 01:28 8,3 C 10,0 C 8,3 C 92 % 1011,5 hPa 0,0 l/m 2,7 km/h (1 Bft) O-NO 78 0 min 0,000 mm 0,0 UV-I 0 W/m 7,1 C 8,3 C 4,8 km/h (1 Bft) 93,62 %
11.11.2018 01:30 8,3 C 10,0 C 8,3 C 92 % 1011,4 hPa 0,0 l/m 2,9 km/h (1 Bft) O-NO 78 0 min 0,000 mm 0,0 UV-I 0 W/m 7,1 C 8,3 C 4,8 km/h (1 Bft) 95,74 %
11.11.2018 01:32 8,3 C 10,0 C 8,3 C 92 % 1011,4 hPa 0,0 l/m 3,8 km/h (1 Bft) O 86 0 min 0,000 mm 0,0 UV-I 0 W/m 7,1 C 8,3 C 4,8 km/h (1 Bft) 97,87 %
11.11.2018 01:34 8,3 C 10,0 C 8,3 C 92 % 1011,4 hPa 0,0 l/m 1,8 km/h (1 Bft) O 86 0 min 0,000 mm 0,0 UV-I 0 W/m 7,1 C 8,3 C 4,8 km/h (1 Bft) 100,00 %
11.11.2018 01:36 8,3 C 10,0 C 8,3 C 92 % 1011,4 hPa 0,0 l/m 0,7 km/h (0 Bft) O 87 0 min 0,000 mm 0,0 UV-I 0 W/m 7,1 C 8,3 C 3,2 km/h (1 Bft) 100,00 %
11.11.2018 01:38 8,3 C 10,0 C 8,3 C 92 % 1011,5 hPa 0,0 l/m 1,7 km/h (1 Bft) O 86 0 min 0,000 mm 0,0 UV-I 0 W/m 7,1 C 8,3 C 3,2 km/h (1 Bft) 95,74 %
11.11.2018 01:40 8,3 C 10,0 C 8,3 C 92 % 1011,5 hPa 0,0 l/m 0,6 km/h (0 Bft) O 86 0 min 0,000 mm 0,0 UV-I 0 W/m 7,1 C 8,3 C 1,6 km/h (1 Bft) 97,87 %
11.11.2018 01:42 8,3 C 10,0 C 8,3 C 92 % 1011,5 hPa 0,0 l/m 0,2 km/h (0 Bft) O 86 0 min 0,000 mm 0,0 UV-I 0 W/m 7,1 C 8,3 C 1,6 km/h (1 Bft) 97,87 %
11.11.2018 01:44 8,3 C 10,0 C 8,3 C 92 % 1011,5 hPa 0,0 l/m 1,5 km/h (1 Bft) O 87 0 min 0,000 mm 0,0 UV-I 0 W/m 7,1 C 8,3 C 3,2 km/h (1 Bft) 100,00 %
11.11.2018 01:46 8,3 C 10,0 C 8,3 C 92 % 1011,5 hPa 0,0 l/m 2,6 km/h (1 Bft) O 87 0 min 0,000 mm 0,0 UV-I 0 W/m 7,1 C 8,3 C 4,8 km/h (1 Bft) 100,00 %
11.11.2018 01:48 8,3 C 10,0 C 8,3 C 92 % 1011,4 hPa 0,0 l/m 1,2 km/h (1 Bft) O 87 0 min 0,000 mm 0,0 UV-I 0 W/m 7,1 C 8,3 C 3,2 km/h (1 Bft) 100,00 %
11.11.2018 01:50 8,3 C 10,0 C 8,3 C 92 % 1011,5 hPa 0,0 l/m 1,1 km/h (1 Bft) O 87 0 min 0,000 mm 0,0 UV-I 0 W/m 7,1 C 8,3 C 3,2 km/h (1 Bft) 100,00 %
11.11.2018 01:52 8,3 C 10,0 C 8,3 C 92 % 1011,5 hPa 0,0 l/m 1,5 km/h (1 Bft) O 87 0 min 0,000 mm 0,0 UV-I 0 W/m 7,1 C 8,3 C 3,2 km/h (1 Bft) 100,00 %
11.11.2018 01:54 8,3 C 10,0 C 8,3 C 92 % 1011,5 hPa 0,0 l/m 1,8 km/h (1 Bft) O 87 0 min 0,000 mm 0,0 UV-I 0 W/m 7,1 C 8,3 C 3,2 km/h (1 Bft) 97,87 %
11.11.2018 01:56 8,3 C 10,0 C 8,3 C 92 % 1011,5 hPa 0,0 l/m 3,3 km/h (1 Bft) O 87 0 min 0,000 mm 0,0 UV-I 0 W/m 7,1 C 8,3 C 4,8 km/h (1 Bft) 100,00 %
11.11.2018 01:58 8,3 C 10,0 C 8,3 C 92 % 1011,5 hPa 0,0 l/m 3,6 km/h (1 Bft) O 87 0 min 0,000 mm 0,0 UV-I 0 W/m 7,1 C 8,3 C 4,8 km/h (1 Bft) 100,00 %
11.11.2018 02:00 8,3 C 10,0 C 8,3 C 92 % 1011,5 hPa 0,0 l/m 2,3 km/h (1 Bft) O-SO 119 0 min 0,000 mm 0,0 UV-I 0 W/m 7,1 C 8,3 C 4,8 km/h (1 Bft) 100,00 %
11.11.2018 02:02 8,2 C 10,0 C 8,3 C 91 % 1011,5 hPa 0,0 l/m 3,4 km/h (1 Bft) O-SO 119 0 min 0,000 mm 0,0 UV-I 0 W/m 6,8 C 8,2 C 4,8 km/h (1 Bft) 98,11 %
11.11.2018 02:04 8,2 C 10,0 C 8,3 C 91 % 1011,5 hPa 0,0 l/m 3,4 km/h (1 Bft) O-SO 106 0 min 0,000 mm 0,0 UV-I 0 W/m 6,8 C 8,2 C 4,8 km/h (1 Bft) 100,00 %
11.11.2018 02:06 8,2 C 10,0 C 8,3 C 91 % 1011,4 hPa 0,0 l/m 4,1 km/h (1 Bft) O-SO 110 0 min 0,000 mm 0,0 UV-I 0 W/m 6,8 C 8,2 C 6,4 km/h (2 Bft) 100,00 %
11.11.2018 02:08 8,2 C 10,0 C 8,3 C 91 % 1011,4 hPa 0,0 l/m 3,2 km/h (1 Bft) O-SO 111 0 min 0,000 mm 0,0 UV-I 0 W/m 6,8 C 8,2 C 4,8 km/h (1 Bft) 97,87 %
11.11.2018 02:10 8,2 C 10,0 C 8,3 C 91 % 1011,4 hPa 0,0 l/m 2,9 km/h (1 Bft) O-SO 113 0 min 0,000 mm 0,0 UV-I 0 W/m 6,8 C 8,2 C 4,8 km/h (1 Bft) 100,00 %
11.11.2018 02:12 8,2 C 10,0 C 8,3 C 91 % 1011,4 hPa 0,0 l/m 3,4 km/h (1 Bft) O-SO 114 0 min 0,000 mm 0,0 UV-I 0 W/m 6,8 C 8,2 C 6,4 km/h (2 Bft) 100,00 %
11.11.2018 02:14 8,2 C 10,0 C 8,3 C 91 % 1011,4 hPa 0,0 l/m 3,6 km/h (1 Bft) O-SO 113 0 min 0,000 mm 0,0 UV-I 0 W/m 6,8 C 8,2 C 4,8 km/h (1 Bft) 100,00 %
11.11.2018 02:16 8,2 C 10,0 C 8,3 C 91 % 1011,4 hPa 0,0 l/m 3,5 km/h (1 Bft) O 97 0 min 0,000 mm 0,0 UV-I 0 W/m 6,8 C 8,2 C 6,4 km/h (2 Bft) 100,00 %
11.11.2018 02:18 8,2 C 10,0 C 8,3 C 91 % 1011,3 hPa 0,0 l/m 3,7 km/h (1 Bft) O 98 0 min 0,000 mm 0,0 UV-I 0 W/m 6,8 C 8,2 C 4,8 km/h (1 Bft) 100,00 %
11.11.2018 02:20 8,2 C 10,0 C 8,3 C 91 % 1011,3 hPa 0,0 l/m 4,3 km/h (1 Bft) O-SO 113 0 min 0,000 mm 0,0 UV-I 0 W/m 6,8 C 8,2 C 6,4 km/h (2 Bft) 100,00 %
11.11.2018 02:22 8,2 C 10,0 C 8,3 C 91 % 1011,3 hPa 0,0 l/m 4,7 km/h (1 Bft) O 94 0 min 0,000 mm 0,0 UV-I 0 W/m 6,8 C 8,2 C 6,4 km/h (2 Bft) 98,00 %
11.11.2018 02:24 8,2 C 10,0 C 8,3 C 91 % 1011,3 hPa 0,0 l/m 3,9 km/h (1 Bft) O 96 0 min 0,000 mm 0,0 UV-I 0 W/m 6,8 C 8,2 C 6,4 km/h (2 Bft) 97,87 %
11.11.2018 02:26 8,2 C 10,0 C 8,3 C 91 % 1011,4 hPa 0,0 l/m 1,3 km/h (1 Bft) O 96 0 min 0,000 mm 0,0 UV-I 0 W/m 6,8 C 8,2 C 3,2 km/h (1 Bft) 97,87 %
11.11.2018 02:28 8,2 C 10,0 C 8,3 C 91 % 1011,5 hPa 0,0 l/m 1,1 km/h (1 Bft) O 96 0 min 0,000 mm 0,0 UV-I 0 W/m 6,8 C 8,2 C 3,2 km/h (1 Bft) 97,87 %
11.11.2018 02:30 8,2 C 10,0 C 8,3 C 91 % 1011,5 hPa 0,0 l/m 0,6 km/h (0 Bft) O 96 0 min 0,000 mm 0,0 UV-I 0 W/m 6,8 C 8,2 C 1,6 km/h (1 Bft) 93,62 %
11.11.2018 02:32 8,2 C 10,0 C 8,3 C 91 % 1011,5 hPa 0,0 l/m 1,8 km/h (1 Bft) O 96 0 min 0,000 mm 0,0 UV-I 0 W/m 6,8 C 8,2 C 3,2 km/h (1 Bft) 93,62 %
11.11.2018 02:34 8,2 C 10,0 C 8,3 C 91 % 1011,6 hPa 0,0 l/m 1,7 km/h (1 Bft) O 96 0 min 0,000 mm 0,0 UV-I 0 W/m 6,8 C 8,2 C 3,2 km/h (1 Bft) 94,74 %
11.11.2018 02:36 8,2 C 10,0 C 8,3 C 91 % 1011,5 hPa 0,0 l/m 2,3 km/h (1 Bft) O 96 0 min 0,000 mm 0,0 UV-I 0 W/m 6,8 C 8,2 C 3,2 km/h (1 Bft) 97,87 %
11.11.2018 02:38 8,2 C 10,0 C 8,3 C 91 % 1011,5 hPa 0,0 l/m 2,0 km/h (1 Bft) O 96 0 min 0,000 mm 0,0 UV-I 0 W/m 6,8 C 8,2 C 3,2 km/h (1 Bft) 95,74 %
11.11.2018 02:40 8,2 C 10,0 C 8,3 C 91 % 1011,5 hPa 0,0 l/m 3,6 km/h (1 Bft) O 99 0 min 0,000 mm 0,0 UV-I 0 W/m 6,8 C 8,2 C 4,8 km/h (1 Bft) 95,74 %
11.11.2018 02:42 8,2 C 10,0 C 8,3 C 91 % 1011,5 hPa 0,0 l/m 2,2 km/h (1 Bft) O 99 0 min 0,000 mm 0,0 UV-I 0 W/m 6,8 C 8,2 C 3,2 km/h (1 Bft) 95,74 %
11.11.2018 02:44 8,2 C 10,0 C 8,3 C 91 % 1011,5 hPa 0,0 l/m 1,1 km/h (1 Bft) O 99 0 min 0,000 mm 0,0 UV-I 0 W/m 6,8 C 8,2 C 3,2 km/h (1 Bft) 96,00 %
11.11.2018 02:46 8,2 C 10,0 C 8,3 C 91 % 1011,5 hPa 0,0 l/m 2,8 km/h (1 Bft) S 180 0 min 0,000 mm 0,0 UV-I 0 W/m 6,8 C 8,2 C 4,8 km/h (1 Bft) 96,00 %
11.11.2018 02:48 8,2 C 10,0 C 8,3 C 91 % 1011,5 hPa 0,0 l/m 2,4 km/h (1 Bft) S 180 0 min 0,000 mm 0,0 UV-I 0 W/m 6,8 C 8,2 C 4,8 km/h (1 Bft) 93,62 %
11.11.2018 02:50 8,2 C 10,0 C 8,3 C 91 % 1011,4 hPa 0,0 l/m 2,4 km/h (1 Bft) O-SO 107 0 min 0,000 mm 0,0 UV-I 0 W/m 6,8 C 8,2 C 4,8 km/h (1 Bft) 93,75 %
11.11.2018 02:52 8,2 C 10,0 C 8,3 C 91 % 1011,4 hPa 0,0 l/m 4,2 km/h (1 Bft) O-SO 120 0 min 0,000 mm 0,0 UV-I 0 W/m 6,8 C 8,2 C 4,8 km/h (1 Bft) 94,74 %
11.11.2018 02:54 8,2 C 10,0 C 8,3 C 91 % 1011,4 hPa 0,0 l/m 5,6 km/h (1 Bft) O-SO 111 0 min 0,000 mm 0,0 UV-I 0 W/m 6,8 C 8,2 C 9,7 km/h (2 Bft) 96,00 %
11.11.2018 02:56 8,2 C 10,0 C 8,3 C 91 % 1011,4 hPa 0,0 l/m 4,5 km/h (1 Bft) O-SO 109 0 min 0,000 mm 0,0 UV-I 0 W/m 6,8 C 8,2 C 6,4 km/h (2 Bft) 93,62 %
11.11.2018 02:58 8,2 C 10,0 C 8,3 C 91 % 1011,5 hPa 0,0 l/m 2,6 km/h (1 Bft) O-SO 109 0 min 0,000 mm 0,0 UV-I 0 W/m 6,8 C 8,2 C 3,2 km/h (1 Bft) 93,62 %
11.11.2018 03:00 8,2 C 10,0 C 8,3 C 91 % 1011,4 hPa 0,0 l/m 3,2 km/h (1 Bft) O-SO 108 0 min 0,000 mm 0,0 UV-I 0 W/m 6,8 C 8,2 C 6,4 km/h (2 Bft) 91,49 %
11.11.2018 03:02 8,2 C 10,0 C 8,3 C 91 % 1011,4 hPa 0,0 l/m 6,9 km/h (2 Bft) O 97 0 min 0,000 mm 0,0 UV-I 0 W/m 6,8 C 7,8 C 11,3 km/h (2 Bft) 92,00 %
11.11.2018 03:04 8,2 C 10,0 C 8,3 C 91 % 1011,4 hPa 0,0 l/m 6,5 km/h (2 Bft) O-NO 63 0 min 0,000 mm 0,0 UV-I 0 W/m 6,8 C 8,1 C 11,3 km/h (2 Bft) 95,74 %
11.11.2018 03:06 8,2 C 10,0 C 8,3 C 91 % 1011,4 hPa 0,0 l/m 6,4 km/h (2 Bft) O 81 0 min 0,000 mm 0,0 UV-I 0 W/m 6,8 C 8,2 C 11,3 km/h (2 Bft) 95,74 %
11.11.2018 03:08 8,2 C 10,0 C 8,3 C 92 % 1011,4 hPa 0,0 l/m 5,8 km/h (2 Bft) O-SO 111 0 min 0,000 mm 0,0 UV-I 0 W/m 7,0 C 8,2 C 9,7 km/h (2 Bft) 92,11 %
11.11.2018 03:10 8,2 C 10,0 C 8,3 C 92 % 1011,5 hPa 0,0 l/m 4,9 km/h (1 Bft) SO 128 0 min 0,000 mm 0,0 UV-I 0 W/m 7,0 C 8,2 C 9,7 km/h (2 Bft) 95,65 %
11.11.2018 03:12 8,2 C 10,0 C 8,3 C 92 % 1011,5 hPa 0,0 l/m 2,7 km/h (1 Bft) SO 128 0 min 0,000 mm 0,0 UV-I 0 W/m 7,0 C 8,2 C 3,2 km/h (1 Bft) 95,74 %
11.11.2018 03:14 8,2 C 10,0 C 8,3 C 92 % 1011,5 hPa 0,0 l/m 4,1 km/h (1 Bft) SO 138 0 min 0,000 mm 0,0 UV-I 0 W/m 7,0 C 8,2 C 8,0 km/h (2 Bft) 93,62 %
11.11.2018 03:16 8,2 C 10,0 C 8,3 C 92 % 1011,5 hPa 0,0 l/m 3,4 km/h (1 Bft) SO 138 0 min 0,000 mm 0,0 UV-I 0 W/m 7,0 C 8,2 C 6,4 km/h (2 Bft) 94,00 %
11.11.2018 03:18 8,2 C 10,0 C 8,3 C 92 % 1011,5 hPa 0,0 l/m 1,6 km/h (1 Bft) SO 138 0 min 0,000 mm 0,0 UV-I 0 W/m 7,0 C 8,2 C 3,2 km/h (1 Bft) 93,62 %
11.11.2018 03:20 8,2 C 10,0 C 8,3 C 92 % 1011,5 hPa 0,0 l/m 3,5 km/h (1 Bft) SO 138 0 min 0,000 mm 0,0 UV-I 0 W/m 7,0 C 8,2 C 4,8 km/h (1 Bft) 95,74 %
11.11.2018 03:22 8,2 C 10,0 C 8,3 C 92 % 1011,5 hPa 0,0 l/m 2,4 km/h (1 Bft) SO 138 0 min 0,000 mm 0,0 UV-I 0 W/m 7,0 C 8,2 C 4,8 km/h (1 Bft) 95,74 %
11.11.2018 03:24 8,2 C 10,0 C 8,3 C 92 % 1011,5 hPa 0,0 l/m 0,1 km/h (0 Bft) SO 138 0 min 0,000 mm 0,0 UV-I 0 W/m 7,0 C 8,2 C 1,6 km/h (1 Bft) 93,62 %
11.11.2018 03:26 8,2 C 10,0 C 8,3 C 92 % 1011,5 hPa 0,0 l/m 1,4 km/h (1 Bft) SO 138 0 min 0,000 mm 0,0 UV-I 0 W/m 7,0 C 8,2 C 3,2 km/h (1 Bft) 93,75 %
11.11.2018 03:28 8,2 C 10,0 C 8,3 C 92 % 1011,6 hPa 0,0 l/m 3,1 km/h (1 Bft) O-NO 65 0 min 0,000 mm 0,0 UV-I 0 W/m 7,0 C 8,2 C 4,8 km/h (1 Bft) 93,62 %
11.11.2018 03:30 8,2 C 10,0 C 8,3 C 92 % 1011,6 hPa 0,0 l/m 5,0 km/h (1 Bft) O 89 0 min 0,000 mm 0,0 UV-I 0 W/m 7,0 C 8,2 C 6,4 km/h (2 Bft) 93,62 %
11.11.2018 03:32 8,2 C 10,0 C 8,3 C 92 % 1011,6 hPa 0,0 l/m 3,8 km/h (1 Bft) O 82 0 min 0,000 mm 0,0 UV-I 0 W/m 7,0 C 8,2 C 4,8 km/h (1 Bft) 94,00 %
11.11.2018 03:34 8,2 C 10,0 C 8,3 C 92 % 1011,6 hPa 0,0 l/m 3,3 km/h (1 Bft) O 81 0 min 0,000 mm 0,0 UV-I 0 W/m 7,0 C 8,2 C 4,8 km/h (1 Bft) 97,37 %
11.11.2018 03:36 8,2 C 10,0 C 8,3 C 92 % 1011,6 hPa 0,0 l/m 2,0 km/h (1 Bft) O 82 0 min 0,000 mm 0,0 UV-I 0 W/m 7,0 C 8,2 C 4,8 km/h (1 Bft) 100,00 %
11.11.2018 03:38 8,2 C 10,0 C 8,3 C 92 % 1011,6 hPa 0,0 l/m 5,4 km/h (1 Bft) SO 125 0 min 0,000 mm 0,0 UV-I 0 W/m 7,0 C 8,2 C 9,7 km/h (2 Bft) 97,87 %
11.11.2018 03:40 8,2 C 10,0 C 8,3 C 92 % 1011,6 hPa 0,0 l/m 10,0 km/h (2 Bft) SO 128 0 min 0,000 mm 0,0 UV-I 0 W/m 7,0 C 5,6 C 12,9 km/h (3 Bft) 100,00 %
11.11.2018 03:42 8,2 C 10,0 C 8,3 C 92 % 1011,6 hPa 0,0 l/m 8,6 km/h (2 Bft) O-SO 123 0 min 0,000 mm 0,0 UV-I 0 W/m 7,0 C 6,5 C 12,9 km/h (3 Bft) 97,87 %
11.11.2018 03:44 8,2 C 10,0 C 8,3 C 92 % 1011,5 hPa 0,0 l/m 6,8 km/h (2 Bft) O 88 0 min 0,000 mm 0,0 UV-I 0 W/m 7,0 C 7,9 C 11,3 km/h (2 Bft) 95,74 %
11.11.2018 03:46 8,2 C 10,0 C 8,3 C 92 % 1011,5 hPa 0,0 l/m 6,1 km/h (2 Bft) O-SO 104 0 min 0,000 mm 0,0 UV-I 0 W/m 7,0 C 8,2 C 9,7 km/h (2 Bft) 97,87 %
11.11.2018 03:48 8,2 C 10,0 C 8,3 C 92 % 1011,5 hPa 0,0 l/m 5,6 km/h (1 Bft) O 97 0 min 0,000 mm 0,0 UV-I 0 W/m 7,0 C 8,2 C 11,3 km/h (2 Bft) 100,00 %
11.11.2018 03:50 8,2 C 10,0 C 8,3 C 92 % 1011,5 hPa 0,0 l/m 6,1 km/h (2 Bft) O 82 0 min 0,000 mm 0,0 UV-I 0 W/m 7,0 C 8,2 C 11,3 km/h (2 Bft) 100,00 %
11.11.2018 03:52 8,2 C 10,0 C 8,3 C 92 % 1011,5 hPa 0,0 l/m 8,1 km/h (2 Bft) O-NO 76 0 min 0,000 mm 0,0 UV-I 0 W/m 7,0 C 6,9 C 14,5 km/h (3 Bft) 97,87 %
11.11.2018 03:54 8,1 C 10,0 C 8,3 C 92 % 1011,4 hPa 0,0 l/m 5,0 km/h (1 Bft) O-SO 113 0 min 0,000 mm 0,0 UV-I 0 W/m 6,9 C 8,1 C 11,3 km/h (2 Bft) 97,87 %
11.11.2018 03:56 8,1 C 10,0 C 8,3 C 92 % 1011,4 hPa 0,0 l/m 2,7 km/h (1 Bft) SO 137 0 min 0,000 mm 0,0 UV-I 0 W/m 6,9 C 8,1 C 4,8 km/h (1 Bft) 100,00 %
11.11.2018 03:58 8,1 C 10,0 C 8,3 C 92 % 1011,4 hPa 0,0 l/m 6,7 km/h (2 Bft) O-NO 78 0 min 0,000 mm 0,0 UV-I 0 W/m 6,9 C 7,9 C 12,9 km/h (3 Bft) 93,75 %
11.11.2018 04:00 8,1 C 10,0 C 8,3 C 92 % 1011,5 hPa 0,0 l/m 5,8 km/h (2 Bft) O 84 0 min 0,000 mm 0,0 UV-I 0 W/m 6,9 C 8,1 C 8,0 km/h (2 Bft) 97,96 %
11.11.2018 04:02 8,1 C 10,0 C 8,3 C 92 % 1011,6 hPa 0,0 l/m 4,0 km/h (1 Bft) SO 130 0 min 0,000 mm 0,0 UV-I 0 W/m 6,9 C 8,1 C 6,4 km/h (2 Bft) 93,75 %
11.11.2018 04:04 8,1 C 10,0 C 8,3 C 92 % 1011,8 hPa 0,0 l/m 2,8 km/h (1 Bft) O-SO 122 0 min 0,000 mm 0,0 UV-I 0 W/m 6,9 C 8,1 C 4,8 km/h (1 Bft) 97,87 %
11.11.2018 04:06 8,1 C 10,0 C 8,3 C 92 % 1011,9 hPa 0,0 l/m 1,6 km/h (1 Bft) O-SO 122 0 min 0,000 mm 0,0 UV-I 0 W/m 6,9 C 8,1 C 3,2 km/h (1 Bft) 97,87 %
11.11.2018 04:08 8,1 C 10,0 C 8,3 C 92 % 1012,0 hPa 0,0 l/m 1,2 km/h (1 Bft) S-SW 198 0 min 0,000 mm 0,0 UV-I 0 W/m 6,9 C 8,1 C 3,2 km/h (1 Bft) 95,74 %
11.11.2018 04:10 8,1 C 10,0 C 8,3 C 92 % 1012,1 hPa 0,0 l/m 2,8 km/h (1 Bft) S-SW 198 0 min 0,000 mm 0,0 UV-I 0 W/m 6,9 C 8,1 C 4,8 km/h (1 Bft) 95,35 %
11.11.2018 04:12 8,1 C 10,0 C 8,3 C 92 % 1012,1 hPa 0,0 l/m 3,7 km/h (1 Bft) SO 146 0 min 0,000 mm 0,0 UV-I 0 W/m 6,9 C 8,1 C 6,4 km/h (2 Bft) 96,00 %
11.11.2018 04:14 8,1 C 10,0 C 8,3 C 92 % 1012,0 hPa 0,0 l/m 2,5 km/h (1 Bft) SO 146 0 min 0,000 mm 0,0 UV-I 0 W/m 6,9 C 8,1 C 4,8 km/h (1 Bft) 97,87 %
11.11.2018 04:16 8,1 C 10,0 C 8,3 C 92 % 1012,0 hPa 0,0 l/m 3,0 km/h (1 Bft) SO 146 0 min 0,000 mm 0,0 UV-I 0 W/m 6,9 C 8,1 C 6,4 km/h (2 Bft) 97,87 %
11.11.2018 04:18 8,1 C 10,0 C 8,3 C 92 % 1012,0 hPa 0,0 l/m 3,6 km/h (1 Bft) SO 145 0 min 0,000 mm 0,0 UV-I 0 W/m 6,9 C 8,1 C 6,4 km/h (2 Bft) 100,00 %
11.11.2018 04:20 8,2 C 10,0 C 8,3 C 92 % 1012,0 hPa 0,0 l/m 2,7 km/h (1 Bft) O-NO 75 0 min 0,000 mm 0,0 UV-I 0 W/m 7,0 C 8,2 C 4,8 km/h (1 Bft) 100,00 %
11.11.2018 04:22 8,2 C 10,0 C 8,3 C 92 % 1011,9 hPa 0,0 l/m 4,3 km/h (1 Bft) O 80 0 min 0,000 mm 0,0 UV-I 0 W/m 7,0 C 8,2 C 6,4 km/h (2 Bft) 100,00 %
11.11.2018 04:24 8,1 C 10,0 C 8,3 C 92 % 1011,9 hPa 0,0 l/m 5,0 km/h (1 Bft) O-NO 76 0 min 0,000 mm 0,0 UV-I 0 W/m 6,9 C 8,1 C 6,4 km/h (2 Bft) 100,00 %
11.11.2018 04:26 8,1 C 10,0 C 8,3 C 92 % 1012,0 hPa 0,0 l/m 4,1 km/h (1 Bft) O 86 0 min 0,000 mm 0,0 UV-I 0 W/m 6,9 C 8,1 C 4,8 km/h (1 Bft) 100,00 %
11.11.2018 04:28 8,1 C 10,0 C 8,3 C 92 % 1012,0 hPa 0,0 l/m 3,4 km/h (1 Bft) O 92 0 min 0,000 mm 0,0 UV-I 0 W/m 6,9 C 8,1 C 4,8 km/h (1 Bft) 97,87 %
11.11.2018 04:30 8,1 C 10,0 C 8,3 C 92 % 1012,1 hPa 0,0 l/m 3,3 km/h (1 Bft) O 95 0 min 0,000 mm 0,0 UV-I 0 W/m 6,9 C 8,1 C 4,8 km/h (1 Bft) 97,87 %
11.11.2018 04:32 8,1 C 10,0 C 8,3 C 92 % 1012,1 hPa 0,0 l/m 3,7 km/h (1 Bft) O 96 0 min 0,000 mm 0,0 UV-I 0 W/m 6,9 C 8,1 C 4,8 km/h (1 Bft) 100,00 %
11.11.2018 04:34 8,1 C 10,0 C 8,3 C 92 % 1012,1 hPa 0,0 l/m 0,9 km/h (0 Bft) O 96 0 min 0,000 mm 0,0 UV-I 0 W/m 6,9 C 8,1 C 4,8 km/h (1 Bft) 97,87 %
11.11.2018 04:36 8,1 C 10,0 C 8,3 C 92 % 1012,2 hPa 0,0 l/m 1,6 km/h (1 Bft) O 97 0 min 0,000 mm 0,0 UV-I 0 W/m 6,9 C 8,1 C 3,2 km/h (1 Bft) 100,00 %
11.11.2018 04:38 8,2 C 10,0 C 8,3 C 92 % 1012,1 hPa 0,0 l/m 4,1 km/h (1 Bft) SO 126 0 min 0,000 mm 0,0 UV-I 0 W/m 7,0 C 8,2 C 8,0 km/h (2 Bft) 100,00 %
11.11.2018 04:40 8,2 C 10,0 C 8,3 C 92 % 1012,1 hPa 0,0 l/m 4,9 km/h (1 Bft) O-SO 111 0 min 0,000 mm 0,0 UV-I 0 W/m 7,0 C 8,2 C 6,4 km/h (2 Bft) 100,00 %
11.11.2018 04:42 8,2 C 10,0 C 8,3 C 92 % 1012,1 hPa 0,0 l/m 7,2 km/h (2 Bft) SO 138 0 min 0,000 mm 0,0 UV-I 0 W/m 7,0 C 7,6 C 11,3 km/h (2 Bft) 100,00 %
11.11.2018 04:44 8,1 C 10,0 C 8,3 C 92 % 1012,0 hPa 0,0 l/m 7,8 km/h (2 Bft) O 85 0 min 0,000 mm 0,0 UV-I 0 W/m 6,9 C 7,0 C 12,9 km/h (3 Bft) 100,00 %
11.11.2018 04:46 8,1 C 10,0 C 8,3 C 92 % 1012,1 hPa 0,0 l/m 7,0 km/h (2 Bft) O-NO 66 0 min 0,000 mm 0,0 UV-I 0 W/m 6,9 C 7,6 C 9,7 km/h (2 Bft) 100,00 %
11.11.2018 04:48 8,1 C 10,0 C 8,3 C 92 % 1012,1 hPa 0,0 l/m 5,7 km/h (1 Bft) O-SO 118 0 min 0,000 mm 0,0 UV-I 0 W/m 6,9 C 8,1 C 11,3 km/h (2 Bft) 100,00 %
11.11.2018 04:50 8,1 C 10,0 C 8,3 C 92 % 1012,2 hPa 0,0 l/m 3,8 km/h (1 Bft) S-SO 162 0 min 0,000 mm 0,0 UV-I 0 W/m 6,9 C 8,1 C 8,0 km/h (2 Bft) 98,00 %
11.11.2018 04:52 8,1 C 10,0 C 8,3 C 92 % 1012,2 hPa 0,0 l/m 4,0 km/h (1 Bft) S 174 0 min 0,000 mm 0,0 UV-I 0 W/m 6,9 C 8,1 C 4,8 km/h (1 Bft) 97,96 %
11.11.2018 04:54 8,1 C 10,0 C 8,3 C 92 % 1012,2 hPa 0,0 l/m 4,2 km/h (1 Bft) SO 140 0 min 0,000 mm 0,0 UV-I 0 W/m 6,9 C 8,1 C 8,0 km/h (2 Bft) 100,00 %
11.11.2018 04:56 8,1 C 10,0 C 8,3 C 92 % 1012,3 hPa 0,0 l/m 2,6 km/h (1 Bft) SO 140 0 min 0,000 mm 0,0 UV-I 0 W/m 6,9 C 8,1 C 4,8 km/h (1 Bft) 100,00 %
11.11.2018 04:58 8,1 C 10,0 C 8,3 C 92 % 1012,2 hPa 0,0 l/m 2,8 km/h (1 Bft) SO 140 0 min 0,000 mm 0,0 UV-I 0 W/m 6,9 C 8,1 C 4,8 km/h (1 Bft) 100,00 %
11.11.2018 05:00 8,1 C 10,0 C 8,3 C 92 % 1012,3 hPa 0,0 l/m 3,3 km/h (1 Bft) O-SO 120 0 min 0,000 mm 0,0 UV-I 0 W/m 6,9 C 8,1 C 4,8 km/h (1 Bft) 100,00 %
11.11.2018 05:02 8,1 C 10,0 C 8,3 C 92 % 1012,3 hPa 0,0 l/m 3,3 km/h (1 Bft) O-SO 120 0 min 0,000 mm 0,0 UV-I 0 W/m 6,9 C 8,1 C 4,8 km/h (1 Bft) 95,92 %
11.11.2018 05:04 8,1 C 10,0 C 8,3 C 92 % 1012,2 hPa 0,0 l/m 4,5 km/h (1 Bft) O-NO 65 0 min 0,000 mm 0,0 UV-I 0 W/m 6,9 C 8,1 C 6,4 km/h (2 Bft) 95,74 %
11.11.2018 05:06 8,1 C 10,0 C 8,3 C 92 % 1012,3 hPa 0,0 l/m 4,9 km/h (1 Bft) O-SO 104 0 min 0,000 mm 0,0 UV-I 0 W/m 6,9 C 8,1 C 6,4 km/h (2 Bft) 98,00 %
11.11.2018 05:08 8,1 C 10,0 C 8,3 C 92 % 1012,3 hPa 0,0 l/m 4,7 km/h (1 Bft) O 100 0 min 0,000 mm 0,0 UV-I 0 W/m 6,9 C 8,1 C 6,4 km/h (2 Bft) 97,87 %
11.11.2018 05:10 8,1 C 10,0 C 8,3 C 92 % 1012,4 hPa 0,0 l/m 4,3 km/h (1 Bft) O 96 0 min 0,000 mm 0,0 UV-I 0 W/m 6,9 C 8,1 C 6,4 km/h (2 Bft) 97,37 %
11.11.2018 05:12 8,1 C 10,0 C 8,3 C 92 % 1012,4 hPa 0,0 l/m 2,9 km/h (1 Bft) O-SO 106 0 min 0,000 mm 0,0 UV-I 0 W/m 6,9 C 8,1 C 4,8 km/h (1 Bft) 97,96 %
11.11.2018 05:14 8,1 C 10,0 C 8,3 C 92 % 1012,5 hPa 0,0 l/m 2,1 km/h (1 Bft) O-SO 106 0 min 0,000 mm 0,0 UV-I 0 W/m 6,9 C 8,1 C 3,2 km/h (1 Bft) 97,87 %
11.11.2018 05:16 8,1 C 10,0 C 8,3 C 92 % 1012,5 hPa 0,0 l/m 2,6 km/h (1 Bft) O-SO 105 0 min 0,000 mm 0,0 UV-I 0 W/m 6,9 C 8,1 C 4,8 km/h (1 Bft) 94,00 %
11.11.2018 05:18 8,1 C 10,0 C 8,3 C 92 % 1012,5 hPa 0,0 l/m 3,4 km/h (1 Bft) O-SO 105 0 min 0,000 mm 0,0 UV-I 0 W/m 6,9 C 8,1 C 6,4 km/h (2 Bft) 95,83 %
11.11.2018 05:20 8,1 C 10,0 C 8,3 C 92 % 1012,5 hPa 0,0 l/m 2,9 km/h (1 Bft) O 91 0 min 0,000 mm 0,0 UV-I 0 W/m 6,9 C 8,1 C 4,8 km/h (1 Bft) 94,00 %
11.11.2018 05:22 8,1 C 10,0 C 8,3 C 92 % 1012,5 hPa 0,0 l/m 4,8 km/h (1 Bft) NO 46 0 min 0,000 mm 0,0 UV-I 0 W/m 6,9 C 8,1 C 8,0 km/h (2 Bft) 95,74 %
11.11.2018 05:24 8,1 C 10,0 C 8,3 C 92 % 1012,5 hPa 0,0 l/m 6,0 km/h (2 Bft) O-NO 71 0 min 0,000 mm 0,0 UV-I 0 W/m 6,9 C 8,1 C 9,7 km/h (2 Bft) 91,49 %
11.11.2018 05:26 8,1 C 10,0 C 8,3 C 92 % 1012,5 hPa 0,0 l/m 4,8 km/h (1 Bft) O-SO 107 0 min 0,000 mm 0,0 UV-I 0 W/m 6,9 C 8,1 C 9,7 km/h (2 Bft) 93,62 %
11.11.2018 05:28 8,1 C 10,0 C 8,3 C 92 % 1012,5 hPa 0,0 l/m 5,6 km/h (1 Bft) O-NO 61 0 min 0,000 mm 0,0 UV-I 0 W/m 6,9 C 8,1 C 8,0 km/h (2 Bft) 95,74 %
11.11.2018 05:30 8,0 C 10,0 C 7,8 C 92 % 1012,5 hPa 0,0 l/m 2,9 km/h (1 Bft) O-NO 61 0 min 0,000 mm 0,0 UV-I 0 W/m 6,8 C 8,0 C 4,8 km/h (1 Bft) 93,62 %
11.11.2018 05:32 8,0 C 10,0 C 7,8 C 92 % 1012,5 hPa 0,0 l/m 3,0 km/h (1 Bft) O-NO 76 0 min 0,000 mm 0,0 UV-I 0 W/m 6,8 C 8,0 C 6,4 km/h (2 Bft) 91,49 %
11.11.2018 05:34 8,0 C 10,0 C 7,8 C 92 % 1012,5 hPa 0,0 l/m 5,6 km/h (1 Bft) O 97 0 min 0,000 mm 0,0 UV-I 0 W/m 6,8 C 8,0 C 9,7 km/h (2 Bft) 97,37 %
11.11.2018 05:36 8,0 C 10,0 C 7,8 C 92 % 1012,6 hPa 0,0 l/m 4,0 km/h (1 Bft) O 100 0 min 0,000 mm 0,0 UV-I 0 W/m 6,8 C 8,0 C 6,4 km/h (2 Bft) 98,08 %
11.11.2018 05:38 8,0 C 10,0 C 7,8 C 92 % 1012,7 hPa 0,0 l/m 3,5 km/h (1 Bft) O 100 0 min 0,000 mm 0,0 UV-I 0 W/m 6,8 C 8,0 C 4,8 km/h (1 Bft) 95,74 %
11.11.2018 05:40 8,0 C 10,0 C 7,8 C 92 % 1012,7 hPa 0,0 l/m 4,2 km/h (1 Bft) S-SO 153 0 min 0,000 mm 0,0 UV-I 0 W/m 6,8 C 8,0 C 6,4 km/h (2 Bft) 97,87 %
11.11.2018 05:42 8,0 C 10,0 C 7,8 C 92 % 1012,7 hPa 0,0 l/m 3,9 km/h (1 Bft) SO 143 0 min 0,000 mm 0,0 UV-I 0 W/m 6,8 C 8,0 C 8,0 km/h (2 Bft) 98,00 %
11.11.2018 05:44 8,0 C 10,0 C 7,8 C 92 % 1012,7 hPa 0,0 l/m 4,8 km/h (1 Bft) S-SO 157 0 min 0,000 mm 0,0 UV-I 0 W/m 6,8 C 8,0 C 9,7 km/h (2 Bft) 97,14 %
11.11.2018 05:46 8,0 C 10,0 C 7,8 C 92 % 1012,8 hPa 0,0 l/m 1,8 km/h (1 Bft) S-SO 157 0 min 0,000 mm 0,0 UV-I 0 W/m 6,8 C 8,0 C 4,8 km/h (1 Bft) 95,92 %
11.11.2018 05:48 8,0 C 10,0 C 7,8 C 92 % 1012,9 hPa 0,0 l/m 2,9 km/h (1 Bft) S-SO 158 0 min 0,000 mm 0,0 UV-I 0 W/m 6,8 C 8,0 C 4,8 km/h (1 Bft) 100,00 %
11.11.2018 05:50 8,0 C 10,0 C 8,3 C 92 % 1013,0 hPa 0,0 l/m 3,3 km/h (1 Bft) S-SW 194 0 min 0,000 mm 0,0 UV-I 0 W/m 6,8 C 8,0 C 4,8 km/h (1 Bft) 100,00 %
11.11.2018 05:52 8,0 C 10,0 C 7,8 C 92 % 1013,1 hPa 0,0 l/m 3,4 km/h (1 Bft) S-SW 192 0 min 0,000 mm 0,0 UV-I 0 W/m 6,8 C 8,0 C 4,8 km/h (1 Bft) 97,87 %
11.11.2018 05:54 8,0 C 10,0 C 7,8 C 92 % 1013,1 hPa 0,0 l/m 2,9 km/h (1 Bft) S-SW 192 0 min 0,000 mm 0,0 UV-I 0 W/m 6,8 C 8,0 C 4,8 km/h (1 Bft) 97,87 %
11.11.2018 05:56 8,0 C 10,0 C 8,3 C 92 % 1013,1 hPa 0,0 l/m 1,7 km/h (1 Bft) S-SW 192 0 min 0,000 mm 0,0 UV-I 0 W/m 6,8 C 8,0 C 3,2 km/h (1 Bft) 100,00 %
11.11.2018 05:58 8,0 C 10,0 C 8,3 C 92 % 1013,2 hPa 0,0 l/m 3,5 km/h (1 Bft) S-SW 192 0 min 0,000 mm 0,0 UV-I 0 W/m 6,8 C 8,0 C 4,8 km/h (1 Bft) 97,92 %
11.11.2018 06:00 8,0 C 10,0 C 7,8 C 92 % 1013,2 hPa 0,0 l/m 2,1 km/h (1 Bft) S-SW 192 0 min 0,000 mm 0,0 UV-I 0 W/m 6,8 C 8,0 C 3,2 km/h (1 Bft) 100,00 %
11.11.2018 06:02 8,0 C 10,0 C 7,8 C 92 % 1013,2 hPa 0,0 l/m 2,0 km/h (1 Bft) S-SW 192 0 min 0,000 mm 0,0 UV-I 0 W/m 6,8 C 8,0 C 3,2 km/h (1 Bft) 97,87 %
11.11.2018 06:04 8,0 C 10,0 C 7,8 C 92 % 1013,2 hPa 0,0 l/m 1,4 km/h (1 Bft) S-SW 192 0 min 0,000 mm 0,0 UV-I 0 W/m 6,8 C 8,0 C 3,2 km/h (1 Bft) 100,00 %
11.11.2018 06:06 8,0 C 10,0 C 8,3 C 92 % 1013,2 hPa 0,0 l/m 2,0 km/h (1 Bft) S-SW 192 0 min 0,000 mm 0,0 UV-I 0 W/m 6,8 C 8,0 C 3,2 km/h (1 Bft) 100,00 %
11.11.2018 06:08 8,0 C 10,0 C 7,8 C 92 % 1013,2 hPa 0,0 l/m 0,8 km/h (0 Bft) S-SW 192 0 min 0,000 mm 0,0 UV-I 0 W/m 6,8 C 8,0 C 1,6 km/h (1 Bft) 100,00 %
11.11.2018 06:10 8,0 C 10,0 C 7,8 C 92 % 1013,2 hPa 0,0 l/m 0,0 km/h (0 Bft) S-SW 192 0 min 0,000 mm 0,0 UV-I 0 W/m 6,8 C 8,0 C 0,0 km/h (0 Bft) 100,00 %
11.11.2018 06:12 8,0 C 10,0 C 7,8 C 92 % 1013,2 hPa 0,0 l/m 2,3 km/h (1 Bft) S-SW 192 0 min 0,000 mm 0,0 UV-I 0 W/m 6,8 C 8,0 C 3,2 km/h (1 Bft) 100,00 %
11.11.2018 06:14 8,0 C 10,0 C 7,8 C 92 % 1013,2 hPa 0,0 l/m 2,2 km/h (1 Bft) S-SW 192 0 min 0,000 mm 0,0 UV-I 0 W/m 6,8 C 8,0 C 3,2 km/h (1 Bft) 100,00 %
11.11.2018 06:16 8,0 C 10,0 C 7,8 C 92 % 1013,2 hPa 0,0 l/m 1,9 km/h (1 Bft) S-SW 192 0 min 0,000 mm 0,0 UV-I 0 W/m 6,8 C 8,0 C 3,2 km/h (1 Bft) 100,00 %
11.11.2018 06:18 8,0 C 10,0 C 7,8 C 92 % 1013,2 hPa 0,0 l/m 1,4 km/h (1 Bft) S-SW 192 0 min 0,000 mm 0,0 UV-I 0 W/m 6,8 C 8,0 C 3,2 km/h (1 Bft) 97,87 %
11.11.2018 06:20 8,0 C 10,0 C 7,8 C 92 % 1013,2 hPa 0,0 l/m 0,8 km/h (0 Bft) S-SW 192 0 min 0,000 mm 0,0 UV-I 0 W/m 6,8 C 8,0 C 1,6 km/h (1 Bft) 100,00 %
11.11.2018 06:22 8,0 C 10,0 C 7,8 C 92 % 1013,3 hPa 0,0 l/m 0,0 km/h (0 Bft) S-SW 192 0 min 0,000 mm 0,0 UV-I 0 W/m 6,8 C 8,0 C 0,0 km/h (0 Bft) 97,87 %
11.11.2018 06:24 8,0 C 10,0 C 7,8 C 92 % 1013,5 hPa 0,0 l/m 1,6 km/h (1 Bft) S-SW 192 0 min 0,000 mm 0,0 UV-I 0 W/m 6,8 C 8,0 C 3,2 km/h (1 Bft) 97,87 %
11.11.2018 06:26 8,0 C 10,0 C 7,8 C 92 % 1013,5 hPa 0,0 l/m 2,6 km/h (1 Bft) S-SW 192 0 min 0,000 mm 0,0 UV-I 0 W/m 6,8 C 8,0 C 3,2 km/h (1 Bft) 95,74 %
11.11.2018 06:28 8,0 C 10,0 C 7,8 C 92 % 1013,4 hPa 0,0 l/m 1,5 km/h (1 Bft) S-SW 192 0 min 0,000 mm 0,0 UV-I 0 W/m 6,8 C 8,0 C 3,2 km/h (1 Bft) 100,00 %
11.11.2018 06:30 8,0 C 10,0 C 7,8 C 92 % 1013,3 hPa 0,0 l/m 0,4 km/h (0 Bft) S-SW 192 0 min 0,000 mm 0,0 UV-I 0 W/m 6,8 C 8,0 C 1,6 km/h (1 Bft) 95,83 %
11.11.2018 06:32 8,0 C 10,0 C 7,8 C 92 % 1013,4 hPa 0,0 l/m 0,0 km/h (0 Bft) S-SW 192 0 min 0,000 mm 0,0 UV-I 0 W/m 6,8 C 8,0 C 0,0 km/h (0 Bft) 96,00 %
11.11.2018 06:34 8,0 C 10,0 C 7,8 C 92 % 1013,6 hPa 0,0 l/m 0,6 km/h (0 Bft) S-SW 192 0 min 0,000 mm 0,0 UV-I 0 W/m 6,8 C 8,0 C 3,2 km/h (1 Bft) 97,87 %
11.11.2018 06:36 8,0 C 10,0 C 8,3 C 92 % 1013,6 hPa 0,0 l/m 2,0 km/h (1 Bft) S-SW 192 0 min 0,000 mm 0,0 UV-I 0 W/m 6,8 C 8,0 C 3,2 km/h (1 Bft) 95,74 %
11.11.2018 06:38 8,0 C 10,0 C 8,3 C 92 % 1013,6 hPa 0,0 l/m 0,4 km/h (0 Bft) S-SW 192 0 min 0,000 mm 0,0 UV-I 0 W/m 6,8 C 8,0 C 1,6 km/h (1 Bft) 89,36 %
11.11.2018 06:40 8,0 C 10,0 C 8,3 C 92 % 1013,5 hPa 0,0 l/m 0,3 km/h (0 Bft) S-SW 192 0 min 0,000 mm 0,0 UV-I 0 W/m 6,8 C 8,0 C 1,6 km/h (1 Bft) 97,56 %
11.11.2018 06:42 8,0 C 10,0 C 8,3 C 92 % 1013,6 hPa 0,0 l/m 1,4 km/h (1 Bft) S-SW 192 0 min 0,000 mm 0,0 UV-I 0 W/m 6,8 C 8,0 C 3,2 km/h (1 Bft) 93,62 %
11.11.2018 06:44 8,0 C 10,0 C 8,3 C 92 % 1013,6 hPa 0,0 l/m 1,5 km/h (1 Bft) S-SW 192 0 min 0,000 mm 0,0 UV-I 0 W/m 6,8 C 8,0 C 3,2 km/h (1 Bft) 95,74 %
11.11.2018 06:46 8,0 C 10,0 C 8,3 C 92 % 1013,6 hPa 0,0 l/m 2,0 km/h (1 Bft) S-SW 192 0 min 0,000 mm 0,0 UV-I 0 W/m 6,8 C 8,0 C 3,2 km/h (1 Bft) 91,49 %
11.11.2018 06:48 8,0 C 10,0 C 8,3 C 92 % 1013,6 hPa 0,0 l/m 1,6 km/h (1 Bft) S-SW 192 0 min 0,000 mm 0,0 UV-I 0 W/m 6,8 C 8,0 C 3,2 km/h (1 Bft) 95,74 %
11.11.2018 06:50 8,0 C 10,0 C 8,3 C 92 % 1013,7 hPa 0,0 l/m 0,5 km/h (0 Bft) S-SW 192 0 min 0,000 mm 0,0 UV-I 0 W/m 6,8 C 8,0 C 3,2 km/h (1 Bft) 96,00 %
11.11.2018 06:52 8,0 C 10,0 C 8,3 C 92 % 1013,6 hPa 0,0 l/m 2,1 km/h (1 Bft) S-SW 192 0 min 0,000 mm 0,0 UV-I 0 W/m 6,8 C 8,0 C 3,2 km/h (1 Bft) 92,00 %
11.11.2018 06:54 8,0 C 10,0 C 8,3 C 92 % 1013,6 hPa 0,0 l/m 0,5 km/h (0 Bft) S-SW 192 0 min 0,000 mm 0,0 UV-I 0 W/m 6,8 C 8,0 C 1,6 km/h (1 Bft) 95,74 %
11.11.2018 06:56 8,0 C 10,0 C 8,3 C 92 % 1013,5 hPa 0,0 l/m 2,1 km/h (1 Bft) S 187 0 min 0,000 mm 0,0 UV-I 5 W/m 6,8 C 8,0 C 3,2 km/h (1 Bft) 95,74 %
11.11.2018 06:58 8,0 C 10,0 C 7,8 C 92 % 1013,6 hPa 0,0 l/m 2,3 km/h (1 Bft) S 187 0 min 0,000 mm 0,0 UV-I 5 W/m 6,8 C 8,0 C 3,2 km/h (1 Bft) 94,74 %
11.11.2018 07:00 8,0 C 10,0 C 7,8 C 92 % 1013,6 hPa 0,0 l/m 1,9 km/h (1 Bft) S 186 0 min 0,000 mm 0,0 UV-I 5 W/m 6,8 C 8,0 C 3,2 km/h (1 Bft) 95,74 %
11.11.2018 07:02 7,9 C 10,0 C 7,8 C 92 % 1013,5 hPa 0,0 l/m 2,4 km/h (1 Bft) S 186 0 min 0,000 mm 0,0 UV-I 5 W/m 6,7 C 7,9 C 3,2 km/h (1 Bft) 92,00 %
11.11.2018 07:04 7,9 C 10,0 C 7,8 C 92 % 1013,5 hPa 0,0 l/m 2,0 km/h (1 Bft) S 186 0 min 0,000 mm 0,0 UV-I 5 W/m 6,7 C 7,9 C 3,2 km/h (1 Bft) 93,62 %
11.11.2018 07:06 7,9 C 10,0 C 7,8 C 92 % 1013,6 hPa 0,0 l/m 1,3 km/h (1 Bft) S 186 0 min 0,000 mm 0,0 UV-I 5 W/m 6,7 C 7,9 C 1,6 km/h (1 Bft) 93,62 %
11.11.2018 07:08 7,9 C 10,0 C 7,8 C 92 % 1013,7 hPa 0,0 l/m 1,3 km/h (1 Bft) S 186 0 min 0,000 mm 0,0 UV-I 5 W/m 6,7 C 7,9 C 3,2 km/h (1 Bft) 94,00 %
11.11.2018 07:10 7,9 C 10,0 C 7,8 C 92 % 1013,8 hPa 0,0 l/m 3,1 km/h (1 Bft) S 187 0 min 0,000 mm 0,0 UV-I 5 W/m 6,7 C 7,9 C 4,8 km/h (1 Bft) 92,11 %
11.11.2018 07:12 7,9 C 10,0 C 7,8 C 92 % 1013,8 hPa 0,0 l/m 2,9 km/h (1 Bft) S-SW 205 0 min 0,000 mm 0,0 UV-I 5 W/m 6,7 C 7,9 C 4,8 km/h (1 Bft) 92,00 %
11.11.2018 07:15 7,9 C 10,0 C 7,8 C 92 % 1013,8 hPa 0,0 l/m 2,7 km/h (1 Bft) SW 232 0 min 0,000 mm 0,0 UV-I 7 W/m 6,7 C 7,9 C 4,8 km/h (1 Bft) 94,29 %
11.11.2018 07:16 7,9 C 10,0 C 7,8 C 92 % 1013,9 hPa 0,0 l/m 1,8 km/h (1 Bft) SW 232 0 min 0,000 mm 0,0 UV-I 7 W/m 6,7 C 7,9 C 3,2 km/h (1 Bft) 96,30 %
11.11.2018 07:18 7,9 C 10,0 C 8,3 C 92 % 1013,8 hPa 0,0 l/m 0,1 km/h (0 Bft) SW 232 0 min 0,000 mm 0,0 UV-I 7 W/m 6,7 C 7,9 C 1,6 km/h (1 Bft) 93,62 %
11.11.2018 07:20 8,0 C 10,0 C 8,3 C 92 % 1014,0 hPa 0,0 l/m 0,1 km/h (0 Bft) SW 232 0 min 0,000 mm 0,0 UV-I 7 W/m 6,8 C 8,0 C 1,6 km/h (1 Bft) 94,00 %
11.11.2018 07:22 8,0 C 10,0 C 8,3 C 92 % 1014,0 hPa 0,0 l/m 0,7 km/h (0 Bft) SW 232 0 min 0,000 mm 0,0 UV-I 7 W/m 6,8 C 8,0 C 3,2 km/h (1 Bft) 95,74 %
11.11.2018 07:25 8,0 C 10,0 C 8,3 C 92 % 1014,2 hPa 0,0 l/m 3,5 km/h (1 Bft) SW 219 0 min 0,000 mm 0,0 UV-I 8 W/m 6,8 C 8,0 C 6,4 km/h (2 Bft) 94,29 %
11.11.2018 07:26 8,0 C 10,0 C 8,3 C 92 % 1014,2 hPa 0,0 l/m 3,2 km/h (1 Bft) SW 219 0 min 0,000 mm 0,0 UV-I 8 W/m 6,8 C 8,0 C 4,8 km/h (1 Bft) 96,30 %
11.11.2018 07:28 8,0 C 10,0 C 8,3 C 92 % 1014,2 hPa 0,0 l/m 2,4 km/h (1 Bft) SW 219 0 min 0,000 mm 0,0 UV-I 9 W/m 6,8 C 8,0 C 3,2 km/h (1 Bft) 97,87 %
11.11.2018 07:30 7,9 C 10,0 C 8,3 C 91 % 1014,2 hPa 0,0 l/m 2,2 km/h (1 Bft) SW 219 0 min 0,000 mm 0,0 UV-I 11 W/m 6,5 C 7,9 C 3,2 km/h (1 Bft) 97,14 %
11.11.2018 07:32 7,9 C 10,0 C 8,3 C 91 % 1014,2 hPa 0,0 l/m 1,2 km/h (1 Bft) SW 219 0 min 0,000 mm 0,0 UV-I 11 W/m 6,5 C 7,9 C 3,2 km/h (1 Bft) 98,00 %
11.11.2018 07:34 7,9 C 10,0 C 8,3 C 92 % 1014,2 hPa 0,0 l/m 0,9 km/h (0 Bft) SW 219 0 min 0,000 mm 0,0 UV-I 11 W/m 6,7 C 7,9 C 1,6 km/h (1 Bft) 97,87 %
11.11.2018 07:36 7,9 C 10,0 C 8,3 C 92 % 1014,2 hPa 0,0 l/m 1,5 km/h (1 Bft) SW 219 0 min 0,000 mm 0,0 UV-I 11 W/m 6,7 C 7,9 C 3,2 km/h (1 Bft) 97,87 %
11.11.2018 07:38 7,9 C 10,0 C 8,3 C 92 % 1014,3 hPa 0,0 l/m 1,3 km/h (1 Bft) SW 219 0 min 0,000 mm 0,0 UV-I 12 W/m 6,7 C 7,9 C 3,2 km/h (1 Bft) 98,00 %
11.11.2018 07:40 8,0 C 10,0 C 8,3 C 92 % 1014,3 hPa 0,0 l/m 0,0 km/h (0 Bft) SW 219 0 min 0,000 mm 0,0 UV-I 12 W/m 6,8 C 8,0 C 0,0 km/h (0 Bft) 97,87 %
11.11.2018 07:42 8,0 C 10,0 C 8,3 C 92 % 1014,3 hPa 0,0 l/m 0,0 km/h (0 Bft) SW 219 0 min 0,000 mm 0,0 UV-I 13 W/m 6,8 C 8,0 C 0,0 km/h (0 Bft) 97,87 %
11.11.2018 07:44 8,0 C 10,0 C 8,3 C 92 % 1014,2 hPa 0,0 l/m 0,0 km/h (0 Bft) SW 219 0 min 0,000 mm 0,0 UV-I 11 W/m 6,8 C 8,0 C 0,0 km/h (0 Bft) 100,00 %
11.11.2018 07:46 8,0 C 10,0 C 8,3 C 92 % 1014,2 hPa 0,0 l/m 1,5 km/h (1 Bft) SW 219 0 min 0,000 mm 0,0 UV-I 9 W/m 6,8 C 8,0 C 3,2 km/h (1 Bft) 100,00 %
11.11.2018 07:48 8,0 C 10,0 C 8,3 C 92 % 1014,3 hPa 0,0 l/m 2,8 km/h (1 Bft) SW 220 0 min 0,000 mm 0,0 UV-I 9 W/m 6,8 C 8,0 C 4,8 km/h (1 Bft) 100,00 %
11.11.2018 07:50 8,0 C 10,0 C 8,3 C 92 % 1014,4 hPa 0,0 l/m 2,7 km/h (1 Bft) SW 220 0 min 0,000 mm 0,0 UV-I 11 W/m 6,8 C 8,0 C 3,2 km/h (1 Bft) 100,00 %
11.11.2018 07:52 8,0 C 10,0 C 8,3 C 92 % 1014,4 hPa 0,0 l/m 3,1 km/h (1 Bft) SW 221 0 min 0,000 mm 0,0 UV-I 16 W/m 6,8 C 8,0 C 4,8 km/h (1 Bft) 97,92 %
11.11.2018 07:54 8,0 C 10,0 C 8,3 C 92 % 1014,4 hPa 0,0 l/m 1,4 km/h (1 Bft) SW 226 0 min 0,000 mm 0,0 UV-I 16 W/m 6,8 C 8,0 C 3,2 km/h (1 Bft) 100,00 %
11.11.2018 07:56 8,0 C 10,0 C 8,3 C 92 % 1014,4 hPa 0,0 l/m 0,9 km/h (0 Bft) SW 226 0 min 0,000 mm 0,0 UV-I 16 W/m 6,8 C 8,0 C 3,2 km/h (1 Bft) 100,00 %
11.11.2018 07:58 8,0 C 10,0 C 8,3 C 92 % 1014,4 hPa 0,0 l/m 2,0 km/h (1 Bft) SW 225 0 min 0,000 mm 0,0 UV-I 15 W/m 6,8 C 8,0 C 4,8 km/h (1 Bft) 100,00 %
11.11.2018 08:00 7,9 C 10,0 C 8,3 C 92 % 1014,4 hPa 0,0 l/m 2,3 km/h (1 Bft) SW 227 0 min 0,000 mm 0,0 UV-I 18 W/m 6,7 C 7,9 C 4,8 km/h (1 Bft) 97,37 %
11.11.2018 08:02 7,9 C 10,0 C 8,3 C 92 % 1014,5 hPa 0,0 l/m 4,1 km/h (1 Bft) SW 218 0 min 0,000 mm 0,0 UV-I 19 W/m 6,7 C 7,9 C 8,0 km/h (2 Bft) 97,87 %
11.11.2018 08:04 7,9 C 10,0 C 8,3 C 92 % 1014,5 hPa 0,0 l/m 3,3 km/h (1 Bft) SW 225 0 min 0,000 mm 0,0 UV-I 19 W/m 6,7 C 7,9 C 4,8 km/h (1 Bft) 95,74 %
11.11.2018 08:06 7,9 C 10,0 C 8,3 C 92 % 1014,5 hPa 0,0 l/m 2,1 km/h (1 Bft) SW 225 0 min 0,000 mm 0,0 UV-I 22 W/m 6,7 C 7,9 C 3,2 km/h (1 Bft) 96,23 %
11.11.2018 08:08 8,0 C 10,0 C 8,3 C 92 % 1014,5 hPa 0,0 l/m 2,9 km/h (1 Bft) SW 225 0 min 0,000 mm 0,0 UV-I 23 W/m 6,8 C 8,0 C 4,8 km/h (1 Bft) 93,62 %
11.11.2018 08:10 8,0 C 10,0 C 8,3 C 92 % 1014,5 hPa 0,0 l/m 2,7 km/h (1 Bft) SW 224 0 min 0,000 mm 0,0 UV-I 23 W/m 6,8 C 8,0 C 4,8 km/h (1 Bft) 95,74 %
11.11.2018 08:12 7,9 C 10,0 C 8,3 C 92 % 1014,5 hPa 0,0 l/m 3,7 km/h (1 Bft) SW 223 0 min 0,000 mm 0,0 UV-I 25 W/m 6,7 C 7,9 C 4,8 km/h (1 Bft) 97,87 %
11.11.2018 08:14 8,0 C 10,0 C 8,3 C 92 % 1014,4 hPa 0,0 l/m 4,2 km/h (1 Bft) SW 219 0 min 0,000 mm 0,0 UV-I 27 W/m 6,8 C 8,0 C 6,4 km/h (2 Bft) 96,00 %
11.11.2018 08:16 8,0 C 10,0 C 8,9 C 92 % 1014,4 hPa 0,0 l/m 2,8 km/h (1 Bft) SW 220 0 min 0,000 mm 0,0 UV-I 29 W/m 6,8 C 8,0 C 4,8 km/h (1 Bft) 95,74 %
11.11.2018 08:18 7,9 C 10,0 C 8,9 C 92 % 1014,4 hPa 0,0 l/m 2,6 km/h (1 Bft) SW 219 0 min 0,000 mm 0,0 UV-I 27 W/m 6,7 C 7,9 C 4,8 km/h (1 Bft) 97,87 %
11.11.2018 08:20 7,9 C 10,0 C 8,9 C 92 % 1014,5 hPa 0,0 l/m 3,8 km/h (1 Bft) S 186 0 min 0,000 mm 0,0 UV-I 30 W/m 6,7 C 7,9 C 6,4 km/h (2 Bft) 97,87 %
11.11.2018 08:22 8,0 C 10,0 C 8,9 C 92 % 1014,5 hPa 0,0 l/m 3,2 km/h (1 Bft) S 184 0 min 0,000 mm 0,0 UV-I 32 W/m 6,8 C 8,0 C 4,8 km/h (1 Bft) 100,00 %
11.11.2018 08:24 8,0 C 10,0 C 8,9 C 92 % 1014,4 hPa 0,0 l/m 3,4 km/h (1 Bft) S-SW 202 0 min 0,000 mm 0,0 UV-I 34 W/m 6,8 C 8,0 C 4,8 km/h (1 Bft) 100,00 %
11.11.2018 08:26 7,9 C 10,0 C 8,9 C 92 % 1014,4 hPa 0,0 l/m 4,9 km/h (1 Bft) S-SW 205 0 min 0,000 mm 0,0 UV-I 35 W/m 6,7 C 7,9 C 8,0 km/h (2 Bft) 100,00 %
11.11.2018 08:28 8,0 C 10,0 C 8,9 C 92 % 1014,5 hPa 0,0 l/m 5,9 km/h (2 Bft) S 185 0 min 0,000 mm 0,0 UV-I 33 W/m 6,8 C 8,0 C 11,3 km/h (2 Bft) 100,00 %
11.11.2018 08:30 7,9 C 10,0 C 8,9 C 92 % 1014,6 hPa 0,0 l/m 5,3 km/h (1 Bft) S-SW 209 0 min 0,000 mm 0,0 UV-I 29 W/m 6,7 C 7,9 C 9,7 km/h (2 Bft) 97,87 %
11.11.2018 08:32 7,9 C 10,0 C 8,3 C 92 % 1014,5 hPa 0,0 l/m 5,9 km/h (2 Bft) S-SW 209 0 min 0,000 mm 0,0 UV-I 31 W/m 6,7 C 7,9 C 9,7 km/h (2 Bft) 100,00 %
11.11.2018 08:34 7,9 C 10,0 C 8,9 C 92 % 1014,5 hPa 0,0 l/m 3,6 km/h (1 Bft) S-SW 204 0 min 0,000 mm 0,0 UV-I 39 W/m 6,7 C 7,9 C 8,0 km/h (2 Bft) 95,74 %
11.11.2018 08:36 7,9 C 10,0 C 8,9 C 92 % 1014,6 hPa 0,0 l/m 5,3 km/h (1 Bft) W-SW 249 0 min 0,000 mm 0,0 UV-I 39 W/m 6,7 C 7,9 C 8,0 km/h (2 Bft) 100,00 %
11.11.2018 08:38 7,9 C 10,0 C 8,9 C 92 % 1014,6 hPa 0,0 l/m 5,8 km/h (2 Bft) SW 219 0 min 0,000 mm 0,0 UV-I 39 W/m 6,7 C 7,9 C 8,0 km/h (2 Bft) 97,14 %
11.11.2018 08:40 7,9 C 10,0 C 8,9 C 92 % 1014,7 hPa 0,0 l/m 6,5 km/h (2 Bft) S-SW 207 0 min 0,000 mm 0,0 UV-I 42 W/m 6,7 C 7,8 C 9,7 km/h (2 Bft) 98,00 %
11.11.2018 08:42 7,9 C 10,0 C 8,9 C 92 % 1014,7 hPa 0,0 l/m 4,9 km/h (1 Bft) S-SW 210 0 min 0,000 mm 0,0 UV-I 45 W/m 6,7 C 7,9 C 6,4 km/h (2 Bft) 97,87 %
11.11.2018 08:44 7,9 C 10,0 C 8,9 C 91 % 1014,9 hPa 0,0 l/m 4,7 km/h (1 Bft) S-SW 207 0 min 0,000 mm 0,0 UV-I 44 W/m 6,5 C 7,9 C 8,0 km/h (2 Bft) 100,00 %
11.11.2018 08:46 7,8 C 10,0 C 8,9 C 91 % 1014,9 hPa 0,0 l/m 3,2 km/h (1 Bft) S-SW 207 0 min 0,000 mm 0,0 UV-I 40 W/m 6,4 C 7,8 C 4,8 km/h (1 Bft) 97,87 %
11.11.2018 08:48 7,8 C 10,0 C 8,9 C 91 % 1014,9 hPa 0,0 l/m 2,1 km/h (1 Bft) W-SW 255 0 min 0,000 mm 0,0 UV-I 40 W/m 6,4 C 7,8 C 4,8 km/h (1 Bft) 100,00 %
11.11.2018 08:50 7,8 C 10,0 C 8,9 C 91 % 1014,9 hPa 0,0 l/m 5,2 km/h (1 Bft) W-SW 238 0 min 0,000 mm 0,0 UV-I 42 W/m 6,4 C 7,8 C 8,0 km/h (2 Bft) 100,00 %
11.11.2018 08:52 7,8 C 10,0 C 8,9 C 92 % 1014,9 hPa 0,0 l/m 3,3 km/h (1 Bft) SW 230 0 min 0,000 mm 0,0 UV-I 45 W/m 6,6 C 7,8 C 6,4 km/h (2 Bft) 97,87 %
11.11.2018 08:54 7,9 C 10,0 C 8,9 C 92 % 1014,9 hPa 0,0 l/m 5,5 km/h (1 Bft) W-SW 242 0 min 0,000 mm 0,0 UV-I 46 W/m 6,7 C 7,9 C 8,0 km/h (2 Bft) 100,00 %
11.11.2018 08:56 7,8 C 10,0 C 8,9 C 91 % 1014,9 hPa 0,0 l/m 4,7 km/h (1 Bft) W-SW 253 0 min 0,000 mm 0,0 UV-I 44 W/m 6,4 C 7,8 C 9,7 km/h (2 Bft) 97,87 %
11.11.2018 08:58 7,8 C 10,0 C 8,9 C 91 % 1014,9 hPa 0,0 l/m 2,8 km/h (1 Bft) W-SW 253 0 min 0,000 mm 0,0 UV-I 46 W/m 6,4 C 7,8 C 4,8 km/h (1 Bft) 97,87 %
11.11.2018 09:00 7,8 C 10,0 C 8,9 C 91 % 1014,9 hPa 0,0 l/m 2,5 km/h (1 Bft) W-SW 240 0 min 0,025 mm 0,0 UV-I 44 W/m 6,4 C 7,8 C 6,4 km/h (2 Bft) 97,87 %
11.11.2018 09:02 7,8 C 10,0 C 8,9 C 91 % 1014,9 hPa 0,0 l/m 2,1 km/h (1 Bft) W-SW 240 0 min 0,000 mm 0,0 UV-I 46 W/m 6,4 C 7,8 C 3,2 km/h (1 Bft) 95,83 %
11.11.2018 09:04 7,8 C 10,0 C 8,9 C 92 % 1015,0 hPa 0,0 l/m 1,5 km/h (1 Bft) W-SW 239 0 min 0,000 mm 0,0 UV-I 47 W/m 6,6 C 7,8 C 3,2 km/h (1 Bft) 100,00 %
11.11.2018 09:06 7,8 C 10,0 C 8,9 C 92 % 1015,2 hPa 0,0 l/m 4,6 km/h (1 Bft) S-SW 211 0 min 0,000 mm 0,0 UV-I 49 W/m 6,6 C 7,8 C 6,4 km/h (2 Bft) 97,87 %
11.11.2018 09:08 7,8 C 10,0 C 8,9 C 92 % 1015,2 hPa 0,0 l/m 4,3 km/h (1 Bft) S-SW 211 0 min 0,000 mm 0,0 UV-I 53 W/m 6,6 C 7,8 C 4,8 km/h (1 Bft) 95,74 %
11.11.2018 09:10 7,8 C 10,0 C 8,9 C 92 % 1015,2 hPa 0,0 l/m 3,6 km/h (1 Bft) SW 227 0 min 0,000 mm 0,0 UV-I 56 W/m 6,6 C 7,8 C 6,4 km/h (2 Bft) 98,00 %
11.11.2018 09:12 7,9 C 10,0 C 9,4 C 92 % 1015,2 hPa 0,0 l/m 3,3 km/h (1 Bft) W-SW 239 0 min 0,000 mm 0,0 UV-I 58 W/m 6,7 C 7,9 C 8,0 km/h (2 Bft) 97,87 %
11.11.2018 09:14 7,9 C 10,0 C 8,9 C 92 % 1015,3 hPa 0,0 l/m 4,2 km/h (1 Bft) W-SW 247 0 min 0,000 mm 0,0 UV-I 55 W/m 6,7 C 7,9 C 6,4 km/h (2 Bft) 95,74 %
11.11.2018 09:16 7,9 C 10,0 C 8,9 C 92 % 1015,4 hPa 0,0 l/m 2,5 km/h (1 Bft) W 261 0 min 0,000 mm 0,0 UV-I 51 W/m 6,7 C 7,9 C 6,4 km/h (2 Bft) 97,87 %
11.11.2018 09:18 8,0 C 10,0 C 9,4 C 92 % 1015,4 hPa 0,0 l/m 3,8 km/h (1 Bft) W 277 0 min 0,000 mm 0,0 UV-I 53 W/m 6,8 C 8,0 C 6,4 km/h (2 Bft) 95,74 %
11.11.2018 09:20 8,0 C 10,0 C 9,4 C 92 % 1015,3 hPa 0,0 l/m 4,2 km/h (1 Bft) W 274 0 min 0,000 mm 0,0 UV-I 58 W/m 6,8 C 8,0 C 6,4 km/h (2 Bft) 95,74 %
11.11.2018 09:22 8,0 C 10,0 C 9,4 C 92 % 1015,3 hPa 0,0 l/m 3,8 km/h (1 Bft) W 276 0 min 0,000 mm 0,0 UV-I 62 W/m 6,8 C 8,0 C 4,8 km/h (1 Bft) 91,49 %
11.11.2018 09:24 7,9 C 10,0 C 9,4 C 91 % 1015,4 hPa 0,0 l/m 2,1 km/h (1 Bft) W 276 0 min 0,000 mm 0,0 UV-I 65 W/m 6,5 C 7,9 C 3,2 km/h (1 Bft) 97,37 %
11.11.2018 09:26 7,9 C 10,0 C 9,4 C 91 % 1015,3 hPa 0,0 l/m 4,1 km/h (1 Bft) W 274 0 min 0,000 mm 0,0 UV-I 65 W/m 6,5 C 7,9 C 6,4 km/h (2 Bft) 95,74 %
11.11.2018 09:28 7,9 C 10,0 C 9,4 C 91 % 1015,3 hPa 0,0 l/m 1,6 km/h (1 Bft) W 274 0 min 0,000 mm 0,0 UV-I 67 W/m 6,5 C 7,9 C 3,2 km/h (1 Bft) 89,36 %
11.11.2018 09:30 7,9 C 10,0 C 9,4 C 91 % 1015,3 hPa 0,0 l/m 1,9 km/h (1 Bft) W 274 0 min 0,000 mm 0,0 UV-I 67 W/m 6,5 C 7,9 C 3,2 km/h (1 Bft) 95,74 %
11.11.2018 09:32 7,9 C 10,0 C 9,4 C 92 % 1015,4 hPa 0,0 l/m 1,0 km/h (0 Bft) W 274 0 min 0,000 mm 0,0 UV-I 65 W/m 6,7 C 7,9 C 3,2 km/h (1 Bft) 93,62 %
11.11.2018 09:34 7,9 C 10,0 C 9,4 C 91 % 1015,4 hPa 0,0 l/m 0,4 km/h (0 Bft) W 274 0 min 0,000 mm 0,0 UV-I 63 W/m 6,5 C 7,9 C 1,6 km/h (1 Bft) 95,74 %
11.11.2018 09:36 7,9 C 10,0 C 9,4 C 91 % 1015,3 hPa 0,0 l/m 2,6 km/h (1 Bft) S 180 0 min 0,000 mm 0,0 UV-I 65 W/m 6,5 C 7,9 C 3,2 km/h (1 Bft) 93,62 %
11.11.2018 09:38 7,8 C 10,0 C 9,4 C 91 % 1015,3 hPa 0,0 l/m 1,9 km/h (1 Bft) S 180 0 min 0,000 mm 0,0 UV-I 67 W/m 6,4 C 7,8 C 3,2 km/h (1 Bft) 92,00 %
11.11.2018 09:40 7,8 C 10,0 C 9,4 C 91 % 1015,2 hPa 0,0 l/m 2,8 km/h (1 Bft) S 180 0 min 0,000 mm 0,0 UV-I 68 W/m 6,4 C 7,8 C 4,8 km/h (1 Bft) 95,74 %
11.11.2018 09:42 7,9 C 10,0 C 10,0 C 92 % 1015,3 hPa 0,0 l/m 2,5 km/h (1 Bft) S 180 0 min 0,000 mm 0,0 UV-I 76 W/m 6,7 C 7,9 C 4,8 km/h (1 Bft) 97,87 %
11.11.2018 09:44 7,9 C 10,0 C 10,0 C 92 % 1015,2 hPa 0,0 l/m 1,1 km/h (1 Bft) S 180 0 min 0,000 mm 0,0 UV-I 84 W/m 6,7 C 7,9 C 3,2 km/h (1 Bft) 98,00 %
11.11.2018 09:46 7,9 C 10,0 C 10,0 C 92 % 1015,2 hPa 0,0 l/m 1,7 km/h (1 Bft) S-SW 194 0 min 0,000 mm 0,0 UV-I 81 W/m 6,7 C 7,9 C 3,2 km/h (1 Bft) 97,92 %
11.11.2018 09:48 8,0 C 10,0 C 10,0 C 92 % 1015,2 hPa 0,0 l/m 3,8 km/h (1 Bft) S-SW 211 0 min 0,000 mm 0,0 UV-I 83 W/m 6,8 C 8,0 C 6,4 km/h (2 Bft) 100,00 %
11.11.2018 09:50 8,1 C 10,0 C 10,0 C 92 % 1015,3 hPa 0,0 l/m 3,3 km/h (1 Bft) SW 219 0 min 0,000 mm 0,0 UV-I 84 W/m 6,9 C 8,1 C 4,8 km/h (1 Bft) 98,00 %
11.11.2018 09:52 8,1 C 10,0 C 10,0 C 91 % 1015,2 hPa 0,0 l/m 3,1 km/h (1 Bft) S 178 0 min 0,000 mm 0,0 UV-I 83 W/m 6,7 C 8,1 C 6,4 km/h (2 Bft) 100,00 %
11.11.2018 09:54 8,1 C 10,0 C 10,0 C 91 % 1015,2 hPa 0,0 l/m 4,0 km/h (1 Bft) S-SO 163 0 min 0,000 mm 0,0 UV-I 84 W/m 6,7 C 8,1 C 6,4 km/h (2 Bft) 100,00 %
11.11.2018 09:56 8,0 C 10,0 C 10,0 C 91 % 1015,3 hPa 0,0 l/m 4,7 km/h (1 Bft) SW 217 0 min 0,000 mm 0,0 UV-I 87 W/m 6,6 C 8,0 C 6,4 km/h (2 Bft) 100,00 %
11.11.2018 09:58 8,0 C 10,0 C 10,0 C 91 % 1015,4 hPa 0,0 l/m 4,3 km/h (1 Bft) S-SW 207 0 min 0,000 mm 0,0 UV-I 83 W/m 6,6 C 8,0 C 9,7 km/h (2 Bft) 100,00 %
11.11.2018 10:00 7,9 C 10,0 C 10,0 C 91 % 1015,5 hPa 0,0 l/m 5,6 km/h (1 Bft) SW 221 0 min 0,026 mm 0,0 UV-I 80 W/m 6,5 C 7,9 C 9,7 km/h (2 Bft) 100,00 %
11.11.2018 10:02 7,9 C 10,0 C 10,0 C 91 % 1015,6 hPa 0,0 l/m 5,0 km/h (1 Bft) S 177 0 min 0,000 mm 0,0 UV-I 82 W/m 6,5 C 7,9 C 9,7 km/h (2 Bft) 100,00 %
11.11.2018 10:04 7,9 C 10,0 C 10,0 C 91 % 1015,6 hPa 0,0 l/m 3,6 km/h (1 Bft) S 178 0 min 0,000 mm 0,0 UV-I 87 W/m 6,5 C 7,9 C 6,4 km/h (2 Bft) 100,00 %
11.11.2018 10:06 7,9 C 10,0 C 10,0 C 91 % 1015,6 hPa 0,0 l/m 2,5 km/h (1 Bft) S 179 0 min 0,000 mm 0,0 UV-I 85 W/m 6,5 C 7,9 C 4,8 km/h (1 Bft) 100,00 %
11.11.2018 10:08 7,9 C 10,0 C 10,0 C 91 % 1015,7 hPa 0,0 l/m 4,2 km/h (1 Bft) S-SW 211 0 min 0,000 mm 0,0 UV-I 86 W/m 6,5 C 7,9 C 6,4 km/h (2 Bft) 100,00 %
11.11.2018 10:10 8,0 C 10,0 C 10,0 C 92 % 1015,7 hPa 0,0 l/m 4,4 km/h (1 Bft) S-SO 150 0 min 0,000 mm 0,0 UV-I 84 W/m 6,8 C 8,0 C 9,7 km/h (2 Bft) 97,37 %
11.11.2018 10:12 7,9 C 10,0 C 10,0 C 91 % 1015,8 hPa 0,0 l/m 3,0 km/h (1 Bft) SO 140 0 min 0,000 mm 0,0 UV-I 86 W/m 6,5 C 7,9 C 6,4 km/h (2 Bft) 100,00 %
11.11.2018 10:14 7,9 C 10,0 C 10,0 C 91 % 1015,9 hPa 0,0 l/m 0,3 km/h (0 Bft) SO 140 0 min 0,000 mm 0,0 UV-I 87 W/m 6,5 C 7,9 C 1,6 km/h (1 Bft) 100,00 %
11.11.2018 10:16 7,9 C 10,0 C 10,0 C 91 % 1015,9 hPa 0,0 l/m 1,0 km/h (0 Bft) SO 140 0 min 0,000 mm 0,0 UV-I 80 W/m 6,5 C 7,9 C 1,6 km/h (1 Bft) 97,87 %
11.11.2018 10:18 7,9 C 10,0 C 10,0 C 91 % 1015,9 hPa 0,0 l/m 0,1 km/h (0 Bft) SO 140 0 min 0,000 mm 0,0 UV-I 79 W/m 6,5 C 7,9 C 1,6 km/h (1 Bft) 97,92 %
11.11.2018 10:20 7,9 C 10,0 C 10,6 C 91 % 1015,9 hPa 0,0 l/m 0,2 km/h (0 Bft) SO 140 0 min 0,000 mm 0,0 UV-I 82 W/m 6,5 C 7,9 C 1,6 km/h (1 Bft) 97,87 %
11.11.2018 10:22 7,9 C 10,0 C 10,6 C 91 % 1015,9 hPa 0,0 l/m 2,6 km/h (1 Bft) S-SW 202 0 min 0,000 mm 0,0 UV-I 86 W/m 6,5 C 7,9 C 6,4 km/h (2 Bft) 97,87 %
11.11.2018 10:24 8,0 C 10,0 C 10,6 C 91 % 1015,9 hPa 0,0 l/m 3,0 km/h (1 Bft) S-SW 203 0 min 0,000 mm 0,0 UV-I 91 W/m 6,6 C 8,0 C 6,4 km/h (2 Bft) 96,00 %
11.11.2018 10:26 7,9 C 10,0 C 10,6 C 91 % 1015,9 hPa 0,0 l/m 0,8 km/h (0 Bft) S-SW 209 0 min 0,000 mm 0,0 UV-I 100 W/m 6,5 C 7,9 C 4,8 km/h (1 Bft) 98,00 %
11.11.2018 10:29 8,2 C 10,0 C 10,6 C 91 % 1015,7 hPa 0,0 l/m 4,5 km/h (1 Bft) S-SO 151 0 min 0,000 mm 0,0 UV-I 109 W/m 6,8 C 8,2 C 8,0 km/h (2 Bft) 95,89 %
11.11.2018 10:30 8,2 C 10,0 C 10,6 C 91 % 1015,7 hPa 0,0 l/m 4,7 km/h (1 Bft) S-SO 151 0 min 0,000 mm 0,0 UV-I 114 W/m 6,8 C 8,2 C 6,4 km/h (2 Bft) 91,67 %
11.11.2018 10:32 8,2 C 10,0 C 11,1 C 91 % 1015,7 hPa 0,0 l/m 4,4 km/h (1 Bft) S-SO 151 0 min 0,000 mm 0,0 UV-I 113 W/m 6,8 C 8,2 C 6,4 km/h (2 Bft) 98,00 %
11.11.2018 10:34 8,2 C 10,0 C 11,1 C 91 % 1015,6 hPa 0,0 l/m 6,1 km/h (2 Bft) S-SO 155 0 min 0,000 mm 0,0 UV-I 113 W/m 6,8 C 8,2 C 8,0 km/h (2 Bft) 95,74 %
11.11.2018 10:36 8,2 C 10,0 C 11,1 C 91 % 1015,5 hPa 0,0 l/m 5,1 km/h (1 Bft) O-SO 111 0 min 0,000 mm 0,0 UV-I 121 W/m 6,8 C 8,2 C 8,0 km/h (2 Bft) 97,87 %
11.11.2018 10:38 8,2 C 10,0 C 11,1 C 91 % 1015,6 hPa 0,0 l/m 5,6 km/h (1 Bft) SO 138 0 min 0,000 mm 0,0 UV-I 126 W/m 6,8 C 8,2 C 8,0 km/h (2 Bft) 97,87 %
11.11.2018 10:40 8,2 C 10,0 C 11,1 C 91 % 1015,5 hPa 0,0 l/m 9,0 km/h (2 Bft) S-SO 157 0 min 0,000 mm 0,0 UV-I 132 W/m 6,8 C 6,3 C 14,5 km/h (3 Bft) 97,87 %
11.11.2018 10:42 8,2 C 10,0 C 11,1 C 91 % 1015,5 hPa 0,0 l/m 10,1 km/h (2 Bft) SO 136 0 min 0,000 mm 0,0 UV-I 146 W/m 6,8 C 5,5 C 14,5 km/h (3 Bft) 98,00 %
11.11.2018 10:44 8,2 C 10,0 C 11,1 C 91 % 1015,6 hPa 0,0 l/m 7,7 km/h (2 Bft) S 186 0 min 0,000 mm 0,0 UV-I 153 W/m 6,8 C 7,2 C 11,3 km/h (2 Bft) 94,74 %
11.11.2018 10:46 8,1 C 10,0 C 11,1 C 90 % 1015,6 hPa 0,0 l/m 8,0 km/h (2 Bft) S-SO 150 0 min 0,000 mm 0,0 UV-I 151 W/m 6,6 C 6,9 C 12,9 km/h (3 Bft) 95,74 %
11.11.2018 10:48 8,1 C 10,0 C 11,1 C 90 % 1015,7 hPa 0,0 l/m 7,1 km/h (2 Bft) S 173 0 min 0,000 mm 0,0 UV-I 136 W/m 6,6 C 7,6 C 9,7 km/h (2 Bft) 97,87 %
11.11.2018 10:50 8,0 C 10,0 C 11,1 C 90 % 1015,6 hPa 0,0 l/m 6,9 km/h (2 Bft) S 175 0 min 0,000 mm 0,0 UV-I 132 W/m 6,5 C 7,6 C 11,3 km/h (2 Bft) 89,36 %
11.11.2018 10:52 8,0 C 10,0 C 11,1 C 91 % 1015,6 hPa 0,0 l/m 8,2 km/h (2 Bft) S-SO 167 0 min 0,000 mm 0,3 UV-I 151 W/m 6,6 C 6,6 C 11,3 km/h (2 Bft) 93,62 %
11.11.2018 10:54 8,0 C 10,0 C 11,1 C 91 % 1015,6 hPa 0,0 l/m 7,3 km/h (2 Bft) S 179 0 min 0,000 mm 0,5 UV-I 157 W/m 6,6 C 7,3 C 11,3 km/h (2 Bft) 91,49 %
11.11.2018 10:56 8,0 C 10,0 C 11,1 C 91 % 1015,6 hPa 0,0 l/m 8,1 km/h (2 Bft) S-SO 155 0 min 0,000 mm 0,5 UV-I 149 W/m 6,6 C 6,7 C 16,1 km/h (3 Bft) 95,83 %
11.11.2018 10:58 8,1 C 10,0 C 11,1 C 91 % 1015,6 hPa 0,0 l/m 5,5 km/h (1 Bft) S-SW 192 0 min 0,000 mm 0,5 UV-I 152 W/m 6,7 C 8,1 C 9,7 km/h (2 Bft) 94,00 %
11.11.2018 11:00 8,1 C 10,0 C 11,1 C 91 % 1015,6 hPa 0,0 l/m 5,6 km/h (1 Bft) O-SO 123 0 min 0,051 mm 0,5 UV-I 149 W/m 6,7 C 8,1 C 8,0 km/h (2 Bft) 93,62 %
11.11.2018 11:02 8,2 C 10,0 C 11,7 C 91 % 1015,6 hPa 0,0 l/m 5,6 km/h (1 Bft) SO 126 0 min 0,000 mm 0,5 UV-I 149 W/m 6,8 C 8,2 C 12,9 km/h (3 Bft) 95,74 %
11.11.2018 11:04 8,3 C 10,0 C 11,7 C 91 % 1015,6 hPa 0,0 l/m 9,6 km/h (2 Bft) S-SO 153 0 min 0,000 mm 0,5 UV-I 156 W/m 6,9 C 6,0 C 12,9 km/h (3 Bft) 95,74 %
11.11.2018 11:06 8,3 C 10,0 C 11,7 C 90 % 1015,6 hPa 0,0 l/m 4,3 km/h (1 Bft) S-SW 192 0 min 0,000 mm 0,5 UV-I 162 W/m 6,8 C 8,3 C 8,0 km/h (2 Bft) 96,00 %
11.11.2018 11:08 8,3 C 10,0 C 12,2 C 90 % 1015,7 hPa 0,0 l/m 1,3 km/h (1 Bft) S-SW 192 0 min 0,000 mm 0,5 UV-I 164 W/m 6,8 C 8,3 C 4,8 km/h (1 Bft) 95,74 %
11.11.2018 11:10 8,4 C 10,0 C 12,2 C 90 % 1015,8 hPa 0,0 l/m 2,6 km/h (1 Bft) SO 130 0 min 0,000 mm 0,5 UV-I 164 W/m 6,9 C 8,4 C 4,8 km/h (1 Bft) 97,87 %
11.11.2018 11:12 8,4 C 10,0 C 12,2 C 90 % 1015,8 hPa 0,0 l/m 7,8 km/h (2 Bft) O-SO 117 0 min 0,000 mm 0,5 UV-I 181 W/m 6,9 C 7,3 C 12,9 km/h (3 Bft) 94,74 %
11.11.2018 11:14 8,4 C 10,0 C 12,2 C 90 % 1015,8 hPa 0,0 l/m 5,2 km/h (1 Bft) O-SO 123 0 min 0,000 mm 0,5 UV-I 167 W/m 6,9 C 8,4 C 9,7 km/h (2 Bft) 95,74 %
11.11.2018 11:16 8,4 C 10,0 C 12,2 C 89 % 1015,9 hPa 0,0 l/m 2,1 km/h (1 Bft) O-SO 123 0 min 0,000 mm 0,5 UV-I 141 W/m 6,7 C 8,4 C 4,8 km/h (1 Bft) 95,74 %
11.11.2018 11:18 8,3 C 10,0 C 12,8 C 90 % 1016,0 hPa 0,0 l/m 0,8 km/h (0 Bft) O-SO 123 0 min 0,000 mm 0,5 UV-I 162 W/m 6,8 C 8,3 C 3,2 km/h (1 Bft) 95,74 %
11.11.2018 11:20 8,3 C 10,0 C 12,8 C 90 % 1016,0 hPa 0,0 l/m 1,7 km/h (1 Bft) O-SO 123 0 min 0,000 mm 0,5 UV-I 172 W/m 6,8 C 8,3 C 3,2 km/h (1 Bft) 95,74 %
11.11.2018 11:22 8,4 C 10,0 C 12,8 C 90 % 1016,1 hPa 0,0 l/m 3,2 km/h (1 Bft) S-SO 155 0 min 0,000 mm 0,5 UV-I 160 W/m 6,9 C 8,4 C 4,8 km/h (1 Bft) 93,62 %
11.11.2018 11:24 8,4 C 10,0 C 12,8 C 90 % 1016,0 hPa 0,0 l/m 2,3 km/h (1 Bft) S-SO 158 0 min 0,000 mm 0,5 UV-I 173 W/m 6,9 C 8,4 C 4,8 km/h (1 Bft) 95,74 %
11.11.2018 11:26 8,3 C 10,0 C 12,8 C 90 % 1016,1 hPa 0,0 l/m 2,9 km/h (1 Bft) S-SO 158 0 min 0,000 mm 0,5 UV-I 181 W/m 6,8 C 8,3 C 4,8 km/h (1 Bft) 98,00 %
11.11.2018 11:28 8,3 C 10,0 C 12,8 C 90 % 1016,1 hPa 0,0 l/m 0,5 km/h (0 Bft) S-SO 158 0 min 0,000 mm 0,5 UV-I 178 W/m 6,8 C 8,3 C 1,6 km/h (1 Bft) 95,74 %
11.11.2018 11:30 8,4 C 10,0 C 12,8 C 90 % 1016,1 hPa 0,0 l/m 2,8 km/h (1 Bft) O-NO 66 0 min 0,000 mm 0,5 UV-I 174 W/m 6,9 C 8,4 C 4,8 km/h (1 Bft) 97,87 %
11.11.2018 11:32 8,6 C 10,0 C 12,8 C 91 % 1015,9 hPa 0,0 l/m 6,0 km/h (2 Bft) O-NO 66 0 min 0,000 mm 0,5 UV-I 166 W/m 7,2 C 8,6 C 9,7 km/h (2 Bft) 97,87 %
11.11.2018 11:34 8,7 C 10,0 C 12,8 C 90 % 1015,7 hPa 0,0 l/m 7,4 km/h (2 Bft) O-NO 69 0 min 0,000 mm 0,6 UV-I 194 W/m 7,2 C 7,9 C 9,7 km/h (2 Bft) 96,00 %
11.11.2018 11:36 8,7 C 10,0 C 12,8 C 90 % 1015,7 hPa 0,0 l/m 3,9 km/h (1 Bft) O 87 2 min 0,000 mm 0,7 UV-I 238 W/m 7,2 C 8,7 C 6,4 km/h (2 Bft) 97,44 %
11.11.2018 11:38 8,8 C 10,0 C 13,3 C 90 % 1015,8 hPa 0,0 l/m 5,6 km/h (1 Bft) O-NO 74 2 min 0,000 mm 0,7 UV-I 245 W/m 7,3 C 8,8 C 9,7 km/h (2 Bft) 95,74 %
11.11.2018 11:40 8,8 C 10,0 C 13,3 C 89 % 1015,9 hPa 0,0 l/m 3,8 km/h (1 Bft) O 85 2 min 0,000 mm 0,7 UV-I 243 W/m 7,1 C 8,8 C 6,4 km/h (2 Bft) 95,74 %
11.11.2018 11:42 8,8 C 10,0 C 13,3 C 89 % 1015,9 hPa 0,0 l/m 2,3 km/h (1 Bft) O 93 2 min 0,000 mm 0,7 UV-I 232 W/m 7,1 C 8,8 C 4,8 km/h (1 Bft) 95,74 %
11.11.2018 11:44 8,8 C 10,0 C 13,3 C 89 % 1015,9 hPa 0,0 l/m 2,6 km/h (1 Bft) O-NO 71 2 min 0,000 mm 0,7 UV-I 232 W/m 7,1 C 8,8 C 4,8 km/h (1 Bft) 95,74 %
11.11.2018 11:46 9,1 C 10,0 C 13,9 C 90 % 1015,9 hPa 0,0 l/m 6,7 km/h (2 Bft) SO 136 2 min 0,000 mm 0,9 UV-I 485 W/m 7,5 C 8,9 C 11,3 km/h (2 Bft) 100,00 %
11.11.2018 11:48 9,1 C 10,0 C 14,4 C 88 % 1015,9 hPa 0,0 l/m 4,8 km/h (1 Bft) O 92 2 min 0,000 mm 0,8 UV-I 322 W/m 7,2 C 9,1 C 8,0 km/h (2 Bft) 100,00 %
11.11.2018 11:50 9,1 C 10,0 C 14,4 C 88 % 1016,1 hPa 0,0 l/m 3,4 km/h (1 Bft) O 92 2 min 0,000 mm 0,7 UV-I 300 W/m 7,2 C 9,1 C 4,8 km/h (1 Bft) 97,87 %
11.11.2018 11:52 9,1 C 10,0 C 14,4 C 88 % 1016,0 hPa 0,0 l/m 1,8 km/h (1 Bft) O 92 2 min 0,000 mm 0,7 UV-I 260 W/m 7,2 C 9,1 C 4,8 km/h (1 Bft) 97,87 %
11.11.2018 11:54 9,1 C 10,0 C 13,9 C 88 % 1015,9 hPa 0,0 l/m 2,0 km/h (1 Bft) O-SO 106 2 min 0,000 mm 0,7 UV-I 231 W/m 7,2 C 9,1 C 4,8 km/h (1 Bft) 100,00 %
11.11.2018 11:56 9,2 C 10,0 C 13,9 C 88 % 1016,0 hPa 0,0 l/m 4,9 km/h (1 Bft) O 83 0 min 0,000 mm 0,7 UV-I 210 W/m 7,3 C 9,2 C 11,3 km/h (2 Bft) 97,87 %
11.11.2018 11:58 9,1 C 10,0 C 13,9 C 87 % 1015,9 hPa 0,0 l/m 4,0 km/h (1 Bft) O 87 0 min 0,000 mm 0,7 UV-I 206 W/m 7,1 C 9,1 C 6,4 km/h (2 Bft) 100,00 %
11.11.2018 12:00 9,0 C 10,0 C 13,9 C 88 % 1015,9 hPa 0,0 l/m 2,8 km/h (1 Bft) O 86 0 min 0,000 mm 0,7 UV-I 204 W/m 7,1 C 9,0 C 4,8 km/h (1 Bft) 100,00 %
11.11.2018 12:02 9,0 C 10,0 C 13,9 C 88 % 1015,8 hPa 0,0 l/m 2,7 km/h (1 Bft) O-NO 64 0 min 0,101 mm 0,7 UV-I 214 W/m 7,1 C 9,0 C 6,4 km/h (2 Bft) 93,62 %
11.11.2018 12:04 9,1 C 10,0 C 13,9 C 88 % 1015,9 hPa 0,0 l/m 4,5 km/h (1 Bft) O 98 0 min 0,000 mm 0,7 UV-I 212 W/m 7,2 C 9,1 C 6,4 km/h (2 Bft) 100,00 %
11.11.2018 12:06 9,1 C 10,0 C 13,9 C 88 % 1015,8 hPa 0,0 l/m 4,0 km/h (1 Bft) O 100 0 min 0,000 mm 0,7 UV-I 203 W/m 7,2 C 9,1 C 6,4 km/h (2 Bft) 98,00 %
11.11.2018 12:08 9,2 C 10,0 C 13,3 C 88 % 1015,8 hPa 0,0 l/m 4,4 km/h (1 Bft) NO 36 0 min 0,000 mm 0,7 UV-I 225 W/m 7,3 C 9,2 C 6,4 km/h (2 Bft) 97,56 %
11.11.2018 12:10 9,3 C 10,0 C 13,3 C 88 % 1015,8 hPa 0,0 l/m 5,9 km/h (2 Bft) O-NO 61 0 min 0,000 mm 0,7 UV-I 207 W/m 7,4 C 9,3 C 11,3 km/h (2 Bft) 95,83 %
11.11.2018 12:12 9,3 C 10,0 C 12,8 C 88 % 1015,9 hPa 0,0 l/m 3,8 km/h (1 Bft) N-NO 31 0 min 0,000 mm 0,7 UV-I 195 W/m 7,4 C 9,3 C 9,7 km/h (2 Bft) 93,62 %
11.11.2018 12:14 9,3 C 10,0 C 12,8 C 89 % 1015,9 hPa 0,0 l/m 5,7 km/h (1 Bft) O 85 0 min 0,000 mm 0,6 UV-I 180 W/m 7,6 C 9,3 C 8,0 km/h (2 Bft) 94,00 %
11.11.2018 12:16 9,2 C 10,0 C 12,8 C 87 % 1016,0 hPa 0,0 l/m 3,1 km/h (1 Bft) O 86 0 min 0,000 mm 0,6 UV-I 171 W/m 7,2 C 9,2 C 6,4 km/h (2 Bft) 95,74 %
11.11.2018 12:18 9,1 C 10,0 C 12,8 C 88 % 1016,0 hPa 0,0 l/m 6,7 km/h (2 Bft) O-SO 103 0 min 0,000 mm 0,6 UV-I 171 W/m 7,2 C 8,9 C 11,3 km/h (2 Bft) 97,87 %
11.11.2018 12:20 9,0 C 10,0 C 12,8 C 88 % 1015,9 hPa 0,0 l/m 4,1 km/h (1 Bft) O-SO 105 0 min 0,000 mm 0,6 UV-I 167 W/m 7,1 C 9,0 C 6,4 km/h (2 Bft) 96,00 %
11.11.2018 12:22 9,0 C 10,0 C 12,8 C 88 % 1016,0 hPa 0,0 l/m 4,0 km/h (1 Bft) O-SO 105 0 min 0,000 mm 0,7 UV-I 179 W/m 7,1 C 9,0 C 4,8 km/h (1 Bft) 97,87 %
11.11.2018 12:24 9,1 C 10,0 C 12,8 C 88 % 1016,0 hPa 0,0 l/m 3,8 km/h (1 Bft) O-NO 66 0 min 0,000 mm 0,7 UV-I 193 W/m 7,2 C 9,1 C 6,4 km/h (2 Bft) 97,87 %
11.11.2018 12:26 9,2 C 10,0 C 12,8 C 89 % 1016,0 hPa 0,0 l/m 4,3 km/h (1 Bft) NO 39 0 min 0,000 mm 0,7 UV-I 215 W/m 7,5 C 9,2 C 6,4 km/h (2 Bft) 97,87 %
11.11.2018 12:28 9,2 C 10,0 C 12,8 C 89 % 1016,0 hPa 0,0 l/m 3,0 km/h (1 Bft) NO 39 2 min 0,000 mm 0,7 UV-I 238 W/m 7,5 C 9,2 C 4,8 km/h (1 Bft) 97,87 %
11.11.2018 12:30 9,3 C 10,0 C 13,3 C 89 % 1016,1 hPa 0,0 l/m 2,3 km/h (1 Bft) NO 39 2 min 0,000 mm 0,7 UV-I 257 W/m 7,6 C 9,3 C 4,8 km/h (1 Bft) 100,00 %
11.11.2018 12:32 9,2 C 10,0 C 13,9 C 88 % 1016,1 hPa 0,0 l/m 1,5 km/h (1 Bft) O-SO 120 2 min 0,000 mm 0,7 UV-I 259 W/m 7,3 C 9,2 C 3,2 km/h (1 Bft) 100,00 %
11.11.2018 12:34 9,2 C 10,0 C 13,9 C 88 % 1015,9 hPa 0,0 l/m 3,2 km/h (1 Bft) O-SO 120 2 min 0,000 mm 0,7 UV-I 271 W/m 7,3 C 9,2 C 4,8 km/h (1 Bft) 97,87 %
11.11.2018 12:36 9,3 C 10,0 C 14,4 C 88 % 1015,9 hPa 0,0 l/m 1,1 km/h (1 Bft) O-SO 119 2 min 0,000 mm 0,8 UV-I 425 W/m 7,4 C 9,3 C 3,2 km/h (1 Bft) 97,37 %
11.11.2018 12:38 9,5 C 10,0 C 15,0 C 87 % 1015,9 hPa 0,0 l/m 1,9 km/h (1 Bft) O-SO 119 2 min 0,000 mm 0,8 UV-I 526 W/m 7,4 C 9,5 C 4,8 km/h (1 Bft) 100,00 %
11.11.2018 12:40 9,6 C 10,0 C 15,0 C 87 % 1015,9 hPa 0,0 l/m 4,3 km/h (1 Bft) O-SO 111 2 min 0,000 mm 0,7 UV-I 383 W/m 7,5 C 9,6 C 6,4 km/h (2 Bft) 97,87 %
11.11.2018 12:42 9,6 C 10,0 C 15,0 C 87 % 1016,1 hPa 0,0 l/m 3,7 km/h (1 Bft) O-NO 74 2 min 0,000 mm 0,8 UV-I 419 W/m 7,5 C 9,6 C 6,4 km/h (2 Bft) 100,00 %
11.11.2018 12:44 9,8 C 10,0 C 15,0 C 87 % 1016,1 hPa 0,0 l/m 1,7 km/h (1 Bft) O-NO 74 2 min 0,000 mm 0,8 UV-I 534 W/m 7,7 C 9,8 C 4,8 km/h (1 Bft) 97,87 %
11.11.2018 12:46 9,8 C 10,0 C 15,0 C 86 % 1016,1 hPa 0,0 l/m 0,9 km/h (0 Bft) O 86 2 min 0,000 mm 0,8 UV-I 516 W/m 7,6 C 9,8 C 3,2 km/h (1 Bft) 100,00 %
11.11.2018 12:48 9,7 C 10,0 C 15,0 C 86 % 1016,0 hPa 0,0 l/m 2,3 km/h (1 Bft) O-SO 121 2 min 0,000 mm 0,8 UV-I 393 W/m 7,5 C 9,7 C 4,8 km/h (1 Bft) 100,00 %
11.11.2018 12:50 9,8 C 10,0 C 15,0 C 87 % 1016,1 hPa 0,0 l/m 1,3 km/h (1 Bft) O-SO 121 2 min 0,000 mm 0,8 UV-I 430 W/m 7,7 C 9,8 C 3,2 km/h (1 Bft) 100,00 %
11.11.2018 12:52 10,1 C 10,0 C 15,0 C 88 % 1016,0 hPa 0,0 l/m 4,5 km/h (1 Bft) N-NO 21 2 min 0,000 mm 0,8 UV-I 484 W/m 8,2 C 10,1 C 6,4 km/h (2 Bft) 100,00 %
11.11.2018 12:54 10,4 C 10,0 C 15,0 C 86 % 1016,0 hPa 0,0 l/m 4,8 km/h (1 Bft) NO 55 2 min 0,000 mm 0,8 UV-I 460 W/m 8,2 C 10,4 C 6,4 km/h (2 Bft) 97,87 %
11.11.2018 12:56 10,4 C 10,0 C 15,0 C 84 % 1015,9 hPa 0,0 l/m 5,6 km/h (1 Bft) O-NO 73 2 min 0,000 mm 0,8 UV-I 421 W/m 7,8 C 10,4 C 8,0 km/h (2 Bft) 93,62 %
11.11.2018 12:58 10,3 C 10,0 C 14,4 C 84 % 1016,0 hPa 0,0 l/m 7,0 km/h (2 Bft) O-NO 63 2 min 0,000 mm 0,7 UV-I 339 W/m 7,7 C 9,9 C 12,9 km/h (3 Bft) 97,87 %
11.11.2018 13:00 10,2 C 10,0 C 14,4 C 85 % 1015,9 hPa 0,0 l/m 6,4 km/h (2 Bft) NO 49 2 min 0,153 mm 0,7 UV-I 339 W/m 7,8 C 10,2 C 9,7 km/h (2 Bft) 100,00 %
11.11.2018 13:02 10,2 C 10,0 C 14,4 C 85 % 1015,8 hPa 0,0 l/m 5,2 km/h (1 Bft) O-NO 62 2 min 0,000 mm 0,7 UV-I 312 W/m 7,8 C 10,2 C 8,0 km/h (2 Bft) 100,00 %
11.11.2018 13:04 10,2 C 10,0 C 13,3 C 85 % 1015,9 hPa 0,0 l/m 6,1 km/h (2 Bft) O-NO 72 2 min 0,000 mm 0,7 UV-I 214 W/m 7,8 C 10,2 C 8,0 km/h (2 Bft) 100,00 %
11.11.2018 13:06 10,2 C 10,0 C 13,3 C 85 % 1015,8 hPa 0,0 l/m 4,4 km/h (1 Bft) O-NO 72 2 min 0,000 mm 0,7 UV-I 228 W/m 7,8 C 10,2 C 6,4 km/h (2 Bft) 96,00 %
11.11.2018 13:08 10,1 C 10,0 C 12,8 C 85 % 1015,9 hPa 0,0 l/m 2,0 km/h (1 Bft) O-NO 72 2 min 0,000 mm 0,7 UV-I 212 W/m 7,7 C 10,1 C 3,2 km/h (1 Bft) 97,87 %
11.11.2018 13:10 10,0 C 10,0 C 12,2 C 86 % 1015,8 hPa 0,0 l/m 3,8 km/h (1 Bft) NO 48 0 min 0,000 mm 0,7 UV-I 161 W/m 7,8 C 10,0 C 4,8 km/h (1 Bft) 100,00 %
11.11.2018 13:12 9,9 C 10,0 C 11,7 C 85 % 1015,8 hPa 0,0 l/m 1,0 km/h (0 Bft) NO 48 0 min 0,000 mm 0,7 UV-I 155 W/m 7,5 C 9,9 C 3,2 km/h (1 Bft) 98,00 %
11.11.2018 13:14 9,9 C 10,0 C 12,2 C 85 % 1015,7 hPa 0,0 l/m 4,0 km/h (1 Bft) O-NO 78 2 min 0,000 mm 0,7 UV-I 281 W/m 7,5 C 9,9 C 6,4 km/h (2 Bft) 97,87 %
11.11.2018 13:16 10,1 C 10,0 C 12,2 C 86 % 1015,6 hPa 0,0 l/m 5,1 km/h (1 Bft) N-NO 15 2 min 0,000 mm 0,7 UV-I 314 W/m 7,9 C 10,1 C 8,0 km/h (2 Bft) 98,00 %
11.11.2018 13:18 10,2 C 10,0 C 12,2 C 86 % 1015,8 hPa 0,0 l/m 4,1 km/h (1 Bft) NO 43 2 min 0,000 mm 0,7 UV-I 313 W/m 8,0 C 10,2 C 6,4 km/h (2 Bft) 97,87 %
11.11.2018 13:20 10,2 C 10,0 C 12,2 C 85 % 1015,8 hPa 0,0 l/m 5,5 km/h (1 Bft) O-NO 70 2 min 0,000 mm 0,7 UV-I 315 W/m 7,8 C 10,2 C 6,4 km/h (2 Bft) 98,00 %
11.11.2018 13:22 10,2 C 10,0 C 12,2 C 85 % 1015,8 hPa 0,0 l/m 5,6 km/h (1 Bft) N-NO 28 2 min 0,000 mm 0,7 UV-I 310 W/m 7,8 C 10,2 C 8,0 km/h (2 Bft) 95,74 %
11.11.2018 13:24 10,3 C 10,0 C 12,2 C 85 % 1015,9 hPa 0,0 l/m 2,0 km/h (1 Bft) N-NO 33 2 min 0,000 mm 0,7 UV-I 308 W/m 7,9 C 10,3 C 3,2 km/h (1 Bft) 97,87 %
11.11.2018 13:26 10,4 C 10,0 C 12,2 C 85 % 1015,8 hPa 0,0 l/m 2,4 km/h (1 Bft) NO 34 2 min 0,000 mm 0,7 UV-I 304 W/m 8,0 C 10,4 C 3,2 km/h (1 Bft) 93,62 %
11.11.2018 13:28 10,4 C 10,0 C 12,2 C 84 % 1015,7 hPa 0,0 l/m 3,4 km/h (1 Bft) O 96 2 min 0,000 mm 0,7 UV-I 299 W/m 7,8 C 10,4 C 4,8 km/h (1 Bft) 95,74 %
11.11.2018 13:30 10,5 C 10,0 C 12,2 C 84 % 1015,6 hPa 0,0 l/m 3,4 km/h (1 Bft) O-NO 75 2 min 0,000 mm 0,6 UV-I 298 W/m 7,9 C 10,5 C 4,8 km/h (1 Bft) 91,49 %
11.11.2018 13:32 10,4 C 10,0 C 11,7 C 84 % 1015,6 hPa 0,0 l/m 4,2 km/h (1 Bft) O 98 2 min 0,000 mm 0,6 UV-I 294 W/m 7,8 C 10,4 C 6,4 km/h (2 Bft) 95,83 %
11.11.2018 13:34 10,4 C 10,0 C 12,2 C 84 % 1015,6 hPa 0,0 l/m 4,3 km/h (1 Bft) O 82 2 min 0,000 mm 0,6 UV-I 288 W/m 7,8 C 10,4 C 8,0 km/h (2 Bft) 97,87 %
11.11.2018 13:36 10,4 C 10,0 C 11,7 C 84 % 1015,7 hPa 0,0 l/m 5,6 km/h (1 Bft) O 92 2 min 0,000 mm 0,6 UV-I 288 W/m 7,8 C 10,4 C 9,7 km/h (2 Bft) 92,11 %
11.11.2018 13:38 10,5 C 10,0 C 11,7 C 84 % 1015,9 hPa 0,0 l/m 5,5 km/h (1 Bft) O-NO 73 2 min 0,000 mm 0,6 UV-I 276 W/m 7,9 C 10,5 C 9,7 km/h (2 Bft) 95,74 %
11.11.2018 13:40 10,6 C 10,0 C 11,7 C 84 % 1015,9 hPa 0,0 l/m 3,4 km/h (1 Bft) O 90 2 min 0,000 mm 0,6 UV-I 278 W/m 8,0 C 10,6 C 4,8 km/h (1 Bft) 98,00 %
11.11.2018 13:42 10,7 C 10,0 C 12,2 C 84 % 1016,0 hPa 0,0 l/m 3,7 km/h (1 Bft) O 95 2 min 0,000 mm 0,6 UV-I 269 W/m 8,1 C 10,7 C 6,4 km/h (2 Bft) 95,74 %
11.11.2018 13:44 10,7 C 10,0 C 11,7 C 83 % 1016,1 hPa 0,0 l/m 3,1 km/h (1 Bft) O 99 0 min 0,000 mm 0,5 UV-I 184 W/m 7,9 C 10,7 C 4,8 km/h (1 Bft) 97,87 %
11.11.2018 13:46 10,7 C 10,0 C 12,2 C 83 % 1016,2 hPa 0,0 l/m 2,1 km/h (1 Bft) O 99 0 min 0,000 mm 0,5 UV-I 150 W/m 7,9 C 10,7 C 4,8 km/h (1 Bft) 97,87 %
11.11.2018 13:48 10,7 C 10,0 C 12,2 C 83 % 1016,2 hPa 0,0 l/m 2,5 km/h (1 Bft) N-NO 17 2 min 0,000 mm 0,5 UV-I 243 W/m 7,9 C 10,7 C 4,8 km/h (1 Bft) 95,74 %
11.11.2018 13:50 10,7 C 10,0 C 12,2 C 84 % 1016,3 hPa 0,0 l/m 3,8 km/h (1 Bft) N-NO 15 0 min 0,000 mm 0,5 UV-I 179 W/m 8,1 C 10,7 C 4,8 km/h (1 Bft) 94,74 %
11.11.2018 13:52 10,7 C 10,0 C 12,2 C 84 % 1016,4 hPa 0,0 l/m 5,1 km/h (1 Bft) N-NO 30 2 min 0,000 mm 0,5 UV-I 246 W/m 8,1 C 10,7 C 6,4 km/h (2 Bft) 98,00 %
11.11.2018 13:54 10,7 C 10,0 C 12,2 C 84 % 1016,4 hPa 0,0 l/m 5,5 km/h (1 Bft) N-NW 329 2 min 0,000 mm 0,5 UV-I 194 W/m 8,1 C 10,7 C 8,0 km/h (2 Bft) 100,00 %
11.11.2018 13:56 10,7 C 10,0 C 12,2 C 84 % 1016,4 hPa 0,0 l/m 5,1 km/h (1 Bft) NO 38 2 min 0,000 mm 0,5 UV-I 305 W/m 8,1 C 10,7 C 6,4 km/h (2 Bft) 97,87 %
11.11.2018 13:58 10,8 C 10,0 C 12,2 C 84 % 1016,4 hPa 0,0 l/m 5,3 km/h (1 Bft) N 9 2 min 0,000 mm 0,5 UV-I 221 W/m 8,2 C 10,8 C 6,4 km/h (2 Bft) 100,00 %
11.11.2018 14:00 10,7 C 10,0 C 11,7 C 83 % 1016,4 hPa 0,0 l/m 3,0 km/h (1 Bft) N 355 0 min 0,000 mm 0,2 UV-I 124 W/m 7,9 C 10,7 C 6,4 km/h (2 Bft) 100,00 %
11.11.2018 14:02 10,6 C 10,0 C 11,7 C 83 % 1016,3 hPa 0,0 l/m 1,2 km/h (1 Bft) N 355 0 min 0,127 mm 0,0 UV-I 125 W/m 7,8 C 10,6 C 3,2 km/h (1 Bft) 100,00 %
11.11.2018 14:04 10,6 C 10,0 C 11,1 C 83 % 1016,3 hPa 0,0 l/m 2,4 km/h (1 Bft) N 355 0 min 0,000 mm 0,0 UV-I 115 W/m 7,8 C 10,6 C 4,8 km/h (1 Bft) 98,00 %
11.11.2018 14:06 10,4 C 10,0 C 10,6 C 83 % 1016,3 hPa 0,0 l/m 2,8 km/h (1 Bft) N 355 0 min 0,000 mm 0,0 UV-I 99 W/m 7,6 C 10,4 C 4,8 km/h (1 Bft) 97,87 %
11.11.2018 14:08 10,3 C 10,0 C 10,6 C 83 % 1016,3 hPa 0,0 l/m 3,6 km/h (1 Bft) N 355 0 min 0,000 mm 0,0 UV-I 81 W/m 7,5 C 10,3 C 4,8 km/h (1 Bft) 100,00 %
11.11.2018 14:10 10,3 C 10,0 C 10,0 C 84 % 1016,2 hPa 0,0 l/m 2,4 km/h (1 Bft) N 5 0 min 0,000 mm 0,0 UV-I 93 W/m 7,7 C 10,3 C 4,8 km/h (1 Bft) 100,00 %
11.11.2018 14:12 10,3 C 10,0 C 10,0 C 85 % 1016,2 hPa 0,0 l/m 2,2 km/h (1 Bft) N 5 2 min 0,000 mm 0,0 UV-I 209 W/m 7,9 C 10,3 C 3,2 km/h (1 Bft) 98,00 %
11.11.2018 14:14 10,3 C 10,0 C 10,0 C 84 % 1016,1 hPa 0,0 l/m 1,6 km/h (1 Bft) N 5 2 min 0,000 mm 0,0 UV-I 220 W/m 7,7 C 10,3 C 3,2 km/h (1 Bft) 95,74 %
11.11.2018 14:16 10,4 C 10,0 C 10,0 C 84 % 1016,1 hPa 0,0 l/m 2,4 km/h (1 Bft) N 5 2 min 0,000 mm 0,0 UV-I 227 W/m 7,8 C 10,4 C 3,2 km/h (1 Bft) 100,00 %
11.11.2018 14:18 10,4 C 10,0 C 10,0 C 83 % 1016,1 hPa 0,0 l/m 1,3 km/h (1 Bft) N 5 2 min 0,000 mm 0,0 UV-I 222 W/m 7,6 C 10,4 C 3,2 km/h (1 Bft) 100,00 %
11.11.2018 14:20 10,4 C 10,0 C 10,0 C 83 % 1016,3 hPa 0,0 l/m 3,1 km/h (1 Bft) W-SW 255 2 min 0,000 mm 0,0 UV-I 217 W/m 7,6 C 10,4 C 4,8 km/h (1 Bft) 95,74 %
11.11.2018 14:22 10,3 C 10,0 C 10,0 C 83 % 1016,3 hPa 0,0 l/m 2,9 km/h (1 Bft) W 264 2 min 0,000 mm 0,0 UV-I 219 W/m 7,5 C 10,3 C 4,8 km/h (1 Bft) 95,74 %
11.11.2018 14:24 10,3 C 10,0 C 10,0 C 84 % 1016,3 hPa 0,0 l/m 2,4 km/h (1 Bft) W-NW 301 2 min 0,000 mm 0,0 UV-I 212 W/m 7,7 C 10,3 C 4,8 km/h (1 Bft) 97,87 %
11.11.2018 14:26 10,4 C 10,0 C 10,0 C 84 % 1016,3 hPa 0,0 l/m 4,1 km/h (1 Bft) W-NW 302 2 min 0,000 mm 0,0 UV-I 206 W/m 7,8 C 10,4 C 6,4 km/h (2 Bft) 100,00 %
11.11.2018 14:28 10,4 C 10,0 C 10,0 C 84 % 1016,3 hPa 0,0 l/m 3,3 km/h (1 Bft) W-NW 290 2 min 0,000 mm 0,0 UV-I 204 W/m 7,8 C 10,4 C 4,8 km/h (1 Bft) 100,00 %
11.11.2018 14:30 10,4 C 10,0 C 10,0 C 84 % 1016,3 hPa 0,0 l/m 1,9 km/h (1 Bft) W-NW 291 2 min 0,000 mm 0,0 UV-I 202 W/m 7,8 C 10,4 C 3,2 km/h (1 Bft) 97,87 %
11.11.2018 14:32 10,4 C 10,0 C 10,0 C 84 % 1016,4 hPa 0,0 l/m 0,7 km/h (0 Bft) W-NW 290 2 min 0,000 mm 0,0 UV-I 199 W/m 7,8 C 10,4 C 3,2 km/h (1 Bft) 97,87 %
11.11.2018 14:34 10,4 C 10,0 C 10,0 C 84 % 1016,4 hPa 0,0 l/m 0,5 km/h (0 Bft) W-NW 291 2 min 0,000 mm 0,0 UV-I 193 W/m 7,8 C 10,4 C 1,6 km/h (1 Bft) 97,87 %
11.11.2018 14:36 10,4 C 10,0 C 10,0 C 84 % 1016,5 hPa 0,0 l/m 2,7 km/h (1 Bft) N-NO 17 2 min 0,000 mm 0,0 UV-I 192 W/m 7,8 C 10,4 C 6,4 km/h (2 Bft) 97,87 %
11.11.2018 14:38 10,5 C 10,0 C 10,0 C 85 % 1016,4 hPa 0,0 l/m 3,3 km/h (1 Bft) N-NO 19 2 min 0,000 mm 0,0 UV-I 188 W/m 8,1 C 10,5 C 4,8 km/h (1 Bft) 97,56 %
11.11.2018 14:40 10,6 C 10,0 C 10,0 C 84 % 1016,5 hPa 0,0 l/m 2,7 km/h (1 Bft) N-NO 19 2 min 0,000 mm 0,0 UV-I 182 W/m 8,0 C 10,6 C 4,8 km/h (1 Bft) 96,00 %
11.11.2018 14:42 10,6 C 10,0 C 9,4 C 84 % 1016,5 hPa 0,0 l/m 2,6 km/h (1 Bft) N-NO 19 2 min 0,000 mm 0,0 UV-I 178 W/m 8,0 C 10,6 C 4,8 km/h (1 Bft) 100,00 %
11.11.2018 14:44 10,5 C 10,0 C 9,4 C 84 % 1016,6 hPa 0,0 l/m 1,7 km/h (1 Bft) N-NO 19 2 min 0,000 mm 0,0 UV-I 175 W/m 7,9 C 10,5 C 3,2 km/h (1 Bft) 98,00 %
11.11.2018 14:46 10,5 C 10,0 C 9,4 C 84 % 1016,5 hPa 0,0 l/m 2,2 km/h (1 Bft) N-NO 32 2 min 0,000 mm 0,0 UV-I 169 W/m 7,9 C 10,5 C 3,2 km/h (1 Bft) 100,00 %
11.11.2018 14:48 10,6 C 10,0 C 9,4 C 84 % 1016,5 hPa 0,0 l/m 2,6 km/h (1 Bft) O 82 2 min 0,000 mm 0,0 UV-I 168 W/m 8,0 C 10,6 C 4,8 km/h (1 Bft) 98,11 %
11.11.2018 14:50 10,6 C 10,0 C 9,4 C 84 % 1016,5 hPa 0,0 l/m 4,3 km/h (1 Bft) O 98 2 min 0,000 mm 0,0 UV-I 163 W/m 8,0 C 10,6 C 6,4 km/h (2 Bft) 97,87 %
11.11.2018 14:52 10,6 C 10,0 C 9,4 C 83 % 1016,5 hPa 0,0 l/m 2,5 km/h (1 Bft) O 98 2 min 0,000 mm 0,0 UV-I 159 W/m 7,8 C 10,6 C 4,8 km/h (1 Bft) 95,74 %
11.11.2018 14:54 10,6 C 10,0 C 9,4 C 84 % 1016,4 hPa 0,0 l/m 2,0 km/h (1 Bft) O 97 2 min 0,000 mm 0,0 UV-I 155 W/m 8,0 C 10,6 C 3,2 km/h (1 Bft) 93,62 %
11.11.2018 14:56 10,6 C 10,0 C 9,4 C 84 % 1016,5 hPa 0,0 l/m 0,9 km/h (0 Bft) O 97 2 min 0,000 mm 0,0 UV-I 151 W/m 8,0 C 10,6 C 3,2 km/h (1 Bft) 95,74 %
11.11.2018 14:58 10,5 C 10,0 C 9,4 C 84 % 1016,5 hPa 0,0 l/m 0,2 km/h (0 Bft) O 97 2 min 0,000 mm 0,0 UV-I 149 W/m 7,9 C 10,5 C 1,6 km/h (1 Bft) 91,49 %
11.11.2018 15:00 10,5 C 10,0 C 9,4 C 84 % 1016,5 hPa 0,0 l/m 0,5 km/h (0 Bft) O 97 2 min 0,000 mm 0,0 UV-I 144 W/m 7,9 C 10,5 C 1,6 km/h (1 Bft) 95,45 %
11.11.2018 15:02 10,5 C 10,0 C 8,9 C 84 % 1016,5 hPa 0,0 l/m 1,5 km/h (1 Bft) O-SO 120 2 min 0,076 mm 0,0 UV-I 141 W/m 7,9 C 10,5 C 3,2 km/h (1 Bft) 93,62 %
11.11.2018 15:04 10,6 C 10,0 C 9,4 C 84 % 1016,6 hPa 0,0 l/m 1,5 km/h (1 Bft) O-SO 121 2 min 0,000 mm 0,0 UV-I 137 W/m 8,0 C 10,6 C 3,2 km/h (1 Bft) 93,62 %
11.11.2018 15:06 10,6 C 10,0 C 9,4 C 83 % 1016,6 hPa 0,0 l/m 0,6 km/h (0 Bft) O-SO 121 2 min 0,000 mm 0,0 UV-I 133 W/m 7,8 C 10,6 C 1,6 km/h (1 Bft) 94,00 %
11.11.2018 15:08 10,6 C 10,0 C 8,9 C 83 % 1016,7 hPa 0,0 l/m 0,4 km/h (0 Bft) O-SO 121 2 min 0,000 mm 0,0 UV-I 132 W/m 7,8 C 10,6 C 1,6 km/h (1 Bft) 95,74 %
11.11.2018 15:10 10,5 C 10,0 C 8,9 C 84 % 1016,7 hPa 0,0 l/m 1,2 km/h (1 Bft) O-SO 121 2 min 0,000 mm 0,0 UV-I 127 W/m 7,9 C 10,5 C 3,2 km/h (1 Bft) 95,74 %
11.11.2018 15:12 10,6 C 10,0 C 8,9 C 84 % 1016,7 hPa 0,0 l/m 0,5 km/h (0 Bft) O-SO 121 2 min 0,000 mm 0,0 UV-I 122 W/m 8,0 C 10,6 C 1,6 km/h (1 Bft) 95,74 %
11.11.2018 15:14 10,6 C 10,0 C 8,9 C 84 % 1016,7 hPa 0,0 l/m 1,3 km/h (1 Bft) O-SO 121 2 min 0,000 mm 0,0 UV-I 120 W/m 8,0 C 10,6 C 1,6 km/h (1 Bft) 97,87 %
11.11.2018 15:16 10,5 C 10,0 C 8,3 C 84 % 1016,6 hPa 0,0 l/m 1,1 km/h (1 Bft) O-SO 121 2 min 0,000 mm 0,0 UV-I 116 W/m 7,9 C 10,5 C 1,6 km/h (1 Bft) 97,87 %
11.11.2018 15:18 10,6 C 10,0 C 8,3 C 84 % 1016,6 hPa 0,0 l/m 1,1 km/h (1 Bft) S-SW 192 2 min 0,000 mm 0,0 UV-I 114 W/m 8,0 C 10,6 C 3,2 km/h (1 Bft) 97,87 %
11.11.2018 15:20 10,6 C 10,0 C 8,3 C 84 % 1016,6 hPa 0,0 l/m 0,1 km/h (0 Bft) S 191 2 min 0,000 mm 0,0 UV-I 111 W/m 8,0 C 10,6 C 1,6 km/h (1 Bft) 95,74 %
11.11.2018 15:22 10,6 C 10,0 C 8,3 C 84 % 1016,5 hPa 0,0 l/m 2,9 km/h (1 Bft) O 96 2 min 0,000 mm 0,0 UV-I 107 W/m 8,0 C 10,6 C 4,8 km/h (1 Bft) 95,74 %
11.11.2018 15:24 10,7 C 10,0 C 8,3 C 84 % 1016,5 hPa 0,0 l/m 3,1 km/h (1 Bft) O 96 2 min 0,000 mm 0,0 UV-I 103 W/m 8,1 C 10,7 C 3,2 km/h (1 Bft) 97,22 %
11.11.2018 15:26 10,7 C 10,0 C 8,9 C 84 % 1016,4 hPa 0,0 l/m 4,0 km/h (1 Bft) O-SO 119 2 min 0,000 mm 0,0 UV-I 99 W/m 8,1 C 10,7 C 6,4 km/h (2 Bft) 96,00 %
11.11.2018 15:28 10,7 C 10,0 C 8,9 C 84 % 1016,6 hPa 0,0 l/m 4,4 km/h (1 Bft) SO 145 2 min 0,000 mm 0,0 UV-I 97 W/m 8,1 C 10,7 C 6,4 km/h (2 Bft) 95,74 %
11.11.2018 15:30 10,7 C 10,0 C 8,9 C 84 % 1016,6 hPa 0,0 l/m 4,7 km/h (1 Bft) S-SO 147 2 min 0,000 mm 0,0 UV-I 92 W/m 8,1 C 10,7 C 6,4 km/h (2 Bft) 97,87 %
11.11.2018 15:32 10,7 C 10,0 C 8,9 C 84 % 1016,6 hPa 0,0 l/m 3,6 km/h (1 Bft) S 171 2 min 0,000 mm 0,0 UV-I 90 W/m 8,1 C 10,7 C 8,0 km/h (2 Bft) 98,00 %
11.11.2018 15:34 10,7 C 10,0 C 9,4 C 84 % 1016,6 hPa 0,0 l/m 5,2 km/h (1 Bft) SO 130 2 min 0,000 mm 0,0 UV-I 86 W/m 8,1 C 10,7 C 8,0 km/h (2 Bft) 97,87 %
11.11.2018 15:36 10,6 C 10,0 C 9,4 C 84 % 1016,6 hPa 0,0 l/m 4,2 km/h (1 Bft) SO 132 2 min 0,000 mm 0,0 UV-I 83 W/m 8,0 C 10,6 C 8,0 km/h (2 Bft) 97,87 %
11.11.2018 15:38 10,6 C 10,0 C 8,9 C 84 % 1016,5 hPa 0,0 l/m 4,3 km/h (1 Bft) SO 131 2 min 0,000 mm 0,0 UV-I 79 W/m 8,0 C 10,6 C 6,4 km/h (2 Bft) 98,00 %
11.11.2018 15:40 10,6 C 10,0 C 8,9 C 84 % 1016,6 hPa 0,0 l/m 2,1 km/h (1 Bft) SO 131 2 min 0,000 mm 0,0 UV-I 76 W/m 8,0 C 10,6 C 4,8 km/h (1 Bft) 93,62 %
11.11.2018 15:42 10,6 C 10,0 C 8,3 C 85 % 1016,5 hPa 0,0 l/m 1,3 km/h (1 Bft) SO 131 2 min 0,000 mm 0,0 UV-I 73 W/m 8,2 C 10,6 C 3,2 km/h (1 Bft) 100,00 %
11.11.2018 15:44 10,6 C 10,0 C 8,3 C 85 % 1016,5 hPa 0,0 l/m 2,3 km/h (1 Bft) SO 131 2 min 0,000 mm 0,0 UV-I 70 W/m 8,2 C 10,6 C 4,8 km/h (1 Bft) 98,00 %
11.11.2018 15:46 10,5 C 10,0 C 8,3 C 85 % 1016,6 hPa 0,0 l/m 3,1 km/h (1 Bft) SO 131 2 min 0,000 mm 0,0 UV-I 68 W/m 8,1 C 10,5 C 4,8 km/h (1 Bft) 95,74 %
11.11.2018 15:48 10,4 C 10,0 C 8,3 C 85 % 1016,5 hPa 0,0 l/m 4,3 km/h (1 Bft) O-SO 121 2 min 0,000 mm 0,0 UV-I 64 W/m 8,0 C 10,4 C 6,4 km/h (2 Bft) 97,87 %
11.11.2018 15:50 10,4 C 10,0 C 8,3 C 85 % 1016,6 hPa 0,0 l/m 5,0 km/h (1 Bft) SO 140 2 min 0,000 mm 0,0 UV-I 60 W/m 8,0 C 10,4 C 6,4 km/h (2 Bft) 95,74 %
11.11.2018 15:52 10,4 C 10,0 C 8,3 C 85 % 1016,6 hPa 0,0 l/m 3,9 km/h (1 Bft) SO 144 2 min 0,000 mm 0,0 UV-I 57 W/m 8,0 C 10,4 C 6,4 km/h (2 Bft) 100,00 %
11.11.2018 15:54 10,3 C 10,0 C 8,3 C 85 % 1016,6 hPa 0,0 l/m 3,4 km/h (1 Bft) S-SO 156 2 min 0,000 mm 0,0 UV-I 54 W/m 7,9 C 10,3 C 4,8 km/h (1 Bft) 97,87 %
11.11.2018 15:56 10,3 C 10,0 C 8,3 C 85 % 1016,7 hPa 0,0 l/m 4,2 km/h (1 Bft) S-SO 165 2 min 0,000 mm 0,0 UV-I 53 W/m 7,9 C 10,3 C 6,4 km/h (2 Bft) 94,34 %
11.11.2018 15:58 10,3 C 10,0 C 8,3 C 85 % 1016,8 hPa 0,0 l/m 5,1 km/h (1 Bft) S-SO 155 2 min 0,000 mm 0,0 UV-I 49 W/m 7,9 C 10,3 C 8,0 km/h (2 Bft) 100,00 %
11.11.2018 16:00 10,3 C 10,0 C 8,3 C 85 % 1016,9 hPa 0,0 l/m 5,7 km/h (1 Bft) S-SO 165 2 min 0,051 mm 0,0 UV-I 47 W/m 7,9 C 10,3 C 8,0 km/h (2 Bft) 97,44 %
11.11.2018 16:02 10,2 C 10,0 C 8,3 C 85 % 1017,0 hPa 0,0 l/m 4,6 km/h (1 Bft) S 174 2 min 0,000 mm 0,0 UV-I 44 W/m 7,8 C 10,2 C 9,7 km/h (2 Bft) 97,87 %
11.11.2018 16:04 10,2 C 10,0 C 8,3 C 85 % 1017,0 hPa 0,0 l/m 5,0 km/h (1 Bft) S 189 2 min 0,000 mm 0,0 UV-I 41 W/m 7,8 C 10,2 C 8,0 km/h (2 Bft) 93,62 %
11.11.2018 16:06 10,2 C 10,0 C 8,3 C 85 % 1017,0 hPa 0,0 l/m 5,0 km/h (1 Bft) S 173 2 min 0,000 mm 0,0 UV-I 39 W/m 7,8 C 10,2 C 8,0 km/h (2 Bft) 93,62 %
11.11.2018 16:08 10,2 C 10,0 C 8,3 C 85 % 1017,0 hPa 0,0 l/m 3,7 km/h (1 Bft) S 170 2 min 0,000 mm 0,0 UV-I 35 W/m 7,8 C 10,2 C 6,4 km/h (2 Bft) 94,34 %
11.11.2018 16:10 10,1 C 10,0 C 8,3 C 86 % 1016,9 hPa 0,0 l/m 4,5 km/h (1 Bft) S 172 2 min 0,000 mm 0,0 UV-I 33 W/m 7,9 C 10,1 C 8,0 km/h (2 Bft) 91,49 %
11.11.2018 16:12 10,1 C 10,0 C 8,3 C 86 % 1016,8 hPa 0,0 l/m 5,4 km/h (1 Bft) S 180 2 min 0,000 mm 0,0 UV-I 29 W/m 7,9 C 10,1 C 8,0 km/h (2 Bft) 93,62 %
11.11.2018 16:14 10,1 C 10,0 C 8,3 C 86 % 1016,8 hPa 0,0 l/m 3,7 km/h (1 Bft) S 180 2 min 0,000 mm 0,0 UV-I 26 W/m 7,9 C 10,1 C 6,4 km/h (2 Bft) 95,74 %
11.11.2018 16:16 9,9 C 10,0 C 8,3 C 86 % 1016,8 hPa 0,0 l/m 3,2 km/h (1 Bft) S 180 2 min 0,000 mm 0,0 UV-I 23 W/m 7,7 C 9,9 C 4,8 km/h (1 Bft) 93,62 %
11.11.2018 16:18 9,8 C 10,0 C 7,8 C 86 % 1016,8 hPa 0,0 l/m 3,2 km/h (1 Bft) S 180 2 min 0,000 mm 0,0 UV-I 21 W/m 7,6 C 9,8 C 4,8 km/h (1 Bft) 95,74 %
11.11.2018 16:20 9,7 C 10,0 C 7,2 C 87 % 1016,9 hPa 0,0 l/m 1,8 km/h (1 Bft) S 180 0 min 0,000 mm 0,0 UV-I 18 W/m 7,6 C 9,7 C 3,2 km/h (1 Bft) 97,14 %
11.11.2018 16:22 9,6 C 10,0 C 6,7 C 87 % 1016,9 hPa 0,0 l/m 3,0 km/h (1 Bft) S 180 0 min 0,000 mm 0,0 UV-I 16 W/m 7,5 C 9,6 C 4,8 km/h (1 Bft) 92,45 %
11.11.2018 16:24 9,4 C 10,0 C 6,7 C 87 % 1016,9 hPa 0,0 l/m 2,6 km/h (1 Bft) S 180 0 min 0,000 mm 0,0 UV-I 13 W/m 7,3 C 9,4 C 4,8 km/h (1 Bft) 96,00 %
11.11.2018 16:26 9,4 C 10,0 C 6,1 C 88 % 1016,9 hPa 0,0 l/m 3,1 km/h (1 Bft) SO 133 0 min 0,000 mm 0,0 UV-I 12 W/m 7,5 C 9,4 C 6,4 km/h (2 Bft) 93,62 %
11.11.2018 16:28 9,3 C 10,0 C 5,6 C 88 % 1016,9 hPa 0,0 l/m 4,5 km/h (1 Bft) SO 129 0 min 0,000 mm 0,0 UV-I 11 W/m 7,4 C 9,3 C 6,4 km/h (2 Bft) 91,49 %
11.11.2018 16:30 9,3 C 10,0 C 5,6 C 88 % 1017,0 hPa 0,0 l/m 2,9 km/h (1 Bft) SO 129 0 min 0,000 mm 0,0 UV-I 9 W/m 7,4 C 9,3 C 4,8 km/h (1 Bft) 97,87 %
11.11.2018 16:32 9,3 C 10,0 C 5,6 C 88 % 1017,0 hPa 0,0 l/m 2,6 km/h (1 Bft) SO 140 0 min 0,000 mm 0,0 UV-I 9 W/m 7,4 C 9,3 C 4,8 km/h (1 Bft) 95,74 %
11.11.2018 16:34 9,2 C 10,0 C 5,0 C 88 % 1017,0 hPa 0,0 l/m 2,4 km/h (1 Bft) SO 140 0 min 0,000 mm 0,0 UV-I 7 W/m 7,3 C 9,2 C 4,8 km/h (1 Bft) 93,62 %
11.11.2018 16:36 9,2 C 10,0 C 5,0 C 88 % 1017,1 hPa 0,0 l/m 2,5 km/h (1 Bft) SO 140 0 min 0,000 mm 0,0 UV-I 7 W/m 7,3 C 9,2 C 4,8 km/h (1 Bft) 97,87 %
11.11.2018 16:38 9,2 C 10,0 C 4,4 C 89 % 1017,1 hPa 0,0 l/m 2,9 km/h (1 Bft) SO 140 0 min 0,000 mm 0,0 UV-I 7 W/m 7,5 C 9,2 C 4,8 km/h (1 Bft) 97,87 %
11.11.2018 16:40 9,2 C 10,0 C 4,4 C 88 % 1017,2 hPa 0,0 l/m 2,8 km/h (1 Bft) SO 140 0 min 0,000 mm 0,0 UV-I 5 W/m 7,3 C 9,2 C 4,8 km/h (1 Bft) 95,83 %
11.11.2018 16:42 9,2 C 10,0 C 3,9 C 88 % 1017,3 hPa 0,0 l/m 1,2 km/h (1 Bft) SO 140 0 min 0,000 mm 0,0 UV-I 5 W/m 7,3 C 9,2 C 3,2 km/h (1 Bft) 97,37 %
11.11.2018 16:44 9,1 C 10,0 C 3,9 C 88 % 1017,3 hPa 0,0 l/m 2,3 km/h (1 Bft) SO 140 0 min 0,000 mm 0,0 UV-I 5 W/m 7,2 C 9,1 C 3,2 km/h (1 Bft) 98,00 %
11.11.2018 16:46 8,9 C 10,0 C 3,3 C 88 % 1017,3 hPa 0,0 l/m 3,7 km/h (1 Bft) SO 139 0 min 0,000 mm 0,0 UV-I 3 W/m 7,0 C 8,9 C 4,8 km/h (1 Bft) 98,00 %
11.11.2018 16:48 8,7 C 10,0 C 3,3 C 89 % 1017,2 hPa 0,0 l/m 4,7 km/h (1 Bft) SO 139 0 min 0,000 mm 0,0 UV-I 0 W/m 7,0 C 8,7 C 6,4 km/h (2 Bft) 98,00 %
11.11.2018 16:50 8,6 C 10,0 C 3,9 C 89 % 1017,2 hPa 0,0 l/m 5,1 km/h (1 Bft) O-SO 119 0 min 0,000 mm 0,0 UV-I 0 W/m 6,9 C 8,6 C 6,4 km/h (2 Bft) 93,62 %
11.11.2018 16:52 8,6 C 10,0 C 3,9 C 90 % 1017,2 hPa 0,0 l/m 4,4 km/h (1 Bft) O-SO 117 0 min 0,000 mm 0,0 UV-I 0 W/m 7,1 C 8,6 C 6,4 km/h (2 Bft) 95,74 %
11.11.2018 16:54 8,7 C 10,0 C 4,4 C 90 % 1017,3 hPa 0,0 l/m 3,5 km/h (1 Bft) O-SO 117 0 min 0,000 mm 0,0 UV-I 0 W/m 7,2 C 8,7 C 4,8 km/h (1 Bft) 97,14 %
11.11.2018 16:56 8,8 C 10,0 C 4,4 C 90 % 1017,3 hPa 0,0 l/m 5,7 km/h (1 Bft) O-SO 104 0 min 0,000 mm 0,0 UV-I 0 W/m 7,3 C 8,8 C 9,7 km/h (2 Bft) 98,04 %
11.11.2018 16:58 8,8 C 10,0 C 4,4 C 90 % 1017,3 hPa 0,0 l/m 5,0 km/h (1 Bft) O-SO 104 0 min 0,000 mm 0,0 UV-I 0 W/m 7,3 C 8,8 C 6,4 km/h (2 Bft) 91,49 %
11.11.2018 17:00 8,9 C 10,0 C 5,0 C 90 % 1017,2 hPa 0,0 l/m 5,6 km/h (1 Bft) O 94 0 min 0,025 mm 0,0 UV-I 0 W/m 7,4 C 8,9 C 9,7 km/h (2 Bft) 95,74 %
11.11.2018 17:02 9,1 C 10,0 C 5,6 C 89 % 1017,1 hPa 0,0 l/m 6,1 km/h (2 Bft) O-SO 105 0 min 0,000 mm 0,0 UV-I 0 W/m 7,4 C 9,1 C 11,3 km/h (2 Bft) 97,87 %
11.11.2018 17:04 9,1 C 10,0 C 5,6 C 89 % 1017,1 hPa 0,0 l/m 5,3 km/h (1 Bft) O 79 0 min 0,000 mm 0,0 UV-I 0 W/m 7,4 C 9,1 C 6,4 km/h (2 Bft) 95,74 %
11.11.2018 17:06 9,1 C 10,0 C 5,6 C 89 % 1017,2 hPa 0,0 l/m 3,8 km/h (1 Bft) O 94 0 min 0,000 mm 0,0 UV-I 0 W/m 7,4 C 9,1 C 8,0 km/h (2 Bft) 97,87 %
11.11.2018 17:08 9,1 C 10,0 C 5,6 C 88 % 1017,3 hPa 0,0 l/m 3,7 km/h (1 Bft) O 94 0 min 0,000 mm 0,0 UV-I 0 W/m 7,2 C 9,1 C 4,8 km/h (1 Bft) 97,87 %
11.11.2018 17:10 8,9 C 10,0 C 5,0 C 88 % 1017,3 hPa 0,0 l/m 3,8 km/h (1 Bft) O 94 0 min 0,000 mm 0,0 UV-I 0 W/m 7,0 C 8,9 C 4,8 km/h (1 Bft) 100,00 %
11.11.2018 17:12 8,9 C 10,0 C 5,0 C 88 % 1017,4 hPa 0,0 l/m 3,9 km/h (1 Bft) O 93 0 min 0,000 mm 0,0 UV-I 0 W/m 7,0 C 8,9 C 4,8 km/h (1 Bft) 93,62 %
11.11.2018 17:14 8,8 C 10,0 C 5,0 C 89 % 1017,3 hPa 0,0 l/m 4,4 km/h (1 Bft) O 89 0 min 0,000 mm 0,0 UV-I 0 W/m 7,1 C 8,8 C 9,7 km/h (2 Bft) 100,00 %
11.11.2018 17:16 8,7 C 10,0 C 5,0 C 89 % 1017,4 hPa 0,0 l/m 5,2 km/h (1 Bft) O 94 0 min 0,000 mm 0,0 UV-I 0 W/m 7,0 C 8,7 C 9,7 km/h (2 Bft) 97,92 %
11.11.2018 17:18 8,4 C 10,0 C 4,4 C 89 % 1017,4 hPa 0,0 l/m 4,5 km/h (1 Bft) O-SO 103 0 min 0,000 mm 0,0 UV-I 0 W/m 6,7 C 8,4 C 6,4 km/h (2 Bft) 100,00 %
11.11.2018 17:20 8,4 C 10,0 C 4,4 C 90 % 1017,5 hPa 0,0 l/m 4,0 km/h (1 Bft) O 96 0 min 0,000 mm 0,0 UV-I 0 W/m 6,9 C 8,4 C 6,4 km/h (2 Bft) 100,00 %
11.11.2018 17:22 8,3 C 10,0 C 4,4 C 90 % 1017,6 hPa 0,0 l/m 3,7 km/h (1 Bft) O 98 0 min 0,000 mm 0,0 UV-I 0 W/m 6,8 C 8,3 C 4,8 km/h (1 Bft) 100,00 %
11.11.2018 17:24 8,3 C 10,0 C 4,4 C 90 % 1017,5 hPa 0,0 l/m 3,9 km/h (1 Bft) O 98 0 min 0,000 mm 0,0 UV-I 0 W/m 6,8 C 8,3 C 4,8 km/h (1 Bft) 95,74 %
11.11.2018 17:26 8,3 C 10,0 C 5,0 C 90 % 1017,5 hPa 0,0 l/m 3,4 km/h (1 Bft) O 98 0 min 0,000 mm 0,0 UV-I 0 W/m 6,8 C 8,3 C 4,8 km/h (1 Bft) 97,87 %
11.11.2018 17:28 8,4 C 10,0 C 4,4 C 90 % 1017,5 hPa 0,0 l/m 2,5 km/h (1 Bft) O 98 0 min 0,000 mm 0,0 UV-I 0 W/m 6,9 C 8,4 C 4,8 km/h (1 Bft) 98,00 %
11.11.2018 17:30 8,3 C 10,0 C 3,9 C 90 % 1017,5 hPa 0,0 l/m 2,0 km/h (1 Bft) O 98 0 min 0,000 mm 0,0 UV-I 0 W/m 6,8 C 8,3 C 3,2 km/h (1 Bft) 95,74 %
11.11.2018 17:32 8,3 C 10,0 C 3,9 C 90 % 1017,5 hPa 0,0 l/m 2,0 km/h (1 Bft) O 98 0 min 0,000 mm 0,0 UV-I 0 W/m 6,8 C 8,3 C 3,2 km/h (1 Bft) 97,37 %
11.11.2018 17:34 8,3 C 10,0 C 3,9 C 90 % 1017,5 hPa 0,0 l/m 2,7 km/h (1 Bft) O 98 0 min 0,000 mm 0,0 UV-I 0 W/m 6,8 C 8,3 C 4,8 km/h (1 Bft) 95,74 %
11.11.2018 17:36 8,3 C 10,0 C 3,9 C 90 % 1017,5 hPa 0,0 l/m 4,8 km/h (1 Bft) O 99 0 min 0,000 mm 0,0 UV-I 0 W/m 6,8 C 8,3 C 6,4 km/h (2 Bft) 93,62 %
11.11.2018 17:38 8,2 C 10,0 C 3,3 C 90 % 1017,5 hPa 0,0 l/m 4,3 km/h (1 Bft) O-SO 103 0 min 0,000 mm 0,0 UV-I 0 W/m 6,7 C 8,2 C 4,8 km/h (1 Bft) 94,00 %
11.11.2018 17:40 8,1 C 10,0 C 3,3 C 91 % 1017,6 hPa 0,0 l/m 5,9 km/h (2 Bft) O-SO 105 0 min 0,000 mm 0,0 UV-I 0 W/m 6,7 C 8,1 C 9,7 km/h (2 Bft) 91,49 %
11.11.2018 17:42 8,1 C 10,0 C 3,9 C 91 % 1017,6 hPa 0,0 l/m 3,8 km/h (1 Bft) O 101 0 min 0,000 mm 0,0 UV-I 0 W/m 6,7 C 8,1 C 4,8 km/h (1 Bft) 95,74 %
11.11.2018 17:44 8,1 C 10,0 C 3,9 C 91 % 1017,6 hPa 0,0 l/m 2,8 km/h (1 Bft) O 101 0 min 0,000 mm 0,0 UV-I 0 W/m 6,7 C 8,1 C 4,8 km/h (1 Bft) 95,74 %
11.11.2018 17:46 8,1 C 10,0 C 3,9 C 91 % 1017,7 hPa 0,0 l/m 2,6 km/h (1 Bft) O 101 0 min 0,000 mm 0,0 UV-I 0 W/m 6,7 C 8,1 C 4,8 km/h (1 Bft) 96,00 %
11.11.2018 17:48 8,0 C 10,0 C 3,9 C 91 % 1017,7 hPa 0,0 l/m 3,3 km/h (1 Bft) O 101 0 min 0,000 mm 0,0 UV-I 0 W/m 6,6 C 8,0 C 4,8 km/h (1 Bft) 97,87 %
11.11.2018 17:50 7,9 C 10,0 C 3,9 C 91 % 1017,7 hPa 0,0 l/m 5,1 km/h (1 Bft) O 93 0 min 0,000 mm 0,0 UV-I 0 W/m 6,5 C 7,9 C 6,4 km/h (2 Bft) 97,87 %
11.11.2018 17:52 7,9 C 10,0 C 3,9 C 92 % 1017,6 hPa 0,0 l/m 5,3 km/h (1 Bft) O-SO 113 0 min 0,000 mm 0,0 UV-I 0 W/m 6,7 C 7,9 C 9,7 km/h (2 Bft) 97,87 %
11.11.2018 17:54 7,9 C 10,0 C 3,9 C 92 % 1017,6 hPa 0,0 l/m 4,5 km/h (1 Bft) O-SO 104 0 min 0,000 mm 0,0 UV-I 0 W/m 6,7 C 7,9 C 6,4 km/h (2 Bft) 95,74 %
11.11.2018 17:56 8,1 C 10,0 C 3,9 C 92 % 1017,6 hPa 0,0 l/m 4,6 km/h (1 Bft) O-SO 107 0 min 0,000 mm 0,0 UV-I 0 W/m 6,9 C 8,1 C 6,4 km/h (2 Bft) 94,87 %
11.11.2018 17:58 8,1 C 10,0 C 4,4 C 92 % 1017,6 hPa 0,0 l/m 3,7 km/h (1 Bft) O-SO 107 0 min 0,000 mm 0,0 UV-I 0 W/m 6,9 C 8,1 C 6,4 km/h (2 Bft) 95,74 %
11.11.2018 18:00 8,1 C 10,0 C 4,4 C 92 % 1017,6 hPa 0,0 l/m 2,1 km/h (1 Bft) O-SO 107 0 min 0,000 mm 0,0 UV-I 0 W/m 6,9 C 8,1 C 3,2 km/h (1 Bft) 95,74 %
11.11.2018 18:02 8,1 C 10,0 C 3,9 C 92 % 1017,5 hPa 0,0 l/m 2,4 km/h (1 Bft) O-SO 107 0 min 0,000 mm 0,0 UV-I 0 W/m 6,9 C 8,1 C 3,2 km/h (1 Bft) 95,74 %
11.11.2018 18:04 8,1 C 10,0 C 3,9 C 92 % 1017,4 hPa 0,0 l/m 4,6 km/h (1 Bft) O-SO 107 0 min 0,000 mm 0,0 UV-I 0 W/m 6,9 C 8,1 C 6,4 km/h (2 Bft) 97,87 %
11.11.2018 18:06 8,1 C 10,0 C 4,4 C 92 % 1017,4 hPa 0,0 l/m 6,4 km/h (2 Bft) O 98 0 min 0,000 mm 0,0 UV-I 0 W/m 6,9 C 8,1 C 9,7 km/h (2 Bft) 97,87 %
11.11.2018 18:08 8,1 C 10,0 C 4,4 C 91 % 1017,5 hPa 0,0 l/m 6,3 km/h (2 Bft) O 94 0 min 0,000 mm 0,0 UV-I 0 W/m 6,7 C 8,1 C 11,3 km/h (2 Bft) 98,00 %
11.11.2018 18:10 8,1 C 10,0 C 4,4 C 92 % 1017,5 hPa 0,0 l/m 5,1 km/h (1 Bft) SO 126 0 min 0,000 mm 0,0 UV-I 0 W/m 6,9 C 8,1 C 9,7 km/h (2 Bft) 97,87 %
11.11.2018 18:12 8,0 C 10,0 C 3,9 C 91 % 1017,6 hPa 0,0 l/m 4,7 km/h (1 Bft) O 100 0 min 0,000 mm 0,0 UV-I 0 W/m 6,6 C 8,0 C 9,7 km/h (2 Bft) 98,00 %
11.11.2018 18:14 7,9 C 10,0 C 3,9 C 92 % 1017,6 hPa 0,0 l/m 4,2 km/h (1 Bft) O 97 0 min 0,000 mm 0,0 UV-I 0 W/m 6,7 C 7,9 C 9,7 km/h (2 Bft) 100,00 %
11.11.2018 18:16 8,0 C 10,0 C 3,9 C 92 % 1017,6 hPa 0,0 l/m 3,6 km/h (1 Bft) O-SO 123 0 min 0,000 mm 0,0 UV-I 0 W/m 6,8 C 8,0 C 8,0 km/h (2 Bft) 100,00 %
11.11.2018 18:18 8,0 C 10,0 C 3,9 C 92 % 1017,7 hPa 0,0 l/m 4,6 km/h (1 Bft) O-SO 105 0 min 0,000 mm 0,0 UV-I 0 W/m 6,8 C 8,0 C 6,4 km/h (2 Bft) 100,00 %
11.11.2018 18:20 8,1 C 10,0 C 3,9 C 92 % 1017,7 hPa 0,0 l/m 4,5 km/h (1 Bft) O-SO 107 0 min 0,000 mm 0,0 UV-I 0 W/m 6,9 C 8,1 C 6,4 km/h (2 Bft) 100,00 %
11.11.2018 18:22 8,1 C 10,0 C 3,9 C 92 % 1017,7 hPa 0,0 l/m 4,5 km/h (1 Bft) O-SO 107 0 min 0,000 mm 0,0 UV-I 0 W/m 6,9 C 8,1 C 6,4 km/h (2 Bft) 100,00 %
11.11.2018 18:24 8,1 C 10,0 C 3,9 C 92 % 1017,6 hPa 0,0 l/m 4,3 km/h (1 Bft) O-SO 103 0 min 0,000 mm 0,0 UV-I 0 W/m 6,9 C 8,1 C 6,4 km/h (2 Bft) 100,00 %
11.11.2018 18:26 8,1 C 10,0 C 3,9 C 92 % 1017,6 hPa 0,0 l/m 3,9 km/h (1 Bft) O-SO 103 0 min 0,000 mm 0,0 UV-I 0 W/m 6,9 C 8,1 C 4,8 km/h (1 Bft) 100,00 %
11.11.2018 18:28 8,0 C 10,0 C 3,9 C 92 % 1017,5 hPa 0,0 l/m 3,1 km/h (1 Bft) O-SO 103 0 min 0,000 mm 0,0 UV-I 0 W/m 6,8 C 8,0 C 4,8 km/h (1 Bft) 100,00 %
11.11.2018 18:30 7,9 C 10,0 C 3,3 C 92 % 1017,5 hPa 0,0 l/m 3,1 km/h (1 Bft) O-SO 103 0 min 0,000 mm 0,0 UV-I 0 W/m 6,7 C 7,9 C 4,8 km/h (1 Bft) 98,00 %
11.11.2018 18:32 7,9 C 10,0 C 2,8 C 92 % 1017,5 hPa 0,0 l/m 2,4 km/h (1 Bft) O-SO 103 0 min 0,000 mm 0,0 UV-I 0 W/m 6,7 C 7,9 C 3,2 km/h (1 Bft) 100,00 %
11.11.2018 18:34 7,8 C 10,0 C 2,8 C 92 % 1017,4 hPa 0,0 l/m 1,8 km/h (1 Bft) O-SO 103 0 min 0,000 mm 0,0 UV-I 0 W/m 6,6 C 7,8 C 3,2 km/h (1 Bft) 96,00 %
11.11.2018 18:36 7,8 C 10,0 C 2,2 C 92 % 1017,4 hPa 0,0 l/m 1,8 km/h (1 Bft) O-SO 103 0 min 0,000 mm 0,0 UV-I 0 W/m 6,6 C 7,8 C 3,2 km/h (1 Bft) 97,87 %
11.11.2018 18:38 7,7 C 10,0 C 2,2 C 92 % 1017,4 hPa 0,0 l/m 2,0 km/h (1 Bft) O-SO 103 0 min 0,000 mm 0,0 UV-I 0 W/m 6,5 C 7,7 C 3,2 km/h (1 Bft) 100,00 %
11.11.2018 18:40 7,6 C 10,0 C 2,2 C 92 % 1017,4 hPa 0,0 l/m 1,9 km/h (1 Bft) O-SO 103 0 min 0,000 mm 0,0 UV-I 0 W/m 6,4 C 7,6 C 3,2 km/h (1 Bft) 100,00 %
11.11.2018 18:42 7,6 C 10,0 C 1,7 C 92 % 1017,4 hPa 0,0 l/m 2,4 km/h (1 Bft) O-SO 103 0 min 0,000 mm 0,0 UV-I 0 W/m 6,4 C 7,6 C 3,2 km/h (1 Bft) 97,87 %
11.11.2018 18:44 7,5 C 10,0 C 1,7 C 92 % 1017,3 hPa 0,0 l/m 2,4 km/h (1 Bft) O-SO 103 0 min 0,000 mm 0,0 UV-I 0 W/m 6,3 C 7,5 C 3,2 km/h (1 Bft) 95,74 %
11.11.2018 18:46 7,4 C 10,0 C 1,7 C 93 % 1017,3 hPa 0,0 l/m 2,6 km/h (1 Bft) O-SO 103 0 min 0,000 mm 0,0 UV-I 0 W/m 6,3 C 7,4 C 3,2 km/h (1 Bft) 95,74 %
11.11.2018 18:48 7,4 C 10,0 C 1,7 C 92 % 1017,1 hPa 0,0 l/m 2,4 km/h (1 Bft) O-SO 103 0 min 0,000 mm 0,0 UV-I 0 W/m 6,2 C 7,4 C 3,2 km/h (1 Bft) 97,87 %
11.11.2018 18:50 7,3 C 10,0 C 1,7 C 93 % 1017,1 hPa 0,0 l/m 3,1 km/h (1 Bft) O-SO 103 0 min 0,000 mm 0,0 UV-I 0 W/m 6,2 C 7,3 C 4,8 km/h (1 Bft) 97,87 %
11.11.2018 18:52 7,3 C 10,0 C 1,7 C 93 % 1017,0 hPa 0,0 l/m 2,7 km/h (1 Bft) O-SO 103 0 min 0,000 mm 0,0 UV-I 0 W/m 6,2 C 7,3 C 3,2 km/h (1 Bft) 95,74 %
11.11.2018 18:54 7,2 C 10,0 C 1,7 C 93 % 1017,0 hPa 0,0 l/m 2,9 km/h (1 Bft) O-SO 103 0 min 0,000 mm 0,0 UV-I 0 W/m 6,1 C 7,2 C 4,8 km/h (1 Bft) 98,00 %
11.11.2018 18:56 7,2 C 10,0 C 1,7 C 93 % 1017,0 hPa 0,0 l/m 2,4 km/h (1 Bft) O-SO 103 0 min 0,000 mm 0,0 UV-I 0 W/m 6,1 C 7,2 C 3,2 km/h (1 Bft) 97,87 %
11.11.2018 18:58 7,1 C 10,0 C 1,1 C 93 % 1017,0 hPa 0,0 l/m 3,5 km/h (1 Bft) O-SO 103 0 min 0,000 mm 0,0 UV-I 0 W/m 6,0 C 7,1 C 4,8 km/h (1 Bft) 94,00 %
11.11.2018 19:00 7,0 C 10,0 C 2,2 C 93 % 1016,9 hPa 0,0 l/m 3,5 km/h (1 Bft) O-SO 103 0 min 0,000 mm 0,0 UV-I 0 W/m 5,9 C 7,0 C 4,8 km/h (1 Bft) 97,14 %
11.11.2018 19:02 6,9 C 10,0 C 2,8 C 93 % 1016,9 hPa 0,0 l/m 3,9 km/h (1 Bft) O 79 0 min 0,000 mm 0,0 UV-I 0 W/m 5,8 C 6,9 C 6,4 km/h (2 Bft) 97,87 %
11.11.2018 19:04 6,8 C 10,0 C 3,9 C 93 % 1016,9 hPa 0,0 l/m 3,1 km/h (1 Bft) NO 52 0 min 0,000 mm 0,0 UV-I 0 W/m 5,7 C 6,8 C 4,8 km/h (1 Bft) 97,92 %
11.11.2018 19:06 6,7 C 10,0 C 3,9 C 94 % 1016,9 hPa 0,0 l/m 5,1 km/h (1 Bft) NO 49 0 min 0,000 mm 0,0 UV-I 0 W/m 5,8 C 6,7 C 6,4 km/h (2 Bft) 100,00 %
11.11.2018 19:08 6,6 C 10,0 C 3,9 C 94 % 1016,9 hPa 0,0 l/m 5,1 km/h (1 Bft) NO 45 0 min 0,000 mm 0,0 UV-I 0 W/m 5,7 C 6,6 C 6,4 km/h (2 Bft) 100,00 %
11.11.2018 19:10 6,6 C 10,0 C 3,9 C 94 % 1016,9 hPa 0,0 l/m 5,8 km/h (2 Bft) NO 51 0 min 0,000 mm 0,0 UV-I 0 W/m 5,7 C 6,6 C 8,0 km/h (2 Bft) 100,00 %
11.11.2018 19:12 6,7 C 10,0 C 4,4 C 94 % 1016,9 hPa 0,0 l/m 5,0 km/h (1 Bft) O-NO 67 0 min 0,000 mm 0,0 UV-I 0 W/m 5,8 C 6,7 C 8,0 km/h (2 Bft) 97,87 %
11.11.2018 19:14 6,6 C 10,0 C 4,4 C 94 % 1016,8 hPa 0,0 l/m 4,6 km/h (1 Bft) O-NO 63 0 min 0,000 mm 0,0 UV-I 0 W/m 5,7 C 6,6 C 6,4 km/h (2 Bft) 97,87 %
11.11.2018 19:16 6,6 C 10,0 C 4,4 C 94 % 1016,9 hPa 0,0 l/m 4,7 km/h (1 Bft) NO 55 0 min 0,000 mm 0,0 UV-I 0 W/m 5,7 C 6,6 C 6,4 km/h (2 Bft) 100,00 %
11.11.2018 19:18 6,4 C 10,0 C 3,9 C 94 % 1016,8 hPa 0,0 l/m 4,2 km/h (1 Bft) NO 55 0 min 0,000 mm 0,0 UV-I 0 W/m 5,5 C 6,4 C 6,4 km/h (2 Bft) 100,00 %
11.11.2018 19:20 6,3 C 10,0 C 3,9 C 94 % 1016,7 hPa 0,0 l/m 4,9 km/h (1 Bft) NO 49 0 min 0,000 mm 0,0 UV-I 0 W/m 5,4 C 6,3 C 8,0 km/h (2 Bft) 98,00 %
11.11.2018 19:22 6,2 C 10,0 C 3,9 C 94 % 1016,6 hPa 0,0 l/m 5,7 km/h (1 Bft) NO 52 0 min 0,000 mm 0,0 UV-I 0 W/m 5,3 C 6,2 C 6,4 km/h (2 Bft) 100,00 %
11.11.2018 19:24 6,2 C 10,0 C 3,9 C 94 % 1016,6 hPa 0,0 l/m 4,9 km/h (1 Bft) O-NO 62 0 min 0,000 mm 0,0 UV-I 0 W/m 5,3 C 6,2 C 6,4 km/h (2 Bft) 100,00 %
11.11.2018 19:26 6,2 C 10,0 C 3,9 C 95 % 1016,6 hPa 0,0 l/m 5,5 km/h (1 Bft) NO 50 0 min 0,000 mm 0,0 UV-I 0 W/m 5,5 C 6,2 C 8,0 km/h (2 Bft) 100,00 %
11.11.2018 19:28 6,2 C 10,0 C 3,9 C 95 % 1016,8 hPa 0,0 l/m 6,3 km/h (2 Bft) NO 39 0 min 0,000 mm 0,0 UV-I 0 W/m 5,5 C 6,2 C 9,7 km/h (2 Bft) 100,00 %
11.11.2018 19:30 6,2 C 10,0 C 4,4 C 95 % 1016,9 hPa 0,0 l/m 6,0 km/h (2 Bft) N-NO 26 0 min 0,000 mm 0,0 UV-I 0 W/m 5,5 C 6,2 C 8,0 km/h (2 Bft) 100,00 %
11.11.2018 19:32 6,0 C 10,0 C 4,4 C 94 % 1016,9 hPa 0,0 l/m 6,3 km/h (2 Bft) N-NO 24 0 min 0,000 mm 0,0 UV-I 0 W/m 5,1 C 6,0 C 8,0 km/h (2 Bft) 100,00 %
11.11.2018 19:34 6,0 C 10,0 C 4,4 C 95 % 1017,0 hPa 0,0 l/m 5,9 km/h (2 Bft) N-NO 27 0 min 0,000 mm 0,0 UV-I 0 W/m 5,3 C 6,0 C 8,0 km/h (2 Bft) 97,87 %
11.11.2018 19:36 6,1 C 10,0 C 4,4 C 95 % 1017,1 hPa 0,0 l/m 7,0 km/h (2 Bft) NO 44 0 min 0,000 mm 0,0 UV-I 0 W/m 5,4 C 5,6 C 8,0 km/h (2 Bft) 97,87 %
11.11.2018 19:38 6,3 C 10,0 C 4,4 C 95 % 1017,1 hPa 0,0 l/m 6,4 km/h (2 Bft) NO 42 0 min 0,000 mm 0,0 UV-I 0 W/m 5,6 C 6,3 C 8,0 km/h (2 Bft) 100,00 %
11.11.2018 19:40 6,3 C 10,0 C 4,4 C 95 % 1017,1 hPa 0,0 l/m 6,8 km/h (2 Bft) NO 39 0 min 0,000 mm 0,0 UV-I 0 W/m 5,6 C 6,0 C 9,7 km/h (2 Bft) 100,00 %
11.11.2018 19:42 6,4 C 10,0 C 4,4 C 95 % 1017,1 hPa 0,0 l/m 7,2 km/h (2 Bft) NO 40 0 min 0,000 mm 0,0 UV-I 0 W/m 5,7 C 5,7 C 9,7 km/h (2 Bft) 95,74 %
11.11.2018 19:44 6,4 C 10,0 C 4,4 C 95 % 1017,2 hPa 0,0 l/m 6,5 km/h (2 Bft) NO 43 0 min 0,000 mm 0,0 UV-I 0 W/m 5,7 C 6,3 C 9,7 km/h (2 Bft) 95,74 %
11.11.2018 19:46 6,4 C 10,0 C 4,4 C 95 % 1017,1 hPa 0,0 l/m 5,8 km/h (2 Bft) NO 56 0 min 0,000 mm 0,0 UV-I 0 W/m 5,7 C 6,4 C 9,7 km/h (2 Bft) 91,49 %
11.11.2018 19:49 6,4 C 10,0 C 3,9 C 95 % 1017,0 hPa 0,0 l/m 6,8 km/h (2 Bft) NO 53 0 min 0,000 mm 0,0 UV-I 0 W/m 5,7 C 6,1 C 12,9 km/h (3 Bft) 94,92 %
11.11.2018 19:50 6,4 C 10,0 C 3,9 C 95 % 1017,0 hPa 0,0 l/m 5,2 km/h (1 Bft) O-NO 67 0 min 0,000 mm 0,0 UV-I 0 W/m 5,7 C 6,4 C 8,0 km/h (2 Bft) 89,19 %
11.11.2018 19:52 6,6 C 10,0 C 4,4 C 95 % 1017,0 hPa 0,0 l/m 6,6 km/h (2 Bft) O-NO 74 0 min 0,000 mm 0,0 UV-I 0 W/m 5,9 C 6,5 C 12,9 km/h (3 Bft) 95,74 %
11.11.2018 19:54 6,6 C 10,0 C 4,4 C 95 % 1017,0 hPa 0,0 l/m 6,0 km/h (2 Bft) NO 51 0 min 0,000 mm 0,0 UV-I 0 W/m 5,9 C 6,6 C 8,0 km/h (2 Bft) 95,74 %
11.11.2018 19:56 6,4 C 10,0 C 4,4 C 95 % 1017,1 hPa 0,0 l/m 7,2 km/h (2 Bft) NO 40 0 min 0,000 mm 0,0 UV-I 0 W/m 5,7 C 5,7 C 14,5 km/h (3 Bft) 93,62 %
11.11.2018 19:58 6,4 C 10,0 C 4,4 C 95 % 1017,0 hPa 0,0 l/m 7,4 km/h (2 Bft) NO 40 0 min 0,000 mm 0,0 UV-I 0 W/m 5,7 C 5,6 C 9,7 km/h (2 Bft) 92,11 %
11.11.2018 20:00 6,3 C 10,0 C 4,4 C 95 % 1017,0 hPa 0,0 l/m 7,2 km/h (2 Bft) NO 42 0 min 0,000 mm 0,0 UV-I 0 W/m 5,6 C 5,6 C 8,0 km/h (2 Bft) 93,62 %
11.11.2018 20:02 6,4 C 10,0 C 5,0 C 95 % 1017,0 hPa 0,0 l/m 7,2 km/h (2 Bft) N-NO 32 0 min 0,000 mm 0,0 UV-I 0 W/m 5,7 C 5,7 C 12,9 km/h (3 Bft) 93,62 %
11.11.2018 20:04 6,5 C 10,0 C 5,0 C 96 % 1017,0 hPa 0,0 l/m 7,7 km/h (2 Bft) NO 40 0 min 0,000 mm 0,0 UV-I 0 W/m 5,9 C 5,4 C 11,3 km/h (2 Bft) 91,49 %
11.11.2018 20:06 6,6 C 10,0 C 5,0 C 95 % 1016,9 hPa 0,0 l/m 7,0 km/h (2 Bft) NO 43 0 min 0,000 mm 0,0 UV-I 0 W/m 5,9 C 6,1 C 8,0 km/h (2 Bft) 91,49 %
11.11.2018 20:08 6,6 C 10,0 C 5,6 C 95 % 1017,0 hPa 0,0 l/m 6,7 km/h (2 Bft) NO 35 0 min 0,000 mm 0,0 UV-I 0 W/m 5,9 C 6,4 C 8,0 km/h (2 Bft) 91,49 %
11.11.2018 20:10 6,7 C 10,0 C 5,6 C 96 % 1017,0 hPa 0,0 l/m 6,3 km/h (2 Bft) NO 55 0 min 0,000 mm 0,0 UV-I 0 W/m 6,1 C 6,7 C 8,0 km/h (2 Bft) 93,62 %
11.11.2018 20:12 6,7 C 10,0 C 5,6 C 96 % 1017,1 hPa 0,0 l/m 4,7 km/h (1 Bft) NO 48 0 min 0,000 mm 0,0 UV-I 0 W/m 6,1 C 6,7 C 6,4 km/h (2 Bft) 93,62 %
11.11.2018 20:14 6,7 C 10,0 C 5,6 C 96 % 1017,1 hPa 0,0 l/m 5,4 km/h (1 Bft) NO 45 0 min 0,000 mm 0,0 UV-I 0 W/m 6,1 C 6,7 C 8,0 km/h (2 Bft) 91,49 %
11.11.2018 20:16 6,7 C 10,0 C 5,6 C 95 % 1017,2 hPa 0,0 l/m 4,8 km/h (1 Bft) NO 45 0 min 0,000 mm 0,0 UV-I 0 W/m 6,0 C 6,7 C 6,4 km/h (2 Bft) 91,49 %
11.11.2018 20:19 6,6 C 10,0 C 6,1 C 95 % 1017,4 hPa 0,0 l/m 3,7 km/h (1 Bft) N-NO 25 0 min 0,000 mm 0,0 UV-I 0 W/m 5,9 C 6,6 C 6,4 km/h (2 Bft) 91,89 %
11.11.2018 20:20 6,6 C 10,0 C 6,1 C 95 % 1017,4 hPa 0,0 l/m 4,2 km/h (1 Bft) N-NO 26 0 min 0,000 mm 0,0 UV-I 0 W/m 5,9 C 6,6 C 4,8 km/h (1 Bft) 100,00 %
11.11.2018 20:22 6,7 C 10,0 C 6,1 C 96 % 1017,5 hPa 0,0 l/m 4,2 km/h (1 Bft) N-NO 26 0 min 0,000 mm 0,0 UV-I 0 W/m 6,1 C 6,7 C 6,4 km/h (2 Bft) 97,87 %
11.11.2018 20:24 6,8 C 10,0 C 6,7 C 96 % 1017,6 hPa 0,0 l/m 3,9 km/h (1 Bft) N 11 0 min 0,000 mm 0,0 UV-I 0 W/m 6,2 C 6,8 C 6,4 km/h (2 Bft) 97,44 %
11.11.2018 20:26 6,8 C 10,0 C 6,7 C 96 % 1017,7 hPa 0,0 l/m 2,6 km/h (1 Bft) N 11 0 min 0,000 mm 0,0 UV-I 0 W/m 6,2 C 6,8 C 4,8 km/h (1 Bft) 94,00 %
11.11.2018 20:28 6,8 C 10,0 C 6,7 C 96 % 1017,7 hPa 0,0 l/m 2,7 km/h (1 Bft) N-NO 27 0 min 0,000 mm 0,0 UV-I 0 W/m 6,2 C 6,8 C 4,8 km/h (1 Bft) 97,87 %
11.11.2018 20:30 7,0 C 10,0 C 6,7 C 96 % 1017,8 hPa 0,0 l/m 4,2 km/h (1 Bft) NO 42 0 min 0,000 mm 0,0 UV-I 0 W/m 6,4 C 7,0 C 6,4 km/h (2 Bft) 98,00 %
11.11.2018 20:32 7,1 C 10,0 C 6,7 C 96 % 1017,9 hPa 0,0 l/m 4,4 km/h (1 Bft) NO 41 0 min 0,000 mm 0,0 UV-I 0 W/m 6,5 C 7,1 C 6,4 km/h (2 Bft) 93,62 %
11.11.2018 20:34 7,1 C 10,0 C 7,2 C 96 % 1017,9 hPa 0,0 l/m 3,7 km/h (1 Bft) NO 41 0 min 0,000 mm 0,0 UV-I 0 W/m 6,5 C 7,1 C 6,4 km/h (2 Bft) 97,87 %
11.11.2018 20:36 7,2 C 10,0 C 7,2 C 96 % 1018,0 hPa 0,0 l/m 4,5 km/h (1 Bft) NO 34 0 min 0,000 mm 0,0 UV-I 0 W/m 6,6 C 7,2 C 6,4 km/h (2 Bft) 97,87 %
11.11.2018 20:39 7,3 C 10,0 C 7,2 C 96 % 1018,0 hPa 0,0 l/m 4,3 km/h (1 Bft) NO 40 0 min 0,000 mm 0,0 UV-I 0 W/m 6,7 C 7,3 C 4,8 km/h (1 Bft) 96,05 %
11.11.2018 20:40 7,3 C 10,0 C 7,2 C 96 % 1018,0 hPa 0,0 l/m 3,5 km/h (1 Bft) NO 42 0 min 0,000 mm 0,0 UV-I 0 W/m 6,7 C 7,3 C 4,8 km/h (1 Bft) 100,00 %
11.11.2018 20:42 7,3 C 10,0 C 7,2 C 96 % 1017,9 hPa 0,0 l/m 4,6 km/h (1 Bft) O-NO 63 0 min 0,000 mm 0,0 UV-I 0 W/m 6,7 C 7,3 C 6,4 km/h (2 Bft) 95,74 %
11.11.2018 20:44 7,4 C 10,0 C 7,2 C 96 % 1017,9 hPa 0,0 l/m 6,0 km/h (2 Bft) O-NO 62 0 min 0,000 mm 0,0 UV-I 0 W/m 6,8 C 7,4 C 8,0 km/h (2 Bft) 100,00 %
11.11.2018 20:46 7,4 C 10,0 C 7,2 C 96 % 1017,9 hPa 0,0 l/m 5,7 km/h (1 Bft) O-NO 67 0 min 0,000 mm 0,0 UV-I 0 W/m 6,8 C 7,4 C 8,0 km/h (2 Bft) 100,00 %
11.11.2018 20:48 7,6 C 10,0 C 7,2 C 96 % 1018,0 hPa 0,0 l/m 4,9 km/h (1 Bft) NO 42 0 min 0,000 mm 0,0 UV-I 0 W/m 7,0 C 7,6 C 6,4 km/h (2 Bft) 100,00 %
11.11.2018 20:50 7,6 C 10,0 C 7,8 C 96 % 1018,0 hPa 0,0 l/m 8,2 km/h (2 Bft) O-NO 76 0 min 0,000 mm 0,0 UV-I 0 W/m 7,0 C 6,2 C 14,5 km/h (3 Bft) 100,00 %
11.11.2018 20:52 7,7 C 10,0 C 7,8 C 96 % 1018,0 hPa 0,0 l/m 13,4 km/h (3 Bft) O 90 0 min 0,000 mm 0,0 UV-I 0 W/m 7,1 C 3,1 C 20,9 km/h (4 Bft) 97,87 %
11.11.2018 20:54 7,7 C 10,0 C 7,8 C 96 % 1018,2 hPa 0,0 l/m 15,1 km/h (3 Bft) O 91 0 min 0,000 mm 0,0 UV-I 0 W/m 7,1 C 2,3 C 20,9 km/h (4 Bft) 100,00 %
11.11.2018 20:56 7,8 C 10,0 C 7,8 C 96 % 1018,2 hPa 0,0 l/m 12,7 km/h (3 Bft) O-NO 61 0 min 0,000 mm 0,0 UV-I 0 W/m 7,2 C 3,6 C 16,1 km/h (3 Bft) 100,00 %
11.11.2018 20:58 7,8 C 10,0 C 7,8 C 96 % 1018,3 hPa 0,0 l/m 11,1 km/h (2 Bft) O 98 0 min 0,000 mm 0,0 UV-I 0 W/m 7,2 C 4,5 C 16,1 km/h (3 Bft) 100,00 %
11.11.2018 21:00 7,8 C 10,0 C 7,8 C 96 % 1018,3 hPa 0,0 l/m 6,7 km/h (2 Bft) O-SO 103 0 min 0,000 mm 0,0 UV-I 0 W/m 7,2 C 7,6 C 12,9 km/h (3 Bft) 100,00 %
11.11.2018 21:02 7,8 C 10,0 C 7,8 C 96 % 1018,4 hPa 0,0 l/m 6,2 km/h (2 Bft) SO 128 0 min 0,000 mm 0,0 UV-I 0 W/m 7,2 C 7,8 C 9,7 km/h (2 Bft) 97,87 %
11.11.2018 21:04 7,8 C 10,0 C 7,8 C 96 % 1018,4 hPa 0,0 l/m 7,6 km/h (2 Bft) O-NO 63 0 min 0,000 mm 0,0 UV-I 0 W/m 7,2 C 6,8 C 11,3 km/h (2 Bft) 100,00 %
11.11.2018 21:06 7,8 C 10,0 C 7,8 C 96 % 1018,4 hPa 0,0 l/m 9,0 km/h (2 Bft) O 87 0 min 0,000 mm 0,0 UV-I 0 W/m 7,2 C 5,8 C 14,5 km/h (3 Bft) 100,00 %
11.11.2018 21:08 7,8 C 10,0 C 7,8 C 96 % 1018,3 hPa 0,0 l/m 7,4 km/h (2 Bft) O 80 0 min 0,000 mm 0,0 UV-I 0 W/m 7,2 C 7,0 C 11,3 km/h (2 Bft) 100,00 %
11.11.2018 21:10 7,8 C 10,0 C 7,8 C 96 % 1018,4 hPa 0,0 l/m 6,4 km/h (2 Bft) O 84 0 min 0,000 mm 0,0 UV-I 0 W/m 7,2 C 7,8 C 11,3 km/h (2 Bft) 97,87 %
11.11.2018 21:12 7,8 C 10,0 C 7,8 C 96 % 1018,4 hPa 0,0 l/m 6,1 km/h (2 Bft) O 96 0 min 0,000 mm 0,0 UV-I 0 W/m 7,2 C 7,8 C 9,7 km/h (2 Bft) 100,00 %
11.11.2018 21:14 7,8 C 10,0 C 7,8 C 96 % 1018,5 hPa 0,0 l/m 4,2 km/h (1 Bft) O-SO 110 0 min 0,000 mm 0,0 UV-I 0 W/m 7,2 C 7,8 C 8,0 km/h (2 Bft) 100,00 %
11.11.2018 21:16 7,8 C 10,0 C 7,8 C 96 % 1018,5 hPa 0,0 l/m 3,6 km/h (1 Bft) O 86 0 min 0,000 mm 0,0 UV-I 0 W/m 7,2 C 7,8 C 6,4 km/h (2 Bft) 100,00 %
11.11.2018 21:18 7,8 C 10,0 C 7,8 C 96 % 1018,5 hPa 0,0 l/m 3,3 km/h (1 Bft) SO 128 0 min 0,000 mm 0,0 UV-I 0 W/m 7,2 C 7,8 C 4,8 km/h (1 Bft) 97,87 %
11.11.2018 21:20 7,8 C 10,0 C 7,8 C 96 % 1018,5 hPa 0,0 l/m 3,0 km/h (1 Bft) SO 127 0 min 0,000 mm 0,0 UV-I 0 W/m 7,2 C 7,8 C 6,4 km/h (2 Bft) 97,87 %
11.11.2018 21:22 7,8 C 10,0 C 7,8 C 96 % 1018,4 hPa 0,0 l/m 4,2 km/h (1 Bft) SO 128 0 min 0,000 mm 0,0 UV-I 0 W/m 7,2 C 7,8 C 6,4 km/h (2 Bft) 97,37 %
11.11.2018 21:24 7,9 C 10,0 C 7,8 C 96 % 1018,4 hPa 0,0 l/m 3,8 km/h (1 Bft) SO 139 0 min 0,000 mm 0,0 UV-I 0 W/m 7,3 C 7,9 C 6,4 km/h (2 Bft) 97,87 %
11.11.2018 21:26 7,9 C 10,0 C 7,8 C 96 % 1018,4 hPa 0,0 l/m 6,1 km/h (2 Bft) O-SO 111 0 min 0,000 mm 0,0 UV-I 0 W/m 7,3 C 7,9 C 11,3 km/h (2 Bft) 95,74 %
11.11.2018 21:28 7,9 C 10,0 C 7,8 C 96 % 1018,4 hPa 0,0 l/m 3,5 km/h (1 Bft) O-SO 111 0 min 0,000 mm 0,0 UV-I 0 W/m 7,3 C 7,9 C 6,4 km/h (2 Bft) 95,74 %
11.11.2018 21:30 7,9 C 10,0 C 7,8 C 96 % 1018,4 hPa 0,0 l/m 3,2 km/h (1 Bft) O-SO 111 0 min 0,000 mm 0,0 UV-I 0 W/m 7,3 C 7,9 C 4,8 km/h (1 Bft) 95,74 %
11.11.2018 21:32 7,9 C 10,0 C 7,8 C 96 % 1018,4 hPa 0,0 l/m 3,5 km/h (1 Bft) SO 132 0 min 0,000 mm 0,0 UV-I 0 W/m 7,3 C 7,9 C 4,8 km/h (1 Bft) 97,87 %
11.11.2018 21:34 7,8 C 10,0 C 7,8 C 96 % 1018,3 hPa 0,0 l/m 3,6 km/h (1 Bft) SO 141 0 min 0,000 mm 0,0 UV-I 0 W/m 7,2 C 7,8 C 8,0 km/h (2 Bft) 97,87 %
11.11.2018 21:36 7,8 C 10,0 C 7,8 C 96 % 1018,3 hPa 0,0 l/m 7,2 km/h (2 Bft) O-SO 105 0 min 0,000 mm 0,0 UV-I 0 W/m 7,2 C 7,2 C 11,3 km/h (2 Bft) 95,83 %
11.11.2018 21:38 7,8 C 10,0 C 7,8 C 96 % 1018,2 hPa 0,0 l/m 5,3 km/h (1 Bft) O 91 0 min 0,000 mm 0,0 UV-I 0 W/m 7,2 C 7,8 C 9,7 km/h (2 Bft) 95,74 %
11.11.2018 21:40 7,8 C 10,0 C 7,8 C 96 % 1018,1 hPa 0,0 l/m 8,4 km/h (2 Bft) O-SO 111 0 min 0,000 mm 0,0 UV-I 0 W/m 7,2 C 6,2 C 14,5 km/h (3 Bft) 100,00 %
11.11.2018 21:42 7,8 C 10,0 C 7,8 C 96 % 1018,1 hPa 0,0 l/m 4,2 km/h (1 Bft) O-SO 121 0 min 0,000 mm 0,0 UV-I 0 W/m 7,2 C 7,8 C 11,3 km/h (2 Bft) 98,00 %
11.11.2018 21:44 7,8 C 10,0 C 7,8 C 96 % 1018,2 hPa 0,0 l/m 4,7 km/h (1 Bft) SO 142 0 min 0,000 mm 0,0 UV-I 0 W/m 7,2 C 7,8 C 8,0 km/h (2 Bft) 97,87 %
11.11.2018 21:46 7,8 C 10,0 C 7,8 C 96 % 1018,2 hPa 0,0 l/m 5,6 km/h (1 Bft) S-SO 149 0 min 0,000 mm 0,0 UV-I 0 W/m 7,2 C 7,8 C 8,0 km/h (2 Bft) 97,87 %
11.11.2018 21:48 7,8 C 10,0 C 7,8 C 96 % 1018,2 hPa 0,0 l/m 5,9 km/h (2 Bft) NO 46 0 min 0,000 mm 0,0 UV-I 0 W/m 7,2 C 7,8 C 9,7 km/h (2 Bft) 100,00 %
11.11.2018 21:50 7,8 C 10,0 C 7,8 C 96 % 1018,2 hPa 0,0 l/m 7,8 km/h (2 Bft) O 92 0 min 0,000 mm 0,0 UV-I 0 W/m 7,2 C 6,7 C 11,3 km/h (2 Bft) 100,00 %
11.11.2018 21:52 7,8 C 10,0 C 7,8 C 96 % 1018,2 hPa 0,0 l/m 7,6 km/h (2 Bft) SO 130 0 min 0,000 mm 0,0 UV-I 0 W/m 7,2 C 6,8 C 12,9 km/h (3 Bft) 97,37 %
11.11.2018 21:54 7,8 C 10,0 C 7,8 C 96 % 1018,2 hPa 0,0 l/m 6,6 km/h (2 Bft) O-SO 115 0 min 0,000 mm 0,0 UV-I 0 W/m 7,2 C 7,7 C 12,9 km/h (3 Bft) 95,74 %
11.11.2018 21:56 7,8 C 10,0 C 7,8 C 96 % 1018,2 hPa 0,0 l/m 5,6 km/h (1 Bft) S-SO 148 0 min 0,000 mm 0,0 UV-I 0 W/m 7,2 C 7,8 C 11,3 km/h (2 Bft) 97,87 %
11.11.2018 21:58 7,8 C 10,0 C 7,8 C 96 % 1018,1 hPa 0,0 l/m 9,6 km/h (2 Bft) O-SO 113 0 min 0,000 mm 0,0 UV-I 0 W/m 7,2 C 5,4 C 14,5 km/h (3 Bft) 95,74 %
11.11.2018 22:00 7,8 C 10,0 C 7,8 C 96 % 1018,2 hPa 0,0 l/m 10,2 km/h (2 Bft) O-SO 103 0 min 0,000 mm 0,0 UV-I 0 W/m 7,2 C 5,0 C 14,5 km/h (3 Bft) 97,87 %
11.11.2018 22:02 7,8 C 10,0 C 7,8 C 96 % 1018,2 hPa 0,0 l/m 2,4 km/h (1 Bft) O-SO 119 0 min 0,000 mm 0,0 UV-I 0 W/m 7,2 C 7,8 C 6,4 km/h (2 Bft) 97,87 %
11.11.2018 22:04 7,8 C 10,0 C 7,8 C 96 % 1018,2 hPa 0,0 l/m 2,8 km/h (1 Bft) O 79 0 min 0,000 mm 0,0 UV-I 0 W/m 7,2 C 7,8 C 6,4 km/h (2 Bft) 93,62 %
11.11.2018 22:06 7,8 C 10,0 C 7,8 C 96 % 1018,2 hPa 0,0 l/m 4,4 km/h (1 Bft) O-SO 105 0 min 0,000 mm 0,0 UV-I 0 W/m 7,2 C 7,8 C 8,0 km/h (2 Bft) 95,74 %
11.11.2018 22:08 7,8 C 10,0 C 7,8 C 96 % 1018,2 hPa 0,0 l/m 4,5 km/h (1 Bft) O-NO 78 0 min 0,000 mm 0,0 UV-I 0 W/m 7,2 C 7,8 C 6,4 km/h (2 Bft) 97,87 %
11.11.2018 22:10 7,8 C 10,0 C 7,8 C 96 % 1018,2 hPa 0,0 l/m 5,4 km/h (1 Bft) O-NO 59 0 min 0,000 mm 0,0 UV-I 0 W/m 7,2 C 7,8 C 9,7 km/h (2 Bft) 98,00 %
11.11.2018 22:12 7,8 C 10,0 C 7,8 C 96 % 1018,2 hPa 0,0 l/m 4,6 km/h (1 Bft) O 100 0 min 0,000 mm 0,0 UV-I 0 W/m 7,2 C 7,8 C 8,0 km/h (2 Bft) 97,87 %
11.11.2018 22:14 7,8 C 10,0 C 7,8 C 96 % 1018,3 hPa 0,0 l/m 4,9 km/h (1 Bft) O 84 0 min 0,000 mm 0,0 UV-I 0 W/m 7,2 C 7,8 C 6,4 km/h (2 Bft) 97,87 %
11.11.2018 22:16 7,8 C 10,0 C 7,8 C 96 % 1018,4 hPa 0,0 l/m 4,9 km/h (1 Bft) O-SO 103 0 min 0,000 mm 0,0 UV-I 0 W/m 7,2 C 7,8 C 9,7 km/h (2 Bft) 97,87 %
11.11.2018 22:18 7,8 C 10,0 C 7,8 C 96 % 1018,4 hPa 0,0 l/m 4,5 km/h (1 Bft) O-SO 109 0 min 0,000 mm 0,0 UV-I 0 W/m 7,2 C 7,8 C 8,0 km/h (2 Bft) 96,00 %
11.11.2018 22:20 7,8 C 10,0 C 7,8 C 96 % 1018,5 hPa 0,0 l/m 7,8 km/h (2 Bft) O 96 0 min 0,000 mm 0,0 UV-I 0 W/m 7,2 C 6,7 C 9,7 km/h (2 Bft) 100,00 %
11.11.2018 22:22 7,9 C 10,0 C 7,8 C 96 % 1018,5 hPa 0,0 l/m 4,6 km/h (1 Bft) O 96 0 min 0,000 mm 0,0 UV-I 0 W/m 7,3 C 7,9 C 9,7 km/h (2 Bft) 95,74 %
11.11.2018 22:24 7,9 C 10,0 C 7,8 C 96 % 1018,5 hPa 0,0 l/m 4,4 km/h (1 Bft) NO 55 0 min 0,000 mm 0,0 UV-I 0 W/m 7,3 C 7,9 C 6,4 km/h (2 Bft) 94,34 %
11.11.2018 22:26 7,9 C 10,0 C 7,8 C 96 % 1018,4 hPa 0,0 l/m 6,5 km/h (2 Bft) O-NO 69 0 min 0,000 mm 0,0 UV-I 0 W/m 7,3 C 7,8 C 9,7 km/h (2 Bft) 100,00 %
11.11.2018 22:29 7,9 C 10,0 C 7,8 C 96 % 1018,4 hPa 0,0 l/m 6,8 km/h (2 Bft) O 98 0 min 0,000 mm 0,0 UV-I 0 W/m 7,3 C 7,6 C 9,7 km/h (2 Bft) 98,57 %
11.11.2018 22:30 7,8 C 10,0 C 7,8 C 96 % 1018,4 hPa 0,0 l/m 5,4 km/h (1 Bft) O 95 0 min 0,000 mm 0,0 UV-I 0 W/m 7,2 C 7,8 C 6,4 km/h (2 Bft) 100,00 %
11.11.2018 22:32 7,8 C 10,0 C 7,8 C 96 % 1018,4 hPa 0,0 l/m 5,4 km/h (1 Bft) O-NO 69 0 min 0,000 mm 0,0 UV-I 0 W/m 7,2 C 7,8 C 9,7 km/h (2 Bft) 97,87 %
11.11.2018 22:34 7,9 C 10,0 C 7,8 C 96 % 1018,5 hPa 0,0 l/m 6,0 km/h (2 Bft) O-NO 57 0 min 0,000 mm 0,0 UV-I 0 W/m 7,3 C 7,9 C 8,0 km/h (2 Bft) 100,00 %
11.11.2018 22:36 7,9 C 10,0 C 7,8 C 96 % 1018,5 hPa 0,0 l/m 3,3 km/h (1 Bft) NO 53 0 min 0,000 mm 0,0 UV-I 0 W/m 7,3 C 7,9 C 6,4 km/h (2 Bft) 100,00 %
11.11.2018 22:39 7,9 C 10,0 C 7,8 C 96 % 1018,6 hPa 0,0 l/m 4,3 km/h (1 Bft) NO 40 0 min 0,000 mm 0,0 UV-I 0 W/m 7,3 C 7,9 C 8,0 km/h (2 Bft) 98,63 %
11.11.2018 22:40 7,9 C 10,0 C 7,8 C 96 % 1018,6 hPa 0,0 l/m 6,0 km/h (2 Bft) NO 47 0 min 0,000 mm 0,0 UV-I 0 W/m 7,3 C 7,9 C 8,0 km/h (2 Bft) 100,00 %
11.11.2018 22:42 7,9 C 10,0 C 7,8 C 96 % 1018,6 hPa 0,0 l/m 5,5 km/h (1 Bft) NO 53 0 min 0,000 mm 0,0 UV-I 0 W/m 7,3 C 7,9 C 8,0 km/h (2 Bft) 96,23 %
11.11.2018 22:44 7,9 C 10,0 C 7,8 C 96 % 1018,6 hPa 0,0 l/m 4,5 km/h (1 Bft) NO 56 0 min 0,000 mm 0,0 UV-I 0 W/m 7,3 C 7,9 C 8,0 km/h (2 Bft) 97,87 %
11.11.2018 22:46 7,9 C 10,0 C 7,8 C 96 % 1018,5 hPa 0,0 l/m 4,8 km/h (1 Bft) O-NO 63 0 min 0,000 mm 0,0 UV-I 0 W/m 7,3 C 7,9 C 6,4 km/h (2 Bft) 97,87 %
11.11.2018 22:48 7,9 C 10,0 C 7,8 C 96 % 1018,5 hPa 0,0 l/m 3,4 km/h (1 Bft) O-NO 63 0 min 0,000 mm 0,0 UV-I 0 W/m 7,3 C 7,9 C 4,8 km/h (1 Bft) 95,74 %
11.11.2018 22:50 7,9 C 10,0 C 7,8 C 96 % 1018,6 hPa 0,0 l/m 3,5 km/h (1 Bft) NO 55 0 min 0,000 mm 0,0 UV-I 0 W/m 7,3 C 7,9 C 4,8 km/h (1 Bft) 97,87 %
11.11.2018 22:52 7,9 C 10,0 C 7,8 C 96 % 1018,7 hPa 0,0 l/m 3,6 km/h (1 Bft) NO 55 0 min 0,000 mm 0,0 UV-I 0 W/m 7,3 C 7,9 C 4,8 km/h (1 Bft) 97,44 %
11.11.2018 22:54 7,9 C 10,0 C 7,8 C 96 % 1018,6 hPa 0,0 l/m 4,3 km/h (1 Bft) O-NO 58 0 min 0,000 mm 0,0 UV-I 0 W/m 7,3 C 7,9 C 6,4 km/h (2 Bft) 97,87 %
11.11.2018 22:56 7,9 C 10,0 C 7,8 C 96 % 1018,6 hPa 0,0 l/m 4,9 km/h (1 Bft) NO 49 0 min 0,000 mm 0,0 UV-I 0 W/m 7,3 C 7,9 C 8,0 km/h (2 Bft) 93,62 %
11.11.2018 22:58 7,9 C 10,0 C 7,8 C 96 % 1018,6 hPa 0,0 l/m 7,5 km/h (2 Bft) NO 37 0 min 0,000 mm 0,0 UV-I 0 W/m 7,3 C 7,0 C 11,3 km/h (2 Bft) 93,62 %
11.11.2018 23:00 7,9 C 10,0 C 7,8 C 96 % 1018,6 hPa 0,0 l/m 7,4 km/h (2 Bft) O-NO 65 0 min 0,000 mm 0,0 UV-I 0 W/m 7,3 C 7,1 C 12,9 km/h (3 Bft) 97,87 %
11.11.2018 23:02 7,9 C 10,0 C 7,8 C 96 % 1018,6 hPa 0,0 l/m 4,0 km/h (1 Bft) O-NO 78 0 min 0,000 mm 0,0 UV-I 0 W/m 7,3 C 7,9 C 6,4 km/h (2 Bft) 98,11 %
11.11.2018 23:04 7,9 C 10,0 C 7,8 C 96 % 1018,6 hPa 0,0 l/m 4,7 km/h (1 Bft) O-NO 76 0 min 0,000 mm 0,0 UV-I 0 W/m 7,3 C 7,9 C 6,4 km/h (2 Bft) 100,00 %
11.11.2018 23:06 7,9 C 10,0 C 7,8 C 96 % 1018,6 hPa 0,0 l/m 6,4 km/h (2 Bft) NO 51 0 min 0,000 mm 0,0 UV-I 0 W/m 7,3 C 7,9 C 8,0 km/h (2 Bft) 100,00 %
11.11.2018 23:08 7,9 C 10,0 C 7,8 C 96 % 1018,6 hPa 0,0 l/m 7,5 km/h (2 Bft) NO 43 0 min 0,000 mm 0,0 UV-I 0 W/m 7,3 C 7,0 C 9,7 km/h (2 Bft) 97,87 %
11.11.2018 23:10 7,9 C 10,0 C 7,8 C 96 % 1018,6 hPa 0,0 l/m 8,9 km/h (2 Bft) NO 53 0 min 0,000 mm 0,0 UV-I 0 W/m 7,3 C 6,0 C 12,9 km/h (3 Bft) 100,00 %
11.11.2018 23:12 7,9 C 10,0 C 7,8 C 96 % 1018,6 hPa 0,0 l/m 8,6 km/h (2 Bft) O-NO 59 0 min 0,000 mm 0,0 UV-I 0 W/m 7,3 C 6,2 C 14,5 km/h (3 Bft) 100,00 %
11.11.2018 23:14 7,9 C 10,0 C 7,8 C 96 % 1018,7 hPa 0,0 l/m 8,5 km/h (2 Bft) O-NO 61 0 min 0,000 mm 0,0 UV-I 0 W/m 7,3 C 6,3 C 14,5 km/h (3 Bft) 97,87 %
11.11.2018 23:16 7,9 C 10,0 C 7,8 C 96 % 1018,8 hPa 0,0 l/m 5,7 km/h (1 Bft) O 79 0 min 0,000 mm 0,0 UV-I 0 W/m 7,3 C 7,9 C 8,0 km/h (2 Bft) 100,00 %
11.11.2018 23:18 7,9 C 10,0 C 7,8 C 96 % 1018,8 hPa 0,0 l/m 7,3 km/h (2 Bft) O-NO 61 0 min 0,000 mm 0,0 UV-I 0 W/m 7,3 C 7,2 C 12,9 km/h (3 Bft) 95,74 %
11.11.2018 23:20 7,9 C 10,0 C 7,8 C 96 % 1018,9 hPa 0,0 l/m 9,6 km/h (2 Bft) O 84 0 min 0,000 mm 0,0 UV-I 0 W/m 7,3 C 5,5 C 14,5 km/h (3 Bft) 97,87 %
11.11.2018 23:22 7,9 C 10,0 C 7,8 C 96 % 1018,9 hPa 0,0 l/m 8,2 km/h (2 Bft) NO 51 0 min 0,000 mm 0,0 UV-I 0 W/m 7,3 C 6,5 C 12,9 km/h (3 Bft) 100,00 %
11.11.2018 23:24 7,9 C 10,0 C 7,8 C 96 % 1019,0 hPa 0,0 l/m 7,2 km/h (2 Bft) O 82 0 min 0,000 mm 0,0 UV-I 0 W/m 7,3 C 7,3 C 12,9 km/h (3 Bft) 100,00 %
11.11.2018 23:26 7,9 C 10,0 C 7,8 C 96 % 1019,0 hPa 0,0 l/m 9,0 km/h (2 Bft) O-NO 76 0 min 0,000 mm 0,0 UV-I 0 W/m 7,3 C 5,9 C 12,9 km/h (3 Bft) 100,00 %
11.11.2018 23:28 7,9 C 10,0 C 7,8 C 96 % 1019,0 hPa 0,0 l/m 8,8 km/h (2 Bft) O-NO 71 0 min 0,000 mm 0,0 UV-I 0 W/m 7,3 C 6,1 C 12,9 km/h (3 Bft) 98,00 %
11.11.2018 23:30 7,9 C 10,0 C 7,8 C 96 % 1019,1 hPa 0,0 l/m 6,6 km/h (2 Bft) O 80 0 min 0,000 mm 0,0 UV-I 0 W/m 7,3 C 7,8 C 11,3 km/h (2 Bft) 97,87 %
11.11.2018 23:32 7,9 C 10,0 C 7,8 C 96 % 1019,2 hPa 0,0 l/m 3,7 km/h (1 Bft) O 81 0 min 0,000 mm 0,0 UV-I 0 W/m 7,3 C 7,9 C 6,4 km/h (2 Bft) 98,00 %
11.11.2018 23:34 7,9 C 10,0 C 7,8 C 96 % 1019,2 hPa 0,0 l/m 6,8 km/h (2 Bft) O-NO 59 0 min 0,000 mm 0,0 UV-I 0 W/m 7,3 C 7,6 C 9,7 km/h (2 Bft) 100,00 %
11.11.2018 23:36 7,9 C 10,0 C 7,8 C 96 % 1019,2 hPa 0,0 l/m 4,3 km/h (1 Bft) O-SO 105 0 min 0,000 mm 0,0 UV-I 0 W/m 7,3 C 7,9 C 6,4 km/h (2 Bft) 95,74 %
11.11.2018 23:38 7,9 C 10,0 C 7,8 C 96 % 1019,3 hPa 0,0 l/m 5,2 km/h (1 Bft) O 101 0 min 0,000 mm 0,0 UV-I 0 W/m 7,3 C 7,9 C 9,7 km/h (2 Bft) 93,62 %
11.11.2018 23:40 7,9 C 10,0 C 7,8 C 96 % 1019,3 hPa 0,0 l/m 4,4 km/h (1 Bft) O-NO 58 0 min 0,000 mm 0,0 UV-I 0 W/m 7,3 C 7,9 C 9,7 km/h (2 Bft) 97,87 %
11.11.2018 23:42 7,9 C 10,0 C 7,8 C 96 % 1019,3 hPa 0,0 l/m 3,8 km/h (1 Bft) NO 49 0 min 0,000 mm 0,0 UV-I 0 W/m 7,3 C 7,9 C 6,4 km/h (2 Bft) 95,74 %
11.11.2018 23:44 7,9 C 10,0 C 7,8 C 96 % 1019,4 hPa 0,0 l/m 3,7 km/h (1 Bft) NO 40 0 min 0,000 mm 0,0 UV-I 0 W/m 7,3 C 7,9 C 4,8 km/h (1 Bft) 97,87 %
11.11.2018 23:46 7,9 C 10,0 C 7,8 C 96 % 1019,4 hPa 0,0 l/m 2,7 km/h (1 Bft) NO 55 0 min 0,000 mm 0,0 UV-I 0 W/m 7,3 C 7,9 C 4,8 km/h (1 Bft) 97,87 %
11.11.2018 23:48 7,9 C 10,0 C 7,8 C 96 % 1019,4 hPa 0,0 l/m 7,0 km/h (2 Bft) O-SO 102 0 min 0,000 mm 0,0 UV-I 0 W/m 7,3 C 7,4 C 11,3 km/h (2 Bft) 97,87 %
11.11.2018 23:50 7,9 C 10,0 C 7,8 C 96 % 1019,4 hPa 0,0 l/m 7,3 km/h (2 Bft) O 89 0 min 0,000 mm 0,0 UV-I 0 W/m 7,3 C 7,2 C 11,3 km/h (2 Bft) 95,74 %
11.11.2018 23:52 7,8 C 10,0 C 7,8 C 96 % 1019,4 hPa 0,0 l/m 8,5 km/h (2 Bft) O-SO 107 0 min 0,000 mm 0,0 UV-I 0 W/m 7,2 C 6,2 C 12,9 km/h (3 Bft) 95,74 %
11.11.2018 23:54 7,8 C 10,0 C 7,8 C 96 % 1019,4 hPa 0,0 l/m 4,0 km/h (1 Bft) O 83 0 min 0,000 mm 0,0 UV-I 0 W/m 7,2 C 7,8 C 6,4 km/h (2 Bft) 93,62 %
11.11.2018 23:56 7,9 C 10,0 C 7,8 C 96 % 1019,5 hPa 0,0 l/m 5,4 km/h (1 Bft) O-SO 108 0 min 0,000 mm 0,0 UV-I 0 W/m 7,3 C 7,9 C 6,4 km/h (2 Bft) 94,74 %
11.11.2018 23:58 7,8 C 10,0 C 7,8 C 96 % 1019,4 hPa 0,0 l/m 6,0 km/h (2 Bft) O-SO 102 0 min 0,000 mm 0,0 UV-I 0 W/m 7,2 C 7,8 C 9,7 km/h (2 Bft) 95,74 %
_ Min-Zeit 19:34 00:00 18:58 13:44 00:24 - 06:10 - - - - - - 19:32 20:54 06:10 19:50
Minimum _ 5,9 C 10,0 C 1,1 C 83 % 1011,2 hPa - 0,0 km/h (0 Bft) - - - - - - 5,1 C 2,3 C 0,0 km/h (0 Bft) 89,19 %
_ Max-Zeit 13:58 00:00 12:38 20:04 23:56 00:00 20:54 - - 11:36 13:00 11:46 12:44 13:58 13:58 20:52 00:14
Maximum _ 10,8 C 10,0 C 15,0 C 96 % 1019,5 hPa 0,0 l/m 15,1 km/h
O (3 Bft)
- - 2 min 0,153 mm 0,9 UV-I 534 W/m 8,2 C 10,8 C 20,9 km/h
O (4 Bft)
100,00 %
Durchschnitt _ 8,4 C 10,0 C 8,3 C 91 % 1015,3 hPa #0,0 l/m 3,9 km/h (1 Bft) O - #3:50 h #0,635 mm 0,6 UV-I 129 W/m 7,0 C 8,3 C 6,3 km/h (2 Bft) 97,17 %